[[{"header":{"parameterUnit":"m.s-1","parameterCategory":1,"la1":30.6,"la2":29.2853,"lo1":-89.7004,"lo2":-87.6739,"dx":0.0162,"dy":0.0183,"nx":112,"ny":82,"refTime":"2022-11-10T06:00:00:Z","depth":0,"parameterNumber":2,"parameterNumberName":"U-component_of_WINDS"},"data":[0.0,0.0,0.0,0.0,0.0,0.0,0.0,0.0,0.0,0.0,0.0,0.0,0.0,0.0,0.0,0.0,0.0,0.0,0.0,0.0,0.0,0.0,0.0,0.0,0.0,0.0,0.0,0.0,0.0,0.0,0.0,0.0,0.0,0.0,0.0,0.0,0.0,0.0,0.0,0.0,0.0,0.0,0.0,0.0,0.0,0.0,0.0,0.0,0.0,0.0,0.0,0.0,0.0,0.0,0.0,0.0,0.0,0.0,0.0,0.0,0.0,0.0,0.0,0.0,0.0,0.0,0.0,0.0,0.0,0.0,0.0,0.0,0.0,0.0,0.0,0.0,0.0,0.0,0.0,0.0,0.0,0.0,0.0,0.0,0.0,0.0,0.0,0.0,0.0,0.0,1.0721,1.1475,1.2372,1.2926,1.2926,1.256,1.1323,0.8977,0.0,0.0,0.0,0.0,0.0,0.0,0.0,0.0,0.0,0.0,0.0,0.0,0.0,0.0,0.0,0.0,0.0,0.0,0.0,0.0,0.0,0.0,0.0,0.0,0.0,0.0,0.0,0.0,0.0,0.0,0.0,0.0,0.0,0.0,0.0,0.0,0.0,0.0,0.0,0.0,0.0,0.0,0.0,0.0,0.0,0.0,0.0,0.0,0.0,0.0,0.0,0.0,0.0,0.0,0.0,0.0,0.0,0.0,0.0,0.0,0.0,0.0,0.0,0.0,0.0,0.0,0.0,0.0,0.0,0.0,0.0,0.0,0.0,0.0,0.0,0.0,0.0,0.0,0.0,0.0,0.0,0.0,0.0,0.0,0.0,0.0,0.0,0.0,0.0,0.0,0.0,0.0,0.0,0.0,0.0,0.0,0.0,0.0,0.0,0.0,0.0,0.0,0.0,0.0,1.0165,1.2486,1.2576,1.2512,1.2512,1.2134,1.0871,0.8371,0.0,0.0,0.0,0.0,0.0,0.0,0.0,0.0,0.0,0.0,0.0,0.0,0.0,0.0,0.0,0.0,0.0,0.0,0.0,0.0,0.0,0.0,0.0,0.0,0.0,0.0,0.0,0.0,0.0,0.0,0.0,0.0,0.0,0.0,0.0,0.0,0.0,0.0,0.0,0.0,0.0,0.0,0.0,0.0,0.0,0.0,0.0,0.0,0.0,0.0,0.0,0.0,0.0,0.0,0.0,0.0,0.0,0.0,0.0,0.0,0.0,0.0,0.0,0.0,0.0,0.0,0.0,0.0,0.0,0.0,0.0,0.0,0.0,0.0,0.0,0.0,0.0,0.0,0.0,0.0,0.0,0.0,0.0,0.0,0.0,0.0,0.0,0.0,0.0,0.0,0.0,0.0,0.0,0.0,0.0,0.0,0.0,0.0,0.0,0.0,0.0,0.0,0.0,0.9841,1.1194,1.3064,1.3132,1.3025,1.2992,1.2439,1.1078,0.8558,0.7821,0.0,0.0,0.0,0.0,0.0,0.0,0.0,0.0,0.0,0.0,0.0,0.0,0.0,0.0,0.0,0.0,0.0,0.0,0.0,0.0,0.0,0.0,0.0,0.0,0.0,0.0,0.0,0.0,0.0,0.0,0.0,0.0,0.0,0.0,0.0,0.0,0.0,0.0,0.0,0.0,0.0,0.0,0.0,0.0,0.0,0.0,0.0,0.0,0.0,0.0,0.0,0.0,0.0,0.0,0.0,0.0,0.0,0.0,0.0,0.0,0.0,0.0,0.0,0.0,0.0,0.0,0.0,0.0,0.0,0.0,0.0,0.0,0.0,0.0,0.0,0.0,0.0,0.0,0.0,0.0,0.0,0.0,0.0,0.0,0.0,0.0,0.0,0.0,0.0,0.0,0.0,0.0,0.0,0.0,0.0,0.0,0.0,0.0,0.0,0.0,0.0,0.0,1.1472,1.255,1.3519,1.358,1.3485,1.3512,1.2732,1.1195,0.8653,0.7666,0.0,0.0,0.0,0.0,0.0,0.0,0.0,0.0,0.0,0.0,0.0,0.0,0.0,0.0,0.0,0.0,0.0,0.0,0.0,0.0,0.0,0.0,0.0,0.0,0.0,0.0,0.0,0.0,0.0,0.0,0.0,0.0,0.0,0.0,0.0,0.0,0.0,0.0,0.0,0.0,0.0,0.0,0.0,0.0,0.0,0.0,0.0,0.0,0.0,0.0,0.0,0.0,0.0,0.0,0.0,0.0,0.0,0.0,0.0,0.0,0.0,0.0,0.0,0.0,0.0,0.0,0.0,0.0,0.0,0.0,0.0,0.0,0.0,0.0,0.0,0.0,0.0,0.0,0.0,0.0,0.0,0.0,0.0,0.0,0.0,0.0,0.0,0.0,0.0,0.0,0.0,0.0,0.0,0.0,0.0,0.0,0.0,0.0,0.0,0.0,0.0,0.0,1.1828,1.358,1.4029,1.3735,1.3476,1.3511,1.2481,1.0701,0.8018,0.7461,0.0,0.0,0.0,0.0,0.0,0.0,0.0,0.0,0.0,0.0,0.0,0.0,0.0,0.0,0.0,0.0,0.0,0.0,0.0,0.0,0.0,0.0,0.0,0.0,0.0,0.0,0.0,0.0,0.0,0.0,0.0,0.0,0.0,0.0,0.0,0.0,0.0,0.0,0.0,0.0,0.0,0.0,0.0,0.0,0.0,0.0,0.0,0.0,0.0,0.0,0.0,0.0,0.0,0.0,0.0,0.0,0.0,0.0,0.0,0.0,0.0,0.0,0.0,0.0,0.0,0.0,0.0,0.0,0.0,0.0,0.0,0.0,0.0,0.0,0.0,0.0,0.0,0.0,0.0,0.0,0.0,0.0,0.0,0.0,0.0,0.0,0.0,0.0,0.0,0.0,0.0,0.0,0.0,0.0,0.0,0.0,0.0,0.0,0.0,0.0,0.0,0.0,1.109,1.2555,1.3581,1.34,1.3282,1.3449,1.2918,1.1326,0.8362,0.0,0.0,0.0,0.0,0.0,0.0,0.0,0.0,0.0,0.0,0.0,0.0,0.0,0.0,0.0,0.0,0.0,0.0,0.0,0.0,0.0,0.0,0.0,0.0,0.0,0.0,0.0,0.0,0.0,0.0,0.0,0.0,0.0,0.0,0.0,0.0,0.0,0.0,0.0,0.0,0.0,0.0,0.0,0.0,0.0,0.0,0.0,0.0,0.0,0.0,0.0,0.0,0.0,0.0,0.0,0.0,0.0,0.0,0.0,0.0,0.0,0.0,0.0,0.0,0.0,0.0,0.0,0.0,0.0,0.0,0.0,0.0,0.0,0.0,0.0,0.0,0.0,0.0,0.0,0.0,0.0,0.0,0.0,0.0,0.0,0.0,0.0,0.0,0.0,0.0,0.0,0.0,0.0,0.0,0.0,0.0,0.0,0.0,0.0,0.0,0.0,0.0,0.9494,1.1177,1.2599,1.3553,1.3489,1.3378,1.3518,1.321,1.1651,0.8435,0.0,0.0,0.0,0.0,0.0,0.0,0.0,0.0,0.0,0.0,0.0,0.0,0.0,0.0,0.0,0.0,0.0,0.0,0.0,0.0,0.0,0.0,0.0,0.0,0.0,0.0,0.0,0.0,0.0,0.0,0.0,0.0,0.0,0.0,0.0,0.0,0.0,0.0,0.0,0.0,0.0,0.0,0.0,0.0,0.0,0.0,0.0,0.0,0.0,0.0,0.0,0.0,0.0,0.0,0.0,0.0,0.0,0.0,0.0,0.0,0.0,0.0,0.0,0.0,0.0,0.0,0.0,0.0,0.0,0.0,0.0,0.0,0.0,0.0,0.0,0.0,0.0,0.0,0.0,0.0,0.0,0.0,0.0,0.0,0.0,0.0,0.0,0.0,0.0,0.0,0.0,0.0,0.0,0.0,0.0,0.0,0.0,0.0,0.0,0.0,0.0,0.0,0.9777,1.2324,1.4073,1.4064,1.4092,1.3917,1.3614,1.3226,1.148,0.0,0.0,0.0,0.0,0.0,0.0,0.0,0.0,0.0,0.0,0.0,0.0,0.0,0.0,0.0,0.0,0.0,0.0,0.0,0.0,0.0,0.0,0.0,0.0,0.0,0.0,0.0,0.0,0.0,0.0,0.0,0.0,0.0,0.0,0.0,0.0,0.0,0.0,0.0,0.0,0.0,0.0,0.0,0.0,0.0,0.0,0.0,0.0,0.0,0.0,0.0,0.0,0.0,0.0,0.0,0.0,0.0,0.0,0.0,0.0,0.0,0.0,0.0,0.0,0.0,0.0,0.0,0.0,0.0,0.0,0.0,0.0,0.0,0.0,0.0,0.0,0.0,0.0,0.0,0.0,0.0,0.0,0.0,0.0,0.0,0.0,0.0,0.0,0.0,0.0,0.0,0.0,0.0,0.0,0.0,0.0,0.0,0.0,0.0,0.0,0.0,0.0,0.0,0.9178,1.1259,1.2604,1.2403,1.2214,1.2262,1.2819,1.2425,1.102,0.854,0.0,0.0,0.0,0.0,0.0,0.0,0.0,0.0,0.0,0.0,0.0,0.0,0.0,0.0,0.0,0.0,0.0,0.0,0.0,0.0,0.0,0.0,0.0,0.0,0.0,0.0,0.0,0.0,0.0,0.0,0.0,0.0,0.0,0.0,0.0,0.0,0.0,0.0,0.0,0.0,0.0,0.0,0.0,0.0,0.0,0.0,0.0,0.0,0.0,0.0,0.0,0.0,0.0,0.0,0.0,0.0,0.0,0.0,0.0,0.0,0.0,0.0,0.0,0.0,0.0,0.0,0.0,0.0,0.0,0.0,0.0,0.0,0.0,0.0,0.0,0.0,0.0,0.0,0.0,0.0,0.0,0.0,0.0,0.0,0.0,0.0,0.0,0.0,0.0,0.0,0.0,0.0,0.0,0.0,0.0,0.0,0.0,0.0,0.0,0.0,0.0,0.0,0.8938,1.0863,1.2157,1.1909,1.1668,1.1668,1.1996,1.1818,1.0803,0.8732,0.0,0.0,0.0,0.0,0.0,0.0,0.0,0.0,0.0,0.0,0.0,0.0,0.0,0.0,0.0,0.0,0.0,0.0,0.0,0.0,0.0,0.0,0.0,0.0,0.0,0.0,0.0,0.0,0.0,0.0,0.0,0.0,0.0,0.0,0.0,0.0,0.0,0.0,0.0,0.0,0.0,0.0,0.0,0.0,0.0,0.0,0.0,0.0,0.0,0.0,0.0,0.0,0.0,0.0,0.0,0.0,0.0,0.0,0.0,0.0,0.0,0.0,0.0,0.0,0.0,0.0,0.0,0.0,0.0,0.0,0.0,0.0,0.0,0.0,0.0,0.0,0.0,0.0,0.0,0.0,0.0,0.0,0.0,0.0,0.0,0.0,0.0,0.0,0.0,0.0,0.0,0.0,0.0,0.0,0.0,0.0,0.0,0.0,0.0,0.0,0.0,0.0,0.8929,1.0918,1.2241,1.1986,1.198,1.1746,1.1244,1.1434,1.0745,0.8774,0.0,0.0,0.0,0.0,0.0,0.0,0.0,0.0,0.0,0.0,0.0,0.0,0.0,0.0,0.0,0.0,0.0,0.0,0.0,0.0,0.0,0.0,0.0,0.0,0.0,0.0,0.0,0.0,0.0,0.0,0.0,0.0,0.0,0.0,0.0,0.0,0.0,0.0,0.0,0.0,0.0,0.0,0.0,0.0,0.0,0.0,0.0,0.0,0.0,0.0,0.0,0.0,0.0,0.0,0.0,0.0,0.0,0.0,0.0,0.0,1.1019,0.8356,0.0,0.0,0.0,0.0,0.0,0.0,0.0,0.0,0.0,0.0,0.0,0.0,0.0,0.0,0.0,0.0,0.0,0.0,0.0,0.0,0.0,0.0,0.0,0.0,0.0,0.0,0.0,0.0,0.0,0.0,0.0,0.0,0.0,0.0,0.0,0.0,0.0,0.0,0.0,0.0,0.8302,1.0297,1.1506,1.0958,1.0886,1.0994,1.1163,1.0854,1.0196,0.9271,0.8483,0.0,0.0,0.0,0.0,0.0,0.0,0.0,0.0,0.0,0.0,0.0,0.0,0.0,0.0,0.0,0.0,0.0,0.0,0.0,0.0,0.0,0.0,0.0,0.0,0.0,0.0,0.0,0.0,0.0,0.0,0.0,0.0,0.0,0.0,0.0,0.0,0.0,0.0,0.0,0.0,0.0,0.0,0.0,0.0,0.0,0.0,0.0,0.0,0.0,0.0,0.0,0.0,0.0,0.0,0.0,0.0,0.0,0.0,0.0,1.1981,1.0883,0.0,0.0,0.0,0.0,0.0,0.0,0.0,0.0,0.0,0.0,0.0,0.0,0.0,0.0,0.0,0.0,0.0,0.0,0.0,0.0,0.0,0.0,0.0,0.0,0.0,0.0,0.0,0.0,0.0,0.0,0.0,0.0,0.0,0.0,0.0,0.0,0.0,0.0,0.0,0.0,0.8574,1.0245,1.1262,1.0799,1.0813,1.0789,1.0875,1.0612,1.0327,1.0003,0.8949,0.0,0.0,0.0,0.0,0.0,0.0,0.0,0.0,0.0,0.0,0.0,0.0,0.0,0.0,0.0,0.0,0.0,0.0,0.0,0.0,0.0,0.0,0.0,0.0,0.0,0.0,0.0,0.0,0.0,0.0,0.0,0.0,0.0,0.0,0.0,0.0,0.0,0.0,0.0,0.0,0.0,0.0,0.0,0.0,0.0,0.0,0.0,0.0,0.0,0.0,0.0,0.0,0.0,1.2894,1.2964,1.2956,1.2888,1.3262,1.3855,1.3123,1.391,1.5345,1.1277,0.0,0.0,0.0,0.0,0.0,0.0,0.0,0.0,0.0,0.0,0.0,0.0,0.0,0.0,0.0,0.0,0.0,0.0,0.0,0.0,0.0,0.0,1.2175,1.2175,1.2962,1.3194,1.1376,0.0,0.0,0.0,0.0,0.0,0.0,0.0,0.0,0.0,0.0,0.0,0.922,1.0611,1.1359,1.117,1.117,1.1073,1.0794,1.0713,1.0678,1.0595,0.9503,0.8779,0.0,0.0,0.0,0.0,0.0,0.0,0.0,0.0,0.0,0.0,0.0,0.0,0.0,0.0,0.0,0.0,0.0,0.0,0.0,0.0,0.0,0.0,0.0,0.0,0.0,0.0,0.0,0.0,0.0,0.0,0.0,0.0,1.0197,1.1535,0.0,0.0,0.0,0.0,0.0,0.0,0.0,0.0,0.0,0.0,0.0,0.0,0.0,1.2114,1.2824,1.4414,1.5455,1.5895,1.7149,1.7697,1.7689,1.7364,1.7278,1.7312,1.6546,0.0,1.4192,1.3277,0.0,0.0,0.0,0.0,0.0,0.0,0.0,0.0,0.0,0.0,0.0,0.0,0.0,0.0,0.0,0.0,0.0,0.0,0.0,0.0,0.0,0.0,1.5607,1.5607,1.5471,1.5246,1.4941,1.2892,1.0942,1.0186,0.9766,0.8805,0.0,0.0,0.0,0.0,0.0,0.0,0.9991,1.1257,1.2008,1.1922,1.1922,1.1732,1.1262,1.1235,1.107,1.0619,1.0434,0.9906,0.8898,0.8667,0.0,0.0,0.0,0.0,0.0,0.0,0.0,0.0,0.0,0.0,0.0,0.0,0.0,0.0,0.0,0.0,0.0,0.0,0.0,0.0,0.0,0.0,0.0,0.0,0.0,0.0,0.0,0.0,0.0,0.9502,1.1175,1.2186,1.1399,1.0373,0.0,0.0,0.0,0.0,0.0,0.0,0.0,0.0,0.0,1.4826,1.4841,1.5358,1.6338,1.7252,1.7775,1.8017,1.868,1.8691,1.8271,1.8108,1.7809,1.7381,1.7067,1.6431,1.5523,1.4559,1.3883,1.331,0.0,0.0,0.0,0.0,1.1659,1.1754,1.3266,1.3814,1.365,1.3339,0.0,0.0,0.0,0.0,0.0,0.0,0.0,1.2058,1.2638,1.365,1.4809,1.5646,1.5326,1.502,1.568,1.47,1.3219,1.1689,1.0996,0.9838,0.7223,0.7184,0.0,0.0,0.0,0.9737,1.0702,1.1549,1.214,1.214,1.214,1.2042,1.1749,1.1755,1.1635,1.1262,1.1073,1.0709,1.0126,0.9456,0.8394,0.0,0.0,0.0,0.0,0.0,0.0,0.0,0.0,0.0,0.0,0.0,0.0,0.0,0.0,0.0,0.0,0.0,0.0,0.0,0.0,0.0,0.0,0.0,0.0,0.0,0.0,0.0,0.0,1.0713,1.2198,1.3041,1.3005,1.2364,0.0,0.0,0.0,0.0,0.0,0.0,1.4661,1.4819,1.5736,1.7543,1.7579,1.8054,1.8993,1.9307,1.9461,1.9461,1.9564,1.9359,1.8723,1.8602,1.8193,1.7595,1.7582,1.7561,1.7397,1.5876,1.5338,1.536,1.4182,1.3484,1.3227,1.3935,1.4037,1.4107,1.5898,1.6316,1.605,1.5909,1.5322,1.4384,1.3004,0.0,0.0,0.0,0.0,1.2505,1.3192,1.3486,1.383,1.5026,1.4802,1.4468,1.5352,1.528,1.4597,1.3048,1.2394,1.1237,0.8548,0.8611,0.0,0.8571,0.9653,1.0793,1.153,1.2027,1.2242,1.2242,1.2242,1.2237,1.2134,1.2216,1.2004,1.1715,1.1488,1.1262,1.0982,1.0227,0.9323,0.8315,0.0,0.0,0.0,0.0,0.0,0.0,0.0,0.0,0.0,0.0,0.0,0.0,0.0,0.0,0.0,0.0,0.0,0.0,0.0,0.0,0.0,0.0,0.0,0.0,0.0,0.0,0.0,0.0,0.0,1.4673,1.5514,0.0,0.0,0.0,0.0,1.374,1.453,1.567,1.6968,1.7395,1.8135,1.9312,1.9373,1.9332,1.923,1.9872,2.0232,2.024,2.0617,2.0801,2.0727,2.0351,1.9987,1.9595,1.9586,1.937,1.8931,1.7442,1.6544,1.6212,1.5841,1.5418,1.5124,1.5866,1.6174,1.6371,1.7942,1.8456,1.8523,1.8828,1.7649,1.5905,1.5131,1.3393,0.0,0.0,1.1993,1.2914,1.331,1.3978,1.4644,1.4678,1.442,1.416,1.4178,1.4244,1.4324,1.4492,1.4511,1.3898,1.1802,0.0,1.1247,1.06,1.0728,1.1255,1.2231,1.2554,1.2759,1.2759,1.2759,1.2657,1.2441,1.2404,1.2169,1.1753,1.1658,1.1451,1.0987,1.1123,1.011,0.7876,0.7539,0.0,0.0,0.0,0.0,0.0,0.0,0.0,0.0,0.0,0.0,0.0,0.0,0.0,0.0,0.0,0.0,0.0,0.0,0.0,0.0,0.0,0.0,0.0,0.0,0.0,0.0,0.0,0.0,1.5539,1.6178,0.0,1.5355,1.6113,1.6419,1.5886,1.729,1.8556,1.9373,1.9565,2.0053,2.0942,2.0784,2.0323,1.9581,1.9833,1.9565,1.8902,1.9028,1.8887,1.8427,1.8272,1.7908,1.7468,1.7439,1.7373,1.7234,1.6661,1.7129,1.8146,1.804,1.7934,1.7836,1.8049,1.7649,1.7154,1.8654,1.8498,1.759,1.7954,1.7067,1.5886,1.5595,1.4624,1.361,1.3493,1.3528,1.3725,1.3829,1.3835,1.3957,1.4551,1.4045,1.3567,1.411,1.4025,1.3761,1.3926,1.381,1.3176,1.1553,1.1886,1.2128,1.1426,1.2027,1.2759,1.3072,1.318,1.3283,1.3283,1.3077,1.2969,1.2867,1.2129,1.1507,1.1099,1.0424,0.9966,0.9688,0.9602,0.9234,0.8418,0.7614,0.6508,0.0,0.0,0.0,0.0,0.0,0.0,0.0,0.0,0.0,0.0,0.0,0.0,0.0,0.0,0.0,0.0,0.0,0.0,0.0,0.0,0.0,0.0,0.0,0.0,0.0,1.3623,1.5193,1.5984,1.6737,1.7063,1.6749,1.7571,1.8104,1.8155,1.9366,2.0286,2.0348,2.0391,2.0423,2.0506,2.0426,1.999,1.921,1.9244,1.8897,1.82,1.8196,1.7991,1.7559,1.7527,1.726,1.6796,1.6735,1.6684,1.6593,1.6593,1.7394,1.8648,1.8287,1.8179,1.8187,1.8288,1.7777,1.7247,1.8289,1.8026,1.723,1.727,1.6656,1.5853,1.5547,1.5019,1.4461,1.4243,1.4031,1.3922,1.3922,1.3705,1.3602,1.4134,1.3711,1.3378,1.3936,1.3786,1.3467,1.3467,1.3407,1.2969,1.192,1.2344,1.266,1.1903,1.2375,1.2697,1.2486,1.2703,1.2809,1.2703,1.292,1.2899,1.2478,1.1512,1.0817,1.0266,0.9511,0.896,0.8865,0.8671,0.8376,0.8055,0.6966,0.5927,0.5026,0.0,0.0,0.0,0.0,0.0,0.0,0.0,0.0,0.0,0.0,0.0,0.0,0.0,0.0,0.0,0.0,0.0,0.0,0.0,0.0,0.0,0.0,0.0,1.3587,1.4993,1.6105,1.6067,1.7418,1.8371,1.8591,1.8682,1.9199,2.0499,2.0778,2.0565,1.9844,1.9755,1.9267,1.8207,1.8108,1.8076,1.8097,1.8262,1.8309,1.8236,1.8256,1.832,1.829,1.829,1.8101,1.7779,1.7779,1.7558,1.722,1.7227,1.7433,1.75,1.6558,1.6211,1.6309,1.6519,1.6646,1.6593,1.6881,1.7264,1.7566,1.7034,1.6535,1.5837,1.4886,1.4455,1.414,1.3327,1.3333,1.3545,1.3545,1.3545,1.3545,1.3545,1.3545,1.3496,1.3534,1.3496,1.3496,1.3496,1.355,1.3442,1.3127,1.3099,1.2862,1.2292,1.1688,0.0,1.0712,1.1173,1.141,1.1203,1.2318,1.2531,1.1268,1.0789,1.013,0.9213,0.8866,0.8696,0.88,0.8385,0.7674,0.676,0.5622,0.4879,0.4689,0.0,0.0,0.0,0.0,0.0,0.0,0.0,0.0,0.0,0.0,0.0,0.0,0.0,0.0,0.0,0.0,0.0,0.0,0.0,0.0,0.0,1.2176,1.3735,1.5583,1.673,1.7578,1.8012,1.8345,1.8715,1.9315,1.9471,1.9645,1.9941,2.0046,1.9755,1.8992,1.879,1.8781,1.8847,1.8862,1.8614,1.8016,1.8073,1.7714,1.6853,1.6647,1.6472,1.6337,1.6337,1.6152,1.5903,1.5903,1.58,1.5691,1.5909,1.5909,1.589,1.67,1.7079,1.7283,1.6956,1.6653,1.6311,1.565,1.5606,1.5821,1.5923,1.521,1.4407,1.4119,1.3922,1.3652,1.349,1.3462,1.3462,1.3462,1.3462,1.3462,1.3462,1.3577,1.3757,1.3675,1.3846,1.3964,1.3964,1.3986,1.3914,1.3462,1.3545,1.359,1.3336,1.3374,1.3312,1.3222,1.2547,1.2067,1.1841,1.1254,1.0717,1.0391,0.9375,0.8625,0.8458,0.7542,0.7051,0.7051,0.6948,0.6634,0.629,0.5531,0.4984,0.0,0.0,0.0,0.0,0.0,0.0,0.0,0.0,0.0,0.0,0.0,0.0,0.0,0.0,0.0,0.0,0.0,0.0,0.0,0.0,0.0,0.0,1.3251,1.4873,1.6635,1.7247,1.7644,1.8112,1.7863,1.8013,1.892,1.8618,1.8521,1.9146,1.9154,1.8865,1.8313,1.8189,1.8116,1.7941,1.7955,1.7682,1.7137,1.7123,1.6702,1.6004,1.5773,1.5565,1.53,1.53,1.5294,1.5075,1.5075,1.5075,1.5075,1.5294,1.5336,1.5356,0.0,0.0,0.0,0.0,1.586,1.5632,1.495,1.4721,1.4894,1.478,1.4384,1.3801,1.3689,1.3689,1.3594,1.3581,1.3727,1.384,1.384,1.384,1.384,1.384,1.3846,1.3959,1.3959,1.4078,1.4196,1.4196,1.4196,0.0,1.3151,1.3498,1.3576,1.2705,1.2525,1.2265,1.1559,1.1147,1.0762,1.0603,1.0258,0.975,0.9143,0.8255,0.0,0.0,0.0,0.6132,0.6132,0.6029,0.0,0.0,0.0,0.5174,0.5083,0.4612,0.0,0.0,0.3855,0.3687,0.0,0.0,0.0,0.0,0.0,0.0,0.0,0.0,0.0,0.0,0.0,0.0,0.0,0.0,0.0,0.0,1.4671,1.6209,1.6713,1.6679,1.6636,1.7001,1.6553,1.6735,1.7853,1.7007,1.6908,1.8159,1.8209,1.7992,1.7543,1.7648,0.0,0.0,0.0,1.6228,1.5987,1.5985,1.5817,1.5593,1.5589,1.5417,1.5186,1.518,1.518,1.518,1.5068,1.5068,1.5068,1.5074,1.5237,1.5434,1.5195,1.4883,1.4619,1.4502,1.4642,1.4752,1.4538,0.0,0.0,1.3964,1.3846,1.384,1.3614,1.3727,1.3846,1.3846,1.4072,1.4196,1.4196,1.4196,1.4196,1.4196,1.4196,1.4196,1.4196,1.4196,1.4196,1.4196,1.4078,1.3614,1.2572,1.3038,1.3033,1.1203,1.0538,0.9652,0.8199,0.8422,0.8699,0.839,0.9057,0.0,0.7828,0.735,0.6843,0.6263,0.6029,0.5827,0.5724,0.5724,0.5522,0.5218,0.522,0.5422,0.5625,0.5434,0.534,0.5343,0.4126,0.3822,0.0,0.0,0.0,0.0,0.0,0.0,0.0,0.0,0.0,0.0,0.0,0.0,0.0,0.0,0.0,1.2609,1.3854,1.4823,1.5168,1.5356,1.5774,1.6612,1.678,1.6887,1.7,1.7177,1.7452,1.7714,1.7939,1.7701,1.6968,1.6501,1.6282,1.6296,1.6319,1.6233,1.6168,1.6404,1.6385,1.6149,1.5938,0.0,1.5767,1.5535,1.5417,1.5417,1.518,1.5062,1.5062,1.5299,1.5296,1.511,1.5132,1.4635,1.4006,1.4028,1.3916,1.38,1.3916,1.3928,1.3959,1.4078,1.4078,1.4078,1.4078,1.4078,0.0,1.4078,1.4191,1.4196,1.4196,1.4196,1.4196,1.4196,1.4196,1.4196,1.4196,1.4196,1.4196,1.4196,1.3383,1.2685,1.2454,1.2572,1.2229,1.0974,1.066,1.0418,1.0185,0.9382,0.8826,0.8628,0.7765,0.7034,0.6707,0.6345,0.6091,0.606,0.5827,0.5724,0.5929,0.5929,0.5927,0.5827,0.5842,0.5636,0.532,0.5222,0.5127,0.4937,0.4834,0.4734,0.0,0.0,0.0,0.0,0.0,0.0,0.0,0.0,0.0,0.0,0.0,1.0574,1.1371,0.0,1.2783,1.358,1.4268,1.4799,1.5071,1.5221,1.5505,1.6005,1.6005,1.6215,1.6488,1.6526,1.6641,1.6921,1.694,1.685,1.6477,1.6278,1.6229,1.6496,1.6326,1.6284,1.6254,1.6294,1.6186,1.5933,1.5778,1.5541,1.5423,1.5304,1.5221,1.5273,1.5047,1.5041,1.5041,1.516,1.5041,1.4815,1.4871,1.4542,1.4078,1.4078,1.3959,1.3846,1.3959,1.3964,1.4072,1.4191,1.4196,1.4196,1.4196,1.4196,1.4196,1.4196,1.4196,1.4196,1.4196,1.4196,1.4196,1.4196,1.4196,1.4072,1.3383,1.3264,1.3146,1.2572,1.1995,1.135,1.0769,1.0668,1.0441,0.9874,0.9721,0.9436,0.8977,0.8174,0.7607,0.7607,0.6702,0.6146,0.6058,0.5835,0.5771,0.5969,0.5839,0.5839,0.5939,0.5932,0.5827,0.5622,0.5741,0.5644,0.5229,0.5229,0.5131,0.5037,0.4937,0.4937,0.0,0.0,0.0,0.0,0.0,0.0,0.0,0.9655,1.0067,1.0924,1.1353,1.1884,1.291,1.3326,1.3791,1.4654,1.501,1.5258,1.5469,1.559,1.5632,1.5578,1.5433,1.5565,1.6265,1.5998,1.5861,1.6393,1.6151,1.6181,1.6489,1.6378,1.6372,1.6612,1.6402,1.6216,1.6135,1.601,1.5785,1.5571,1.5458,1.5339,1.5108,1.5102,1.5041,1.5019,1.5013,1.5013,1.5013,1.4667,1.4434,1.4304,1.3964,1.3732,1.3614,1.4078,1.4196,1.4196,1.4196,1.4196,1.4196,1.4196,1.4196,1.4196,1.4196,1.4196,1.4191,1.3959,1.3846,1.384,1.3609,1.3496,1.3496,1.3496,1.3496,1.3264,1.2229,1.2036,1.1833,1.0916,1.0466,1.0062,0.9068,0.8745,0.8517,0.852,0.8291,0.7949,0.7163,0.6591,0.6364,0.6596,0.6144,0.5813,0.5721,0.5607,0.5696,0.5794,0.5772,0.5772,0.5772,0.5783,0.5627,0.5222,0.5438,0.5445,0.514,0.514,0.514,0.514,0.4937,0.4834,0.9812,0.9059,0.9377,1.0527,1.0494,1.0845,0.0,1.3102,1.2602,1.364,1.4262,1.4594,1.4503,1.4708,1.4926,1.5046,1.5282,1.5469,1.5493,1.5897,1.6103,1.5761,1.6024,1.6211,1.6304,1.6423,1.66,1.6661,1.666,1.6702,1.7053,1.6547,1.6298,1.6298,1.6223,1.6071,1.5773,1.6004,1.5946,1.5701,1.5701,1.5701,1.5587,1.5348,1.524,1.5252,1.5013,1.4899,1.4786,1.3727,1.3259,1.3033,1.1882,1.1428,1.1544,1.3496,1.4196,1.4196,1.4196,1.4196,1.4196,1.4196,1.4196,1.4196,1.4196,1.4196,1.3964,1.2916,1.2572,1.2342,1.1315,1.1086,1.1086,1.1086,1.1086,1.1086,1.097,1.0891,1.09,1.0671,0.9861,0.9068,0.9085,0.7949,0.7152,0.7379,0.7152,0.6824,0.6733,0.649,0.6371,0.6393,0.617,0.5833,0.5607,0.5607,0.5477,0.5545,0.5543,0.5543,0.5656,0.5638,0.5543,0.5443,0.5543,0.5343,0.5037,0.5037,0.4937,0.4834,0.4937,0.4937,1.1652,1.1307,1.143,1.2254,1.2446,1.2628,1.3561,1.3607,1.3574,1.4171,1.4727,1.5077,1.4962,1.5161,1.5287,1.5338,1.5674,1.5852,1.5523,1.5928,1.6133,1.5979,1.6127,1.6273,1.6496,1.6332,1.6374,1.6876,1.6609,1.6483,1.6533,1.6156,1.5993,1.6114,1.5951,1.5926,1.5926,1.5682,1.5585,1.5504,1.5265,1.5254,1.5254,1.4391,1.3541,1.2808,1.2689,1.2685,1.257,1.2087,1.1808,1.1811,1.1205,1.0961,1.1141,1.1995,1.2342,1.2342,1.2342,1.2342,1.2342,1.2342,1.2229,1.2224,1.2224,1.2224,1.2112,1.154,1.1402,1.127,1.081,1.0692,1.0692,1.0692,1.0692,1.0464,0.9779,0.9724,0.955,0.886,0.8402,0.806,0.7946,0.7385,0.686,0.6754,0.6531,0.6371,0.651,0.6165,0.591,0.5909,0.5814,0.5694,0.5574,0.5574,0.5574,0.5574,0.5574,0.5574,0.5574,0.5569,0.5478,0.5478,0.5369,0.5262,0.5151,0.5043,0.5037,0.4937,0.5037,0.4639,1.2246,1.2454,1.2634,1.3107,1.3679,1.3926,1.3592,1.3912,1.4292,1.4479,1.4849,1.5197,1.5089,1.5311,1.5463,1.5435,1.5809,1.5976,1.5538,1.5904,1.6108,1.5969,1.6038,1.6229,1.6474,1.621,1.6279,1.6882,1.6418,1.6132,1.6171,1.5846,1.5777,1.6014,1.5825,1.5731,1.5985,1.5213,1.4831,1.4831,1.4321,1.4064,1.3946,1.3012,1.2154,1.116,1.116,1.116,1.1156,1.0786,1.0627,1.063,1.0253,1.0127,1.0183,1.0196,1.0551,1.1019,1.1019,1.1019,1.1019,1.1019,1.0903,1.0867,1.0891,1.0833,1.072,1.0377,1.0363,1.0239,0.9894,0.9891,0.9894,0.9894,0.9894,0.9661,0.8745,0.8631,0.8335,0.7439,0.735,0.7236,0.7002,0.6802,0.6766,0.6537,0.628,0.6091,0.6341,0.5994,0.5631,0.5643,0.5669,0.5669,0.5669,0.5669,0.5669,0.5669,0.5669,0.5669,0.5546,0.5548,0.5531,0.5414,0.5066,0.4791,0.4704,0.4365,0.415,0.4045,0.415,0.3626,1.0634,1.1264,1.2041,1.2584,1.3489,1.4322,1.4606,1.4877,1.5071,1.5083,1.5303,1.5453,1.5196,1.5217,1.5452,1.5423,1.5589,1.567,1.5635,1.5985,1.6063,1.5743,1.5954,1.6217,1.634,1.648,1.6509,1.6491,1.6291,1.6136,1.6115,1.588,1.5682,1.5682,1.5709,1.5726,1.5601,1.4326,1.3694,1.3694,1.2434,1.1811,1.1819,1.1792,1.1764,1.1638,1.1638,1.1638,1.1634,1.0368,0.9869,0.9747,0.8494,0.7994,0.7991,0.7975,0.9214,1.0974,1.0974,1.0974,1.0974,1.0974,1.0974,1.0978,1.1021,1.104,1.081,0.9658,0.9318,0.9089,0.7946,0.7721,0.7832,0.7832,0.7832,0.7832,0.7721,0.7607,0.7406,0.7022,0.6982,0.6982,0.6733,0.6392,0.6289,0.6414,0.6156,0.59,0.6147,0.5902,0.5782,0.5792,0.5794,0.5916,0.5916,0.5916,0.5916,0.5916,0.5916,0.5916,0.5794,0.5784,0.5778,0.5653,0.4419,0.3692,0.358,0.2342,0.1671,0.1559,0.1671,0.1673,1.1875,1.2559,1.3103,1.3628,1.4032,1.437,1.4654,1.492,1.5077,1.5075,1.5341,1.5188,1.4082,1.4716,1.5024,1.414,1.5098,1.5779,1.5413,1.5053,1.4645,1.4349,1.3723,1.3395,1.3433,1.5053,1.6306,1.6724,1.5571,1.4835,1.476,1.3798,1.3182,1.3058,1.3058,1.3058,1.3058,1.2561,1.2388,1.2418,1.1913,1.1281,1.0407,1.0476,0.9998,0.912,0.912,0.912,0.912,0.8744,0.8494,0.8494,0.8119,0.7872,0.7872,0.7872,0.8369,0.8995,0.8995,0.8995,0.8995,0.8995,0.887,0.8836,0.8775,0.8719,0.8598,0.8355,0.8234,0.8112,0.7748,0.763,0.7589,0.7269,0.7209,0.7132,0.6968,0.6906,0.6948,0.6848,0.6888,0.69,0.6528,0.641,0.6289,0.6041,0.5919,0.5916,0.5919,0.5916,0.5916,0.5916,0.5916,0.5916,0.5916,0.5916,0.5916,0.5916,0.5916,0.5544,0.4555,0.4555,0.406,0.3197,0.2704,0.2437,0.2391,0.1913,0.1674,0.1554,0.1674,0.1076,1.2772,1.3231,1.3525,1.4141,1.437,1.4545,1.4914,1.5173,1.5425,1.5517,1.512,1.4478,1.3404,1.3916,1.4113,1.268,1.4451,1.5578,1.4197,1.4094,1.3851,1.3186,1.2436,1.2039,1.2048,1.3637,1.478,1.5182,1.4132,1.34,1.3367,1.2461,1.1811,1.1687,1.1687,1.1687,1.1687,1.1307,1.0755,1.0379,1.0379,0.9876,0.912,0.912,0.8619,0.7872,0.7872,0.7872,0.7872,0.7994,0.7994,0.7994,0.7994,0.7994,0.7994,0.7994,0.7994,0.7994,0.7872,0.7872,0.7872,0.7994,0.7872,0.7869,0.7869,0.7869,0.7747,0.7869,0.7867,0.787,0.787,0.7746,0.7573,0.7345,0.7154,0.6958,0.6822,0.6766,0.6764,0.6641,0.6653,0.6662,0.6289,0.6166,0.6166,0.5919,0.5916,0.5916,0.5916,0.5916,0.5916,0.5916,0.5916,0.5916,0.5916,0.5916,0.5916,0.5916,0.5916,0.5297,0.3937,0.3942,0.3326,0.197,0.1477,0.1109,0.1112,0.0617,0.037,0.037,0.0247,-0.037,1.3034,1.3309,1.3399,1.4135,1.4552,1.4908,1.5403,1.5589,1.5789,1.601,1.46,1.3213,1.3009,1.2871,1.2505,1.1326,1.3703,1.4862,1.2111,1.2971,1.3439,1.1931,1.1832,1.1968,1.2227,1.2155,1.2196,1.1965,1.1949,1.1915,1.1862,1.1771,1.165,1.152,1.152,1.152,1.152,1.0253,0.912,0.7872,0.7872,0.7872,0.7872,0.7872,0.7872,0.7872,0.7872,0.7872,0.7872,0.7997,0.8133,0.8156,0.8158,0.8158,0.8158,0.8158,0.8158,0.8158,0.803,0.7891,0.7994,0.8119,0.8136,0.8156,0.8158,0.8158,0.8158,0.8158,0.8236,0.8179,0.8179,0.7986,0.7651,0.7627,0.7393,0.7037,0.7037,0.6912,0.6787,0.6414,0.6414,0.6289,0.5919,0.5916,0.5916,0.5916,0.5916,0.5916,0.5916,0.5916,0.5916,0.5916,0.5916,0.5916,0.5916,0.5794,0.5794,0.5794,0.5792,0.5049,0.3813,0.3702,0.309,0.1853,0.0494,-0.0123,-0.0123,-0.1359,-0.1977,-0.1977,-0.2347,-0.2595,1.3707,1.4346,1.4606,1.4606,1.4904,1.5217,1.5347,1.5261,1.4973,1.4046,1.3003,1.1633,0.9709,1.0371,1.0691,0.952,1.1327,1.258,1.1897,1.1395,1.1009,1.062,0.9872,0.9389,0.9392,0.954,0.9522,0.9474,1.0422,1.0989,1.0768,0.9684,0.9117,0.887,0.887,0.887,0.887,0.8494,0.8244,0.7872,0.7872,0.7872,0.7872,0.7994,0.7997,0.7997,0.8119,0.8119,0.8119,0.8119,0.8209,0.8138,0.8138,0.8138,0.8138,0.8138,0.8138,0.8138,0.8138,0.8168,0.8119,0.8122,0.8114,0.8138,0.8138,0.8138,0.8272,0.8272,0.8357,0.8315,0.7907,0.7822,0.753,0.6848,0.666,0.6539,0.6289,0.6166,0.6166,0.6041,0.6041,0.6041,0.5916,0.5919,0.5919,0.5919,0.5919,0.5919,0.5916,0.5916,0.5916,0.5916,0.5916,0.5916,0.5916,0.4926,0.443,0.443,0.3566,0.2335,0.1106,0.0986,0.037,-0.0988,-0.1359,-0.1482,-0.1482,-0.21,-0.2347,-0.2347,-0.2718,-0.2964,1.4376,1.4793,1.4956,1.504,1.5279,1.5304,1.4744,1.4356,1.3814,1.2209,1.097,0.9685,0.8355,0.8957,0.9331,0.826,1.0304,1.1606,1.043,1.0239,1.0128,0.9504,0.8859,0.8451,0.8451,0.8587,0.8587,0.8587,0.927,0.9676,0.9404,0.8646,0.8119,0.7872,0.7872,0.7872,0.7872,0.7872,0.7872,0.7994,0.7994,0.7994,0.7997,0.8119,0.8113,0.8185,0.8185,0.8185,0.8185,0.8314,0.8342,0.8315,0.8315,0.8318,0.8318,0.8318,0.8318,0.8318,0.8318,0.841,0.8314,0.8314,0.8237,0.8315,0.8315,0.8315,0.8179,0.8451,0.8182,0.791,0.7774,0.7505,0.7058,0.6589,0.6291,0.6166,0.5919,0.5916,0.5916,0.5916,0.5916,0.5916,0.5919,0.5919,0.5972,0.6129,0.6024,0.6096,0.6062,0.6041,0.5919,0.6041,0.6041,0.6041,0.5919,0.5297,0.4928,0.4813,0.4193,0.3204,0.1847,0.1481,0.0494,-0.1359,-0.1606,-0.1977,-0.2471,-0.2595,-0.2718,-0.2717,-0.3088,-0.3334,1.4908,1.4944,1.4883,1.5378,1.5465,1.5137,1.3778,1.3267,1.2429,1.0417,0.8783,0.7751,0.7552,0.7852,0.7885,0.7253,0.9622,1.0789,0.8459,0.938,0.9816,0.8587,0.8587,0.8587,0.8587,0.8587,0.8587,0.8587,0.8587,0.8451,0.8182,0.8259,0.8119,0.7872,0.7872,0.7872,0.7872,0.7872,0.7994,0.8122,0.806,0.8094,0.8217,0.8217,0.8193,0.8182,0.8182,0.8315,0.8315,0.8318,0.8451,0.8451,0.8587,0.8587,0.8587,0.8587,0.8587,0.8587,0.8587,0.8587,0.8587,0.8451,0.8451,0.8451,0.8587,0.8318,0.8182,0.8454,0.7912,0.7488,0.7705,0.7169,0.6539,0.6539,0.6166,0.5916,0.5916,0.5916,0.5916,0.5916,0.5916,0.5919,0.6041,0.6081,0.6094,0.6138,0.6183,0.6207,0.6281,0.6114,0.6114,0.6241,0.6241,0.6114,0.599,0.5945,0.5822,0.5634,0.5511,0.4863,0.3585,0.2964,0.1605,-0.037,-0.0988,-0.1729,-0.2594,-0.2595,-0.2717,-0.2838,-0.3208,-0.3455,1.501,1.5077,1.5011,1.5104,1.5539,1.5445,1.3378,1.2613,1.1492,0.843,0.7055,0.6214,0.549,0.5588,0.5901,0.6354,0.7126,0.7757,0.7875,0.8132,0.8451,0.8587,0.8587,0.8587,0.8587,0.8587,0.8587,0.8587,0.8587,0.8587,0.8318,0.8259,0.8119,0.7872,0.7872,0.7872,0.7872,0.7994,0.8119,0.8125,0.814,0.8196,0.8196,0.833,0.8373,0.8318,0.8451,0.8587,0.8587,0.8587,0.8587,0.8587,0.8587,0.8587,0.8587,0.8587,0.8587,0.8587,0.8587,0.8451,0.8182,0.8451,0.8587,0.8587,0.8587,0.8318,0.8048,0.8069,0.7655,0.7294,0.6972,0.6712,0.6539,0.6166,0.5919,0.5916,0.5916,0.5916,0.5916,0.5919,0.6041,0.6041,0.6166,0.6163,0.6247,0.6307,0.6317,0.6297,0.637,0.6227,0.6227,0.6227,0.6227,0.6227,0.6227,0.5194,0.4274,0.3694,0.2644,0.1682,0.0863,0.0615,0.0369,-0.0,-0.0123,-0.0247,-0.0493,-0.074,-0.1356,-0.222,-0.2467,-0.3085,1.4592,1.479,1.5137,1.5352,1.5626,1.5122,1.2309,1.126,0.9972,0.6366,0.5287,0.4893,0.4617,0.4849,0.5334,0.5917,0.6585,0.7203,0.7671,0.7985,0.8315,0.8587,0.8587,0.8587,0.8587,0.8587,0.8587,0.8587,0.8587,0.8587,0.8451,0.8259,0.8119,0.8119,0.7994,0.7994,0.7997,0.8119,0.8248,0.8247,0.8341,0.8315,0.8451,0.8451,0.8451,0.8454,0.8587,0.8587,0.8587,0.8587,0.8587,0.8587,0.8587,0.8587,0.8587,0.8587,0.8451,0.8315,0.8315,0.8046,0.7777,0.7925,0.8056,0.8043,0.8043,0.7774,0.7507,0.7667,0.7107,0.6637,0.6586,0.6414,0.6166,0.5919,0.5916,0.5916,0.5919,0.5919,0.6041,0.6041,0.607,0.6196,0.6196,0.6339,0.6317,0.6453,0.6453,0.6453,0.6453,0.6453,0.6317,0.6317,0.6317,0.6183,0.5776,0.5109,0.4433,0.3749,0.3089,0.2655,0.2196,0.1806,0.142,0.0905,0.0517,0.0129,-0.0517,-0.0626,-0.1234,-0.2222,-0.185,-0.222,1.4122,1.4541,1.5065,1.5415,1.5299,1.4302,1.108,0.9797,0.8332,0.4827,0.3933,0.3923,0.4289,0.4568,0.4956,0.5529,0.6285,0.697,0.7324,0.7809,0.8315,0.8587,0.8451,0.8411,0.8577,0.8524,0.8451,0.8587,0.8587,0.8587,0.8451,0.8228,0.8228,0.8247,0.8096,0.8149,0.8151,0.8151,0.8214,0.8315,0.8451,0.8451,0.8587,0.8587,0.8587,0.8587,0.8587,0.8587,0.8587,0.8587,0.8451,0.8451,0.8451,0.8315,0.8315,0.8315,0.8179,0.791,0.7915,0.7779,0.7379,0.7397,0.739,0.751,0.751,0.7238,0.6954,0.7158,0.6651,0.6041,0.6414,0.6166,0.5916,0.5916,0.5916,0.5919,0.6041,0.598,0.6033,0.6158,0.6259,0.6183,0.6317,0.6317,0.6319,0.6453,0.6453,0.6453,0.6453,0.6453,0.6453,0.6317,0.6317,0.6048,0.5237,0.524,0.4836,0.4029,0.4038,0.3908,0.3774,0.3099,0.2425,0.175,0.0942,0.0135,-0.0538,-0.0644,-0.1133,-0.2014,-0.1117,-0.1233,1.4154,1.4483,1.4669,1.4455,1.4051,1.2889,1.0157,0.8698,0.7181,0.4607,0.3846,0.3818,0.4376,0.419,0.4341,0.5379,0.5417,0.5844,0.7021,0.7319,0.7638,0.8451,0.8451,0.8416,0.8611,0.8463,0.8451,0.8587,0.8587,0.8587,0.8451,0.8408,0.832,0.8258,0.8162,0.8117,0.8117,0.8117,0.8138,0.8182,0.8315,0.8451,0.8587,0.8587,0.8587,0.8587,0.8587,0.8587,0.8587,0.8315,0.8179,0.8046,0.7772,0.7636,0.7636,0.7636,0.7636,0.7507,0.7529,0.7397,0.6993,0.6996,0.7266,0.7534,0.74,0.713,0.6918,0.6695,0.6317,0.6041,0.5919,0.5919,0.5916,0.5916,0.5919,0.6041,0.6041,0.6046,0.6269,0.6269,0.6295,0.6317,0.6453,0.6453,0.6453,0.6453,0.6453,0.6453,0.6453,0.6453,0.6183,0.5508,0.5506,0.5506,0.5372,0.4845,0.4042,0.3367,0.3233,0.2964,0.2424,0.2289,0.2289,0.2155,0.1077,0.0404,0.0404,0.0402,-0.0134,-0.1067,-0.0127,-0.0617,1.304,1.3243,1.3399,1.3226,1.2622,1.134,0.9003,0.7891,0.6709,0.4457,0.3781,0.3716,0.4017,0.394,0.4047,0.48,0.5087,0.5555,0.6437,0.6885,0.7503,0.8046,0.8179,0.8133,0.8295,0.8304,0.8318,0.8587,0.8587,0.8587,0.8587,0.8451,0.8365,0.8439,0.822,0.8181,0.8287,0.8284,0.8284,0.829,0.8448,0.8587,0.8587,0.8587,0.8451,0.8315,0.8315,0.8179,0.791,0.7774,0.7781,0.766,0.7524,0.7524,0.7524,0.7524,0.7388,0.7254,0.7263,0.6996,0.6723,0.6723,0.6725,0.6859,0.6725,0.6568,0.6484,0.6332,0.6166,0.6041,0.5919,0.6041,0.6041,0.6041,0.6041,0.6102,0.6194,0.6219,0.6317,0.6453,0.6453,0.6453,0.6453,0.6453,0.6453,0.6453,0.6453,0.6317,0.5912,0.5778,0.5508,0.4832,0.5103,0.5106,0.4171,0.377,0.3369,0.2694,0.2559,0.2425,0.2155,0.2155,0.2155,0.2155,0.175,0.1481,0.148,0.148,0.0942,-0.0,0.0394,-0.0255,1.1909,1.2436,1.2812,1.2976,1.1898,1.0467,0.8753,0.7363,0.596,0.4226,0.3748,0.3649,0.3801,0.3781,0.3917,0.4362,0.4786,0.53,0.6081,0.6695,0.7228,0.7746,0.7883,0.787,0.8167,0.8304,0.8451,0.8587,0.8587,0.8587,0.8587,0.8454,0.8451,0.8587,0.8315,0.8223,0.8372,0.8244,0.8318,0.8343,0.8426,0.8451,0.8587,0.8451,0.8315,0.8046,0.7917,0.7784,0.7512,0.7379,0.7388,0.7402,0.7266,0.7266,0.7266,0.7266,0.6996,0.6859,0.6859,0.6723,0.6453,0.6587,0.6587,0.6453,0.6453,0.6333,0.6166,0.6166,0.6121,0.6076,0.6076,0.6204,0.6204,0.6204,0.6204,0.6275,0.6265,0.6317,0.6453,0.6453,0.6453,0.6453,0.6453,0.6453,0.6453,0.6453,0.6317,0.6048,0.5506,0.5242,0.4839,0.403,0.4434,0.4304,0.3233,0.2964,0.2694,0.2289,0.2155,0.2155,0.2155,0.2155,0.2155,0.2155,0.1885,0.175,0.1749,0.1749,0.1211,0.0135,0.0404,-0.0131,1.1323,1.2543,1.359,1.4114,1.2216,1.0201,0.9736,0.7195,0.4811,0.4085,0.3748,0.3618,0.379,0.3792,0.3909,0.423,0.4542,0.5098,0.6142,0.658,0.6988,0.7615,0.7754,0.7867,0.8044,0.8436,0.8587,0.8587,0.8587,0.8587,0.8587,0.8587,0.8587,0.8587,0.8315,0.8223,0.8247,0.7994,0.798,0.8038,0.8176,0.8315,0.8451,0.8179,0.8046,0.8046,0.7665,0.7538,0.7538,0.7132,0.6996,0.6996,0.6589,0.6453,0.6453,0.6453,0.6453,0.6453,0.6453,0.6453,0.6453,0.6589,0.6589,0.6589,0.6589,0.6462,0.6291,0.6414,0.6432,0.6313,0.6178,0.6311,0.6313,0.6178,0.6313,0.6449,0.6317,0.6453,0.6453,0.6453,0.6453,0.6453,0.6453,0.6453,0.6453,0.6453,0.5912,0.5372,0.5372,0.4711,0.4044,0.3234,0.3233,0.3233,0.3233,0.2559,0.2155,0.2155,0.2155,0.2155,0.2155,0.2155,0.2155,0.2155,0.1077,0.0538,0.0538,0.0538,-0.0,-0.1077,0.0135,-0.0522,0.8931,0.9292,0.9238,0.9288,0.8121,0.6845,0.6404,0.5358,0.439,0.3912,0.3689,0.3596,0.3632,0.3651,0.3846,0.4488,0.4663,0.5084,0.6157,0.6563,0.7047,0.757,0.7914,0.8153,0.828,0.8363,0.8451,0.8587,0.8587,0.8587,0.8587,0.8587,0.8587,0.8587,0.8315,0.8223,0.8247,0.8119,0.7945,0.7841,0.7969,0.7878,0.7774,0.7772,0.7512,0.739,0.7263,0.6996,0.6859,0.6723,0.6723,0.6589,0.6587,0.6453,0.6453,0.6589,0.6589,0.6589,0.6589,0.6589,0.6589,0.6723,0.6621,0.6677,0.6819,0.6599,0.6511,0.6511,0.6555,0.6453,0.6587,0.6589,0.6517,0.6479,0.6631,0.6589,0.6587,0.6587,0.6589,0.6453,0.6453,0.6453,0.6453,0.6587,0.6319,0.5778,0.5642,0.5106,0.4037,0.3771,0.3234,0.2559,0.2559,0.2559,0.2559,0.2289,0.2155,0.2155,0.2155,0.2155,0.2155,0.2155,0.2155,0.2155,0.1885,0.1616,0.1616,0.1616,0.0673,-0.1075,-0.0646,-0.1633,0.7238,0.7686,0.7762,0.7989,0.6961,0.5891,0.5637,0.4865,0.4083,0.3867,0.3721,0.3585,0.3585,0.3621,0.3857,0.4423,0.4584,0.498,0.5993,0.6424,0.6761,0.7446,0.7853,0.8204,0.8231,0.8315,0.8451,0.8587,0.8451,0.8451,0.8451,0.8182,0.8179,0.8179,0.8043,0.7961,0.8,0.7747,0.762,0.7375,0.7554,0.7525,0.7381,0.7379,0.7252,0.6996,0.6859,0.6723,0.0,0.6453,0.6453,0.6453,0.6453,0.6453,0.6587,0.6589,0.6677,0.6656,0.6656,0.6656,0.6656,0.6794,0.6807,0.6843,0.6843,0.6843,0.6696,0.6696,0.6685,0.6656,0.6656,0.6794,0.6713,0.6645,0.6675,0.6794,0.6656,0.6685,0.6589,0.6589,0.6589,0.6453,0.6183,0.6182,0.582,0.5107,0.485,0.4406,0.3377,0.2964,0.2694,0.2289,0.2155,0.2155,0.2155,0.2155,0.2155,0.2155,0.2155,0.2155,0.2155,0.2155,0.2155,0.2155,0.2155,0.2155,0.2155,0.1346,0.0269,-0.1075,-0.1816,-0.2647,0.0,0.7249,0.8179,0.903,0.7885,0.6601,0.6666,0.5216,0.0,0.3823,0.3716,0.3593,0.3618,0.3765,0.3967,0.4289,0.4444,0.4882,0.5791,0.6051,0.6463,0.7311,0.7774,0.8179,0.8179,0.8451,0.8587,0.8587,0.8315,0.8046,0.8046,0.7641,0.7358,0.7327,0.7595,0.7664,0.7505,0.7126,0.6879,0.6884,0.7034,0.7105,0.7132,0.6996,0.6996,0.6996,0.6589,0.6453,0.6453,0.6453,0.6453,0.6453,0.6453,0.6589,0.6591,0.6619,0.6702,0.6696,0.6696,0.6696,0.6696,0.6843,0.6988,0.699,0.699,0.699,0.6988,0.6841,0.6843,0.6843,0.6696,0.6843,0.6843,0.6696,0.6843,0.6843,0.6696,0.6727,0.6627,0.6627,0.6492,0.6213,0.5646,0.5391,0.5085,0.4329,0.3775,0.3284,0.3272,0.2574,0.2164,0.2156,0.2155,0.2155,0.2155,0.2155,0.2155,0.2155,0.2155,0.2155,0.2155,0.2155,0.2155,0.2155,0.2155,0.2155,0.2155,0.0135,-0.0942,-0.0942,-0.2814,-0.3381,0.4347,0.0,0.5113,0.5203,0.4885,0.4546,0.0,0.416,0.3762,0.3648,0.3602,0.367,0.3941,0.4015,0.4211,0.476,0.5068,0.5454,0.6102,0.6708,0.7225,0.7908,0.8043,0.8182,0.8587,0.8587,0.8451,0.8182,0.8043,0.7781,0.7529,0.7395,0.725,0.7188,0.6925,0.7003,0.7155,0.7028,0.678,0.6655,0.6756,0.6708,0.6453,0.6589,0.6589,0.6589,0.6587,0.6453,0.6453,0.6589,0.6589,0.6589,0.6589,0.6723,0.6625,0.6764,0.6773,0.6843,0.6843,0.6988,0.6988,0.6988,0.6988,0.6988,0.699,0.699,0.699,0.6988,0.6988,0.6988,0.6988,0.6988,0.6988,0.6988,0.6988,0.6988,0.6843,0.6342,0.5857,0.5857,0.5284,0.4932,0.4732,0.4733,0.4457,0.3782,0.3523,0.3192,0.2569,0.2291,0.2256,0.2164,0.2155,0.2155,0.2155,0.2155,0.2155,0.2155,0.2155,0.2155,0.2155,0.2155,0.2155,0.2155,0.2155,0.2155,0.2155,0.1616,0.0538,-0.094,-0.0643,-0.175,0.3659,0.3892,0.4115,0.4105,0.4061,0.4001,0.3936,0.3795,0.3716,0.3596,0.3585,0.3659,0.3903,0.4132,0.4477,0.508,0.5314,0.5598,0.6253,0.7174,0.775,0.79,0.8093,0.813,0.82,0.8179,0.8043,0.7774,0.7514,0.7306,0.7131,0.6859,0.6633,0.6546,0.6414,0.6414,0.6787,0.6539,0.6414,0.6289,0.6414,0.6362,0.6317,0.6453,0.6453,0.6587,0.6587,0.6589,0.6589,0.6589,0.6687,0.6698,0.6698,0.67,0.6862,0.6917,0.6988,0.6988,0.699,0.699,0.6962,0.694,0.6998,0.6843,0.699,0.6988,0.6988,0.699,0.699,0.699,0.699,0.699,0.699,0.699,0.699,0.6843,0.6549,0.611,0.5675,0.5244,0.4806,0.4329,0.4068,0.4006,0.3794,0.3063,0.299,0.2825,0.2324,0.2333,0.2287,0.2168,0.2155,0.2155,0.2155,0.2155,0.2155,0.2155,0.2155,0.2155,0.2155,0.2155,0.2155,0.2155,0.2155,0.2155,0.2155,0.1575,0.0777,-0.0259,-0.025,-0.0863,0.3651,0.3928,0.4205,0.4238,0.4181,0.4118,0.4118,0.3868,0.3637,0.3637,0.3653,0.3735,0.4019,0.4346,0.4833,0.5436,0.545,0.5646,0.6388,0.7282,0.7714,0.7493,0.7732,0.7898,0.7543,0.7507,0.7374,0.7372,0.7064,0.6763,0.6557,0.6166,0.6041,0.6041,0.5919,0.6041,0.6291,0.6041,0.5919,0.6041,0.61,0.6287,0.6317,0.6453,0.6587,0.6591,0.6648,0.6673,0.6673,0.6673,0.6715,0.6696,0.6696,0.6843,0.6843,0.6843,0.6988,0.699,0.699,0.699,0.6939,0.6913,0.6883,0.6833,0.6925,0.6945,0.6843,0.6988,0.699,0.699,0.699,0.699,0.699,0.699,0.6843,0.6696,0.5963,0.5673,0.5242,0.4669,0.4378,0.3939,0.3355,0.3209,0.3063,0.2333,0.2333,0.2333,0.2333,0.2333,0.2294,0.2193,0.2166,0.2155,0.2155,0.2155,0.2155,0.2155,0.2155,0.2155,0.2155,0.2155,0.2155,0.2155,0.2155,0.2155,0.2154,0.1144,0.0744,0.0626,-0.0125,-0.025,0.3952,0.4298,0.4477,0.4088,0.4053,0.4118,0.4118,0.3996,0.3882,0.3882,0.3963,0.4259,0.4988,0.5265,0.5494,0.5893,0.5721,0.5666,0.6145,0.6416,0.6751,0.7254,0.7234,0.733,0.7675,0.7534,0.7261,0.6989,0.6816,0.6478,0.6168,0.6041,0.5916,0.5916,0.5916,0.5916,0.5919,0.5916,0.5916,0.5921,0.6096,0.6265,0.6183,0.6453,0.6589,0.6606,0.6633,0.6618,0.6761,0.6763,0.6939,0.6843,0.6988,0.6988,0.699,0.699,0.699,0.699,0.699,0.6843,0.6833,0.6925,0.6799,0.6787,0.6767,0.6749,0.6843,0.6843,0.6988,0.699,0.699,0.699,0.699,0.699,0.6549,0.5963,0.5818,0.4805,0.3791,0.3647,0.3063,0.2625,0.2479,0.2479,0.2478,0.2333,0.2333,0.2333,0.2333,0.2187,0.218,0.2163,0.2215,0.2155,0.2155,0.2155,0.2155,0.2155,0.2155,0.2155,0.2155,0.2155,0.2155,0.2155,0.2155,0.2155,0.2154,0.1908,0.1394,0.0664,0.1329,0.0797,0.3607,0.3961,0.4319,0.4351,0.4683,0.4991,0.4991,0.4947,0.4814,0.4488,0.4567,0.4758,0.5041,0.5367,0.5641,0.6086,0.6301,0.6359,0.6439,0.6695,0.7046,0.7085,0.7097,0.713,0.6996,0.6859,0.664,0.6438,0.6389,0.6166,0.5919,0.5916,0.5916,0.5919,0.5919,0.6041,0.6166,0.6166,0.6041,0.5921,0.6212,0.6266,0.6319,0.6589,0.6698,0.6751,0.6773,0.6843,0.6843,0.6988,0.6988,0.6988,0.699,0.699,0.699,0.699,0.699,0.699,0.699,0.6988,0.6813,0.6904,0.6839,0.6707,0.6735,0.6862,0.6839,0.6839,0.6981,0.6988,0.699,0.699,0.6843,0.6404,0.611,0.5528,0.4806,0.3936,0.3355,0.2916,0.2625,0.2333,0.2333,0.2333,0.2333,0.2333,0.2333,0.2333,0.2333,0.2333,0.2308,0.2243,0.2187,0.2155,0.2155,0.2155,0.2155,0.2155,0.2155,0.2155,0.2155,0.2155,0.2155,0.2155,0.2155,0.2155,0.2155,0.2099,0.1838,0.1481,0.1885,0.1616,0.3405,0.3781,0.4172,0.4722,0.5125,0.5548,0.5801,0.5749,0.5551,0.52,0.521,0.5323,0.5323,0.5606,0.5935,0.6224,0.6449,0.6673,0.66,0.6911,0.7132,0.6859,0.6862,0.6859,0.6317,0.6243,0.6212,0.6062,0.6041,0.5919,0.5916,0.5919,0.6041,0.6041,0.6,0.6168,0.6296,0.6256,0.6212,0.6166,0.6289,0.6409,0.6578,0.6717,0.6869,0.6843,0.6988,0.6988,0.699,0.699,0.699,0.699,0.699,0.699,0.699,0.699,0.699,0.699,0.699,0.699,0.6945,0.6949,0.6855,0.6754,0.6807,0.6812,0.6743,0.6832,0.6776,0.6696,0.6988,0.6843,0.6549,0.5963,0.553,0.495,0.3791,0.3354,0.3063,0.2478,0.2333,0.2333,0.2333,0.2333,0.2333,0.2333,0.2333,0.2333,0.2333,0.2333,0.2287,0.2168,0.2155,0.2155,0.2155,0.2155,0.2155,0.2155,0.2155,0.2155,0.2155,0.2155,0.2155,0.2155,0.2155,0.2155,0.2155,0.2155,0.214,0.2113,0.2113,0.2113,0.3765,0.4134,0.4433,0.4819,0.4802,0.5071,0.6002,0.5798,0.551,0.5912,0.5905,0.5897,0.6532,0.6453,0.6312,0.6332,0.6096,0.5974,0.6266,0.6329,0.6319,0.6317,0.6317,0.6317,0.6183,0.6151,0.6068,0.6043,0.6041,0.6041,0.6041,0.6164,0.6166,0.6289,0.6241,0.6279,0.6548,0.6321,0.6303,0.6416,0.6539,0.6545,0.6659,0.6805,0.6819,0.6843,0.6988,0.699,0.699,0.699,0.699,0.699,0.699,0.699,0.699,0.699,0.699,0.699,0.699,0.6988,0.6839,0.6958,0.6949,0.6894,0.6723,0.6747,0.6933,0.6858,0.6385,0.5965,0.6841,0.6404,0.5818,0.5818,0.466,0.3646,0.3501,0.2916,0.2333,0.2333,0.2333,0.2333,0.2333,0.2333,0.2333,0.2333,0.2333,0.2333,0.2333,0.2187,0.2144,0.2168,0.2155,0.2155,0.2155,0.2155,0.2155,0.2155,0.2155,0.2155,0.2155,0.2155,0.2155,0.2155,0.2155,0.2155,0.2155,0.2155,0.2097,0.2114,0.2114,0.2114,0.329,0.3862,0.4465,0.4856,0.5131,0.5529,0.6216,0.65,0.6673,0.6554,0.6477,0.6328,0.6127,0.5962,0.5855,0.6107,0.5962,0.5886,0.6193,0.6408,0.6319,0.6317,0.6255,0.6248,0.6121,0.5998,0.6041,0.6041,0.6041,0.6014,0.6108,0.612,0.6251,0.6383,0.6461,0.6539,0.6728,0.6667,0.6709,0.6859,0.6723,0.6727,0.6696,0.6843,0.6988,0.6988,0.699,0.699,0.699,0.699,0.699,0.699,0.699,0.699,0.699,0.699,0.699,0.699,0.699,0.699,0.6988,0.6988,0.6988,0.6819,0.6827,0.6929,0.6815,0.6224,0.5963,0.5818,0.611,0.5672,0.4944,0.4515,0.3936,0.3354,0.2916,0.2479,0.2333,0.2333,0.2333,0.2333,0.2333,0.2333,0.2333,0.2333,0.2333,0.2333,0.2333,0.2268,0.2204,0.2159,0.2155,0.2155,0.2155,0.2155,0.2155,0.2155,0.2155,0.2155,0.2155,0.2155,0.2155,0.2155,0.2155,0.2155,0.2155,0.208,0.2147,0.21,0.21,0.2016,0.328,0.3859,0.4414,0.4747,0.5263,0.5818,0.6075,0.6616,0.7095,0.6885,0.68,0.6461,0.5723,0.5652,0.5688,0.5897,0.5854,0.5919,0.6253,0.6355,0.6327,0.617,0.6264,0.6166,0.6041,0.6041,0.6041,0.6041,0.6148,0.6194,0.6305,0.6317,0.6453,0.6589,0.6518,0.6727,0.6904,0.6868,0.6988,0.699,0.6843,0.6843,0.6843,0.6988,0.699,0.699,0.699,0.699,0.699,0.699,0.699,0.699,0.699,0.699,0.699,0.699,0.699,0.699,0.6988,0.699,0.699,0.6988,0.6988,0.6988,0.6988,0.6696,0.6404,0.5818,0.5385,0.5094,0.5094,0.4657,0.4221,0.3646,0.3354,0.2917,0.2478,0.2333,0.2333,0.2333,0.2333,0.2333,0.2333,0.2333,0.2333,0.2333,0.2333,0.2333,0.2333,0.2262,0.2196,0.2159,0.2155,0.2155,0.2155,0.2155,0.2155,0.2155,0.2155,0.2155,0.2155,0.2155,0.2155,0.2155,0.2155,0.2155,0.2154,0.2073,0.2139,0.21,0.1977,0.202,0.3787,0.4065,0.4384,0.4522,0.5119,0.5683,0.573,0.5994,0.6377,0.6857,0.6739,0.6401,0.5527,0.5714,0.598,0.5775,0.5803,0.587,0.6296,0.6271,0.6179,0.6007,0.6135,0.6166,0.6041,0.6043,0.6048,0.6296,0.6255,0.6321,0.6589,0.6591,0.673,0.6866,0.6803,0.6843,0.699,0.6988,0.6988,0.699,0.699,0.699,0.699,0.699,0.699,0.699,0.699,0.699,0.699,0.699,0.699,0.699,0.699,0.699,0.699,0.699,0.699,0.699,0.6988,0.6986,0.6986,0.6988,0.6988,0.699,0.699,0.6404,0.5818,0.5818,0.4661,0.3501,0.3501,0.3501,0.3501,0.3501,0.2916,0.2333,0.2333,0.2333,0.2333,0.2333,0.2333,0.2333,0.2333,0.2333,0.2333,0.2333,0.2333,0.2333,0.2333,0.2333,0.2287,0.2168,0.2155,0.2155,0.2155,0.2155,0.2155,0.2155,0.2155,0.2155,0.2155,0.2155,0.2155,0.2155,0.2155,0.2155,0.2155,0.2153,0.2092,0.1977,0.1977,0.1977,0.3445,0.415,0.4813,0.4676,0.5272,0.5911,0.5768,0.6225,0.6728,0.6389,0.6177,0.5892,0.5504,0.5535,0.5712,0.587,0.5816,0.588,0.6085,0.611,0.6177,0.6007,0.6135,0.6166,0.6166,0.6147,0.6163,0.6427,0.635,0.6438,0.6602,0.6553,0.6687,0.6831,0.6933,0.6843,0.699,0.699,0.699,0.699,0.699,0.699,0.699,0.699,0.699,0.699,0.699,0.699,0.699,0.699,0.699,0.699,0.699,0.699,0.699,0.699,0.699,0.699,0.6988,0.6967,0.6934,0.6907,0.6549,0.611,0.611,0.5672,0.4944,0.437,0.379,0.3355,0.277,0.2625,0.2625,0.2625,0.2479,0.2333,0.2333,0.2333,0.2333,0.2333,0.2333,0.2333,0.2333,0.2333,0.2333,0.2333,0.2333,0.2333,0.2333,0.2187,0.2287,0.2168,0.2155,0.2155,0.2155,0.2155,0.2155,0.2155,0.2155,0.2155,0.2155,0.2155,0.2155,0.2155,0.2155,0.2155,0.2154,0.2071,0.2011,0.1977,0.1977,0.1977,0.3823,0.445,0.5085,0.5124,0.5557,0.5974,0.5826,0.6127,0.633,0.6004,0.5815,0.5688,0.5508,0.5554,0.5652,0.592,0.5914,0.5872,0.5979,0.6166,0.6123,0.6084,0.6175,0.6224,0.6373,0.6319,0.633,0.66,0.6513,0.6541,0.6736,0.6651,0.6696,0.6988,0.6988,0.6988,0.699,0.699,0.699,0.699,0.699,0.699,0.699,0.699,0.699,0.699,0.699,0.699,0.699,0.699,0.699,0.699,0.699,0.699,0.699,0.699,0.699,0.699,0.6988,0.6896,0.6922,0.6585,0.611,0.5673,0.5388,0.4805,0.4075,0.3646,0.3209,0.2916,0.2478,0.2333,0.2333,0.2333,0.2333,0.2333,0.2333,0.2333,0.2333,0.2333,0.2333,0.2333,0.2333,0.2333,0.2333,0.2333,0.2333,0.2333,0.2333,0.2187,0.2144,0.2168,0.2155,0.2155,0.2155,0.2155,0.2155,0.2155,0.2155,0.2155,0.2155,0.2155,0.2155,0.2155,0.2155,0.2155,0.2019,0.2035,0.21,0.1977,0.1977,0.1977,0.4428,0.4904,0.5317,0.5689,0.5708,0.5784,0.5976,0.5805,0.5584,0.5567,0.5556,0.5571,0.5525,0.5766,0.5893,0.5939,0.5943,0.5916,0.6041,0.6164,0.6179,0.6213,0.6247,0.6387,0.656,0.6465,0.6534,0.666,0.6637,0.676,0.6998,0.6794,0.6843,0.699,0.699,0.699,0.699,0.699,0.699,0.699,0.699,0.699,0.699,0.699,0.699,0.699,0.699,0.699,0.699,0.699,0.699,0.699,0.699,0.699,0.699,0.699,0.699,0.699,0.6988,0.6919,0.6696,0.6017,0.5673,0.553,0.4813,0.4085,0.3355,0.3355,0.2916,0.2333,0.2333,0.2333,0.2333,0.2333,0.2333,0.2333,0.2333,0.2333,0.2333,0.2333,0.2333,0.2333,0.2333,0.2333,0.2333,0.2333,0.2333,0.2333,0.2333,0.2178,0.2132,0.2166,0.2155,0.2155,0.2155,0.2155,0.2155,0.2155,0.2155,0.2155,0.2155,0.2155,0.2155,0.2155,0.2144,0.2005,0.2005,0.203,0.1977,0.1977,0.1977,0.1977,0.3795,0.4416,0.5081,0.5108,0.5285,0.5524,0.5565,0.5514,0.552,0.5595,0.5567,0.5541,0.5613,0.5673,0.5796,0.5891,0.5867,0.5916,0.5916,0.6041,0.615,0.6171,0.6447,0.6539,0.661,0.666,0.6653,0.6715,0.6587,0.6609,0.674,0.6794,0.6843,0.699,0.699,0.699,0.699,0.699,0.699,0.699,0.699,0.699,0.699,0.699,0.699,0.699,0.699,0.699,0.699,0.699,0.699,0.699,0.699,0.699,0.699,0.699,0.699,0.699,0.6988,0.6503,0.6021,0.5796,0.495,0.3936,0.3792,0.3209,0.2625,0.2625,0.2478,0.2333,0.2333,0.2333,0.2333,0.2333,0.2333,0.2333,0.2333,0.2333,0.2333,0.2333,0.2333,0.2333,0.2333,0.2333,0.2333,0.2333,0.2333,0.2333,0.2333,0.2251,0.2183,0.2157,0.2155,0.2155,0.2155,0.2155,0.2155,0.2155,0.2155,0.2155,0.2155,0.2155,0.2155,0.2155,0.2191,0.2141,0.2141,0.1989,0.1977,0.1977,0.1977,0.1977,0.383,0.4408,0.4879,0.5092,0.5275,0.5382,0.5382,0.5416,0.555,0.5624,0.5593,0.5633,0.5743,0.5754,0.582,0.5888,0.5916,0.5919,0.5919,0.6166,0.6373,0.6367,0.6587,0.6626,0.6729,0.6711,0.6717,0.6733,0.6733,0.6727,0.6852,0.6888,0.6988,0.699,0.699,0.699,0.699,0.699,0.699,0.699,0.699,0.699,0.699,0.699,0.699,0.699,0.699,0.699,0.699,0.699,0.699,0.699,0.699,0.699,0.699,0.699,0.6696,0.6404,0.6402,0.5818,0.5235,0.4803,0.408,0.3501,0.3063,0.2625,0.2333,0.2333,0.2333,0.2333,0.2333,0.2333,0.2333,0.2333,0.2333,0.2333,0.2333,0.2333,0.2333,0.2333,0.2333,0.2333,0.2333,0.2333,0.2333,0.2333,0.2333,0.2333,0.2333,0.2228,0.2155,0.2155,0.2155,0.2155,0.2155,0.2155,0.2155,0.2155,0.2155,0.2155,0.2155,0.2155,0.2155,0.2155,0.2093,0.2034,0.21,0.1977,0.1977,0.1977,0.1977,0.1977,0.3901,0.4369,0.4798,0.5265,0.5382,0.5382,0.5382,0.551,0.555,0.5629,0.5727,0.5754,0.5845,0.5837,0.5916,0.5916,0.5919,0.5941,0.6002,0.6262,0.6517,0.6622,0.6696,0.6843,0.6843,0.6843,0.6866,0.6845,0.6821,0.6955,0.6974,0.6988,0.6988,0.699,0.699,0.699,0.699,0.699,0.699,0.699,0.699,0.699,0.699,0.699,0.699,0.699,0.699,0.6843,0.6696,0.6843,0.6843,0.6696,0.6843,0.6843,0.6843,0.6843,0.6257,0.5672,0.5675,0.5091,0.4364,0.3645,0.3355,0.3209,0.2479,0.2333,0.2333,0.2333,0.2333,0.2333,0.2333,0.2333,0.2333,0.2333,0.2333,0.2333,0.2333,0.2333,0.2333,0.2333,0.2333,0.2333,0.2333,0.2333,0.2333,0.2333,0.2333,0.2333,0.2333,0.2247,0.2177,0.2157,0.2155,0.2155,0.2155,0.2155,0.2155,0.2155,0.2136,0.2124,0.2124,0.2124,0.2133,0.2019,0.2134,0.2076,0.1977,0.1977,0.1977,0.1977,0.1977,0.1853,0.3087,0.3846,0.4718,0.5249,0.5382,0.5382,0.5382,0.5461,0.5627,0.565,0.5758,0.5862,0.5916,0.5886,0.5916,0.5916,0.5916,0.59,0.594,0.6247,0.6533,0.6649,0.6843,0.6988,0.6843,0.6843,0.6677,0.6775,0.6773,0.6793,0.6841,0.6988,0.699,0.699,0.699,0.699,0.699,0.699,0.699,0.699,0.699,0.699,0.699,0.699,0.699,0.699,0.699,0.6257,0.5088,0.6404,0.6257,0.5088,0.6549,0.6549,0.5963,0.5963,0.5525,0.4798,0.481,0.4375,0.3645,0.35,0.3063,0.2478,0.2333,0.2333,0.2333,0.2333,0.2333,0.2333,0.2333,0.2333,0.2333,0.2333,0.2333,0.2333,0.2333,0.2333,0.2333,0.2333,0.2333,0.2333,0.2333,0.2333,0.2333,0.2333,0.2333,0.2333,0.2187,0.2174,0.2269,0.2166,0.2155,0.2155,0.2155,0.2155,0.2155,0.2155,0.2058,0.2126,0.2126,0.2126,0.2049,0.2018,0.2053,0.2117,0.21,0.1977,0.1977,0.1977,0.21,0.1235,0.3301,0.3977,0.4689,0.5181,0.5343,0.5382,0.5382,0.5422,0.556,0.5618,0.5658,0.585,0.5888,0.5916,0.5916,0.5916,0.5919,0.5972,0.6002,0.6327,0.6449,0.6509,0.6696,0.6843,0.6843,0.6665,0.6688,0.6688,0.6731,0.6843,0.6843,0.6988,0.699,0.699,0.699,0.699,0.699,0.699,0.6841,0.6402,0.6841,0.6549,0.5672,0.611,0.6549,0.699,0.699,0.611,0.4796,0.6413,0.5827,0.4213,0.5672,0.5818,0.5235,0.5244,0.4662,0.4078,0.4084,0.3501,0.277,0.277,0.2625,0.2333,0.2333,0.2333,0.2333,0.2333,0.2333,0.2333,0.2333,0.2333,0.2333,0.2333,0.2333,0.2333,0.2333,0.2333,0.2333,0.2333,0.2333,0.2333,0.2333,0.2333,0.2333,0.2333,0.2333,0.2187,0.2187,0.2132,0.2213,0.216,0.2155,0.2155,0.2155,0.2093,0.2054,0.2054,0.2005,0.21,0.21,0.21,0.2033,0.2017,0.2103,0.2044,0.21,0.21,0.2011,0.1945,0.2007,0.1132,0.3363,0.3871,0.4332,0.4906,0.5102,0.5302,0.5347,0.5493,0.5495,0.5607,0.5667,0.5794,0.5916,0.5916,0.5916,0.5916,0.5919,0.6041,0.6041,0.6277,0.6451,0.6524,0.6565,0.6709,0.6709,0.6613,0.6723,0.6723,0.6702,0.6892,0.6837,0.6988,0.6988,0.6988,0.699,0.699,0.699,0.6843,0.6404,0.5818,0.6261,0.5822,0.465,0.5238,0.5825,0.641,0.6259,0.538,0.4215,0.5252,0.4517,0.2904,0.4509,0.4655,0.3927,0.4228,0.3939,0.3209,0.3209,0.277,0.2333,0.2333,0.2333,0.2333,0.2333,0.2333,0.2333,0.2333,0.2333,0.2333,0.2333,0.2333,0.2333,0.2333,0.2333,0.2333,0.2333,0.2333,0.2333,0.2333,0.2333,0.2333,0.2333,0.2333,0.2322,0.2292,0.2288,0.2288,0.2144,0.221,0.2155,0.2155,0.2155,0.2155,0.202,0.2046,0.21,0.1977,0.1977,0.1977,0.1977,0.21,0.216,0.2152,0.2155,0.211,0.2022,0.2022,0.2067,0.2017,0.2032,0.1391,0.2878,0.3081,0.3455,0.4472,0.471,0.4871,0.5251,0.5493,0.5495,0.5607,0.5667,0.5794,0.5916,0.5916,0.5916,0.5916,0.5916,0.5916,0.6041,0.6183,0.6334,0.6439,0.6619,0.6619,0.6619,0.66,0.6589,0.6589,0.6606,0.6631,0.6679,0.6843,0.6843,0.6843,0.6988,0.699,0.699,0.6257,0.5818,0.5818,0.5103,0.4809,0.4651,0.481,0.4816,0.4815,0.4072,0.3194,0.2468,0.2039,0.1455,0.0871,0.2475,0.2624,0.204,0.3209,0.3063,0.2333,0.2333,0.2333,0.2333,0.2333,0.2333,0.2333,0.2333,0.2333,0.2333,0.2333,0.2333,0.2333,0.2333,0.2333,0.2333,0.2333,0.2333,0.2333,0.2333,0.2333,0.2333,0.2333,0.2333,0.2333,0.2333,0.2333,0.2294,0.2317,0.2299,0.2299,0.2164,0.2159,0.2155,0.2155,0.2155,0.202,0.202,0.2046,0.1977,0.1977,0.1977,0.1977,0.1977,0.21,0.216,0.2152,0.2155,0.2151,0.2145,0.2145,0.2014,0.2017,0.2159,0.2104,0.2646,0.2969,0.323,0.3918,0.4363,0.4578,0.4884,0.5154,0.5382,0.5495,0.5667,0.5669,0.5916,0.5916,0.5916,0.5916,0.5916,0.5916,0.5919,0.6164,0.6304,0.6275,0.6453,0.6589,0.6587,0.6587,0.6587,0.6587,0.6589,0.6646,0.6639,0.6785,0.6892,0.6837,0.6988,0.6696,0.6257,0.5525,0.4801,0.4371,0.4523,0.4229,0.3203,0.3646,0.3647,0.3063,0.1601,0.1455,0.2329,0.3208,0.2184,-0.0,0.233,0.2331,0.1166,0.2333,0.2479,0.2333,0.2333,0.2333,0.2333,0.2333,0.2333,0.2333,0.2333,0.2333,0.2333,0.2333,0.2333,0.2333,0.2333,0.2333,0.2333,0.2333,0.2333,0.2333,0.2333,0.2333,0.2333,0.2333,0.2333,0.2333,0.2333,0.2333,0.2318,0.2275,0.2204,0.2155,0.2155,0.2088,0.2168,0.2041,0.2041,0.204,0.204,0.2001,0.1977,0.1977,0.1977,0.1977,0.21,0.205,0.2111,0.2154,0.2155,0.2155,0.2155,0.2155,0.2155,0.2017,0.2159,0.1359,0.2421,0.2685,0.2992,0.355,0.3808,0.4122,0.4556,0.487,0.5124,0.5357,0.5548,0.5669,0.5794,0.5916,0.5916,0.5916,0.5916,0.5916,0.5916,0.6041,0.6179,0.6142,0.6319,0.6453,0.6453,0.6453,0.6453,0.6453,0.6587,0.6589,0.6589,0.6723,0.6896,0.6831,0.6696,0.6406,0.5827,0.4803,0.4078,0.3501,0.3794,0.3354,0.2333,0.2916,0.2625,0.1603,0.0291,0.0583,0.1749,0.1749,0.0583,-0.1165,0.0582,0.0582,-0.0437,0.0729,0.1312,0.1749,0.1749,0.2041,0.2333,0.2333,0.2333,0.2333,0.2333,0.2333,0.2333,0.2333,0.2333,0.2333,0.2333,0.2333,0.2333,0.2333,0.2333,0.2333,0.2333,0.2333,0.2333,0.2333,0.2333,0.2333,0.2333,0.2333,0.2187,0.2187,0.2197,0.2095,0.2095,0.2026,0.21,0.21,0.21,0.21,0.1977,0.1977,0.1977,0.1977,0.2014,0.2018,0.2102,0.2091,0.2155,0.2155,0.2155,0.2155,0.2155,0.2155,0.2155,0.2153,0.2074,0.0509,0.0,0.0,0.0,0.3262,0.3324,0.3471,0.4551,0.4704,0.4834,0.5306,0.554,0.5657,0.5792,0.5794,0.5916,0.5916,0.5916,0.5916,0.5916,0.6041,0.6179,0.6142,0.6319,0.6453,0.6453,0.6453,0.6453,0.6453,0.6453,0.6453,0.6453,0.6589,0.6756,0.6831,0.611,0.5827,0.5698,0.4232,0.3501,0.3501,0.2625,0.2333,0.2333,0.2333,0.1749,0.0583,0.0583,0.0583,0.0291,-0.277,-0.3647,-0.2916,-0.2768,-0.2768,-0.277,-0.1458,-0.0291,0.0583,0.0583,0.1312,0.2333,0.2333,0.2333,0.2333,0.2333,0.2333,0.2333,0.2333,0.2333,0.2333,0.2333,0.2333,0.2333,0.2333,0.2333,0.2333,0.2333,0.2333,0.2333,0.2333,0.2333,0.2333,0.2333,0.2187,0.2184,0.2178,0.2125,0.21,0.1977,0.1977,0.1977,0.1977,0.1977,0.1977,0.1977,0.1977,0.1977,0.1977,0.1955,0.1966,0.2105,0.2091,0.2155,0.2155,0.2155,0.2155,0.2155,0.2155,0.2155,0.2155,0.2155,-0.0269,0.2213,0.0,0.0,0.0,0.0,0.0,0.352,0.3746,0.4111,0.486,0.5002,0.5139,0.5746,0.5794,0.5794,0.5916,0.5916,0.5916,0.5916,0.6041,0.6051,0.6007,0.6183,0.6317,0.6317,0.6453,0.6453,0.6453,0.6453,0.6453,0.6453,0.6589,0.6619,0.6686,0.611,0.5388,0.4818,0.3939,0.3209,0.2625,0.2478,0.2333,0.2333,0.2333,0.2187,0.1749,-0.0,-0.0728,-0.0728,-0.1602,-0.233,-0.2767,-0.1019,-0.0873,-0.1456,0.0582,0.1601,0.1893,0.1894,0.2041,0.2333,0.2333,0.2333,0.2333,0.2333,0.2333,0.2333,0.2333,0.2333,0.2333,0.2333,0.2333,0.2333,0.2333,0.2333,0.2333,0.2333,0.2333,0.2333,0.2333,0.2333,0.2333,0.2333,0.2187,0.2132,0.2101,0.2145,0.21,0.1977,0.1977,0.1977,0.1977,0.1977,0.1977,0.1977,0.1977,0.1977,0.1977,0.2007,0.2011,0.2102,0.2091,0.2155,0.2155,0.2155,0.2155,0.2155,0.2155,0.2155,0.2155,-0.0538,-0.2694,0.2305,0.2389,0.2495,0.2432,0.0,0.0,0.3263,0.3559,0.3879,0.4734,0.4952,0.5102,0.5536,0.5573,0.5669,0.5794,0.5794,0.5794,0.5916,0.5919,0.5996,0.6076,0.6229,0.6288,0.6437,0.6453,0.6453,0.6453,0.6453,0.6319,0.6048,0.6048,0.6,0.5768,0.5066,0.4506,0.4089,0.3246,0.2712,0.2187,0.2187,0.2333,0.2333,0.2333,0.1749,0.0729,-0.0583,-0.1748,-0.2621,-0.2621,-0.3058,-0.3496,-0.1601,-0.131,-0.1748,0.0146,0.0874,0.0874,0.1457,0.1603,0.1603,0.2187,0.2333,0.2333,0.2333,0.2333,0.2333,0.2333,0.2333,0.2333,0.2333,0.2333,0.2333,0.2333,0.2333,0.2333,0.2333,0.2333,0.2333,0.2333,0.2333,0.2333,0.2333,0.2292,0.2194,0.213,0.21,0.21,0.1977,0.1977,0.1977,0.1977,0.1977,0.1977,0.1977,0.1977,0.1977,0.1977,0.1977,0.1999,0.2049,0.2118,0.2155,0.2155,0.2155,0.202,0.175,0.202,0.2155,0.202,-0.309,-0.5647,0.2463,0.2501,0.2559,0.239,0.2353,0.0,0.3215,0.3452,0.3766,0.4613,0.4858,0.4918,0.5105,0.523,0.5311,0.5433,0.5496,0.5669,0.5794,0.5916,0.6041,0.6166,0.6202,0.6358,0.6423,0.6453,0.6453,0.6319,0.6317,0.603,0.5323,0.5222,0.497,0.443,0.3757,0.3488,0.3354,0.269,0.2346,0.2168,0.2168,0.2168,0.2313,0.2326,0.102,-0.102,-0.1166,-0.2331,-0.4371,-0.4518,-0.4518,-0.4518,-0.3349,-0.2914,-0.277,-0.1603,-0.1166,-0.0874,0.0291,0.0583,0.0729,0.1895,0.2187,0.2187,0.2333,0.2333,0.2333,0.2333,0.2333,0.2333,0.2333,0.2333,0.2333,0.2333,0.2333,0.2333,0.2333,0.2333,0.2333,0.2333,0.2333,0.2333,0.2333,0.2234,0.2114,0.2119,0.1977,0.1977,0.1977,0.1977,0.1977,0.1977,0.1977,0.1977,0.1977,0.1977,0.1977,0.1977,0.1977,0.2024,0.2131,0.2148,0.2155,0.2155,0.2155,0.1885,0.1077,0.1885,0.2155,0.175,-0.4692,-0.8048,0.2709,0.2504,0.2338,0.2275,0.2048,0.0,0.2035,0.2039,0.2234,0.2888,0.2841,0.2969,0.3532,0.3847,0.4095,0.4201,0.4725,0.5297,0.5546,0.5669,0.5669,0.5916,0.5913,0.6109,0.6311,0.6453,0.6317,0.5642,0.5101,0.4605,0.4521,0.4464,0.4445,0.4311,0.4175,0.3905,0.323,0.3098,0.2844,0.2189,0.2189,0.2189,0.2193,0.2289,0.1458,0.0146,-0.0874,-0.1455,-0.1893,-0.2912,-0.3788,-0.4518,-0.3349,-0.2914,-0.277,-0.1603,-0.0583,0.0291,0.0582,0.0583,0.0729,0.1895,0.1749,0.1166,0.2041,0.2333,0.2333,0.2333,0.2333,0.2333,0.2333,0.2333,0.2333,0.2333,0.2333,0.2333,0.2333,0.2333,0.2333,0.2333,0.2333,0.2333,0.2187,0.2234,0.2114,0.1994,0.1977,0.1977,0.1977,0.1977,0.1977,0.1977,0.1977,0.1977,0.1977,0.1977,0.1977,0.1977,0.1977,0.1987,0.2136,0.2104,0.2155,0.2155,0.2155,0.1885,0.1077,0.1885,0.1616,0.0404,-0.1075,-0.4159,0.2395,0.2177,0.2038,0.1862,0.1793,0.0,0.0,0.1889,0.2039,0.2623,0.2581,0.263,0.3018,0.3192,0.3295,0.345,0.39,0.4234,0.4367,0.5148,0.5717,0.5828,0.5888,0.6048,0.6317,0.6319,0.6185,0.5384,0.4708,0.4118,0.3743,0.3713,0.3592,0.3233,0.3187,0.2964,0.2694,0.2694,0.2559,0.2155,0.2155,0.2155,0.2157,0.2217,0.1542,0.0421,-0.0144,-0.1019,-0.2038,-0.2622,-0.3645,-0.4521,-0.2038,-0.1165,-0.1019,0.0146,0.0583,0.0728,0.1311,0.102,0.0729,0.1894,0.1894,0.1603,0.2187,0.2333,0.2333,0.2333,0.2333,0.2333,0.2333,0.2333,0.2333,0.2333,0.2333,0.2333,0.2333,0.2333,0.2187,0.2187,0.2284,0.2244,0.2244,0.2145,0.2173,0.211,0.1977,0.1977,0.1977,0.1977,0.1977,0.1977,0.1977,0.2001,0.2061,0.2011,0.1977,0.1977,0.1977,0.21,0.21,0.2091,0.2155,0.2155,0.2155,0.202,0.1616,0.1346,-0.0808,-0.4315,-0.2828,-0.4442,0.2038,0.1796,0.173,0.1529,0.1541,0.1635,0.0,0.0,0.0,0.2502,0.2467,0.2477,0.2559,0.2555,0.2565,0.2738,0.2974,0.3092,0.2932,0.4285,0.5348,0.5413,0.545,0.5684,0.5952,0.5874,0.5649,0.526,0.4315,0.3503,0.3099,0.2964,0.2638,0.214,0.2082,0.2121,0.2121,0.2121,0.2132,0.2155,0.2155,0.2155,0.2155,0.2155,0.1616,0.0405,0.0285,-0.0728,-0.233,-0.2769,-0.3062,-0.3208,-0.1165,-0.0437,-0.0291,0.0582,0.0582,0.0146,0.1166,0.102,0.0437,0.1893,0.2331,0.2333,0.2333,0.2333,0.2333,0.2333,0.2333,0.2333,0.2333,0.2333,0.2333,0.2333,0.2333,0.2326,0.2303,0.2298,0.2155,0.2155,0.2221,0.2155,0.2155,0.2205,0.2136,0.2136,0.2115,0.1977,0.1977,0.1996,0.2002,0.1979,0.1977,0.2016,0.198,0.2032,0.1986,0.2009,0.2113,0.2111,0.2136,0.2104,0.2155,0.2155,0.2155,0.2155,0.2155,0.0673,-0.2964,-0.8534,-0.6205,-0.6337,0.2144,0.1868,0.1658,0.1515,0.1348,0.1241,0.1042,0.0,0.1059,0.1066,0.0,0.1031,0.1139,0.0,0.0,0.1487,0.2079,0.2479,0.2449,0.3069,0.3499,0.3588,0.3804,0.4226,0.4976,0.4561,0.4164,0.4313,0.2964,0.2155,0.2289,0.2289,0.2148,0.2135,0.2045,0.2122,0.2122,0.2122,0.2178,0.2155,0.2155,0.2155,0.2155,0.2155,0.1481,0.0405,-0.057,-0.0583,-0.0,-0.2039,-0.1164,0.1165,-0.2623,-0.4085,-0.4085,-0.3939,-0.3354,-0.2333,-0.1166,-0.0874,-0.0583,0.1603,0.2333,0.2333,0.2333,0.2333,0.2333,0.2333,0.2333,0.2333,0.2333,0.2333,0.2333,0.2333,0.2187,0.216,0.2198,0.2175,0.2175,0.2175,0.2164,0.2155,0.2155,0.2144,0.2134,0.2134,0.2044,0.21,0.21,0.2069,0.2094,0.2112,0.21,0.2106,0.212,0.2108,0.2148,0.2127,0.2035,0.215,0.213,0.2147,0.2155,0.2155,0.2155,0.2155,0.2155,0.0673,-0.2964,-0.8534,-0.821,-0.8189,0.1988,0.1918,0.1916,0.177,0.1748,0.1597,0.1093,0.0954,0.0883,0.0885,0.0,0.0,0.0,0.0,0.0,0.0,0.1341,0.1557,0.1452,0.1602,0.2019,0.2755,0.3226,0.3782,0.4702,0.3649,0.3206,0.3992,0.2517,0.175,0.202,0.2155,0.2155,0.2155,0.2039,0.21,0.21,0.2046,0.2105,0.2155,0.2155,0.2155,0.2155,0.2155,0.1885,0.1348,0.0276,-0.0279,-0.0558,-0.1439,-0.1311,-0.0873,-0.2186,-0.1894,-0.0728,-0.1311,-0.0874,0.0146,0.0728,0.0874,0.102,0.2041,0.2333,0.2333,0.2333,0.2333,0.2333,0.2333,0.2333,0.2333,0.2333,0.2333,0.2171,0.2246,0.223,0.2216,0.2166,0.2155,0.2155,0.2155,0.2155,0.2155,0.2155,0.2155,0.2155,0.2155,0.2112,0.208,0.208,0.2123,0.2136,0.2085,0.208,0.208,0.208,0.208,0.2101,0.2151,0.2108,0.2102,0.2153,0.2155,0.2254,0.2181,0.2252,0.2155,0.2155,-0.2694,-0.5398,-0.6076,-0.766,-0.8318,0.226,0.2177,0.2175,0.1994,0.1895,0.1685,0.1234,0.101,0.0898,0.0898,0.0898,0.0,0.0,0.0,0.0805,0.0831,0.0,0.0937,0.0836,0.0718,0.0941,0.1823,0.239,0.2963,0.3619,0.2612,0.2278,0.3277,0.2022,0.1409,0.2015,0.2155,0.2155,0.2155,0.2071,0.2152,0.2152,0.2111,0.2155,0.2155,0.2155,0.2155,0.2155,0.2155,0.2155,0.2155,0.1077,0.0135,-0.0674,-0.0982,-0.1426,-0.1853,-0.1426,0.0143,0.2142,0.0579,0.0582,0.1456,0.1748,0.204,0.2333,0.2333,0.2333,0.2333,0.2333,0.2333,0.2333,0.2333,0.2333,0.2325,0.2292,0.2283,0.2262,0.2175,0.2155,0.2155,0.2155,0.2155,0.2155,0.2155,0.2155,0.2155,0.2155,0.2155,0.2155,0.2155,0.2155,0.2155,0.2155,0.2155,0.2155,0.2155,0.2155,0.2155,0.2155,0.2155,0.2155,0.2155,0.2155,0.2155,0.2155,0.2256,0.2211,0.2153,0.1819,0.0789,-0.0789,-0.5897,-0.7432,-0.5518,-0.7383,-0.8249,0.3072,0.271,0.2391,0.2252,0.1667,0.1178,0.1403,0.1234,0.0954,0.0898,0.0954,0.101,0.101,0.0954,0.0912,0.0877,0.09,0.0,0.0,0.078,0.0637,0.0229,0.0575,0.0954,0.1086,0.0972,0.1216,0.2006,0.1372,0.1228,0.2003,0.202,0.202,0.2155,0.2151,0.2149,0.2149,0.2153,0.2155,0.2155,0.2155,0.2155,0.2155,0.2155,0.2155,0.2155,0.0942,0.0538,0.0403,-0.0673,-0.0539,0.0405,-0.081,0.0135,0.1902,-0.0286,-0.1166,-0.0874,0.0291,0.1312,0.2333,0.2333,0.2333,0.2333,0.2333,0.2333,0.2333,0.2187,0.2187,0.2162,0.219,0.216,0.2159,0.2156,0.2155,0.2155,0.2155,0.2155,0.2155,0.2155,0.2155,0.2155,0.2155,0.2155,0.2155,0.2155,0.2155,0.2155,0.2155,0.2155,0.2155,0.2155,0.2155,0.2155,0.2155,0.2155,0.2155,0.2155,0.2155,0.2155,0.2155,0.2171,0.2162,0.2146,0.0764,-0.2726,-0.8231,-0.8044,-0.8097,-0.8318,-0.8318,-0.8337,0.3828,0.3831,0.3781,0.3296,0.2842,0.2363,0.1718,0.129,0.1002,0.0896,0.1005,0.1079,0.1016,0.0952,0.0877,0.0902,0.0874,0.081,0.0,0.0299,-0.0201,-0.083,-0.0533,0.006,0.0844,0.0588,0.0732,0.1808,0.1275,0.1252,0.1792,0.195,0.1943,0.2017,0.202,0.175,0.1077,0.175,0.175,0.1077,0.1885,0.2155,0.2155,0.2155,0.2155,0.2155,0.0942,0.0538,0.0538,0.0134,0.0134,0.0538,0.0942,0.1481,0.2033,0.0429,0.0437,0.1166,0.1603,0.2041,0.2333,0.2333,0.2333,0.2333,0.2333,0.2277,0.2353,0.2215,0.2215,0.2206,0.2165,0.2155,0.2155,0.2155,0.2155,0.2155,0.2155,0.2155,0.2155,0.2155,0.2155,0.2155,0.2155,0.2155,0.2155,0.2155,0.2155,0.2155,0.2155,0.2155,0.2155,0.2155,0.2155,0.2155,0.2155,0.2155,0.2155,0.2155,0.2155,0.2155,0.2155,0.2248,0.1717,0.0807,-0.3439,-0.6701,-0.8563,-0.8419,-0.8309,-0.8369,-0.824,-0.8154,0.4677,0.4579,0.4475,0.389,0.3322,0.2809,0.2104,0.1628,0.1345,0.1262,0.1264,0.1277,0.1143,0.1042,0.0903,0.0962,0.0883,0.0753,0.0,0.0041,-0.0587,-0.113,-0.1114,-0.0691,0.0167,-0.0161,0.0111,0.1347,0.1048,0.1111,0.1718,0.1804,0.1947,0.2024,0.2069,0.1715,0.1077,0.1481,0.1481,0.1077,0.1481,0.175,0.2155,0.2155,0.2155,0.2155,0.1481,0.0808,0.0538,0.0942,0.0807,0.0673,0.175,0.2155,0.2164,0.14,0.1578,0.2333,0.2333,0.2333,0.2333,0.2333,0.2333,0.2333,0.2333,0.2249,0.2289,0.2155,0.2155,0.2155,0.2155,0.2155,0.2155,0.2155,0.2155,0.2155,0.2155,0.2155,0.2155,0.2155,0.2155,0.2155,0.2155,0.2155,0.2155,0.2155,0.2155,0.2155,0.2155,0.2155,0.2155,0.2155,0.2155,0.2155,0.2155,0.2155,0.2155,0.1885,0.202,0.2155,0.2155,0.175,0.0942,-0.0,-0.5669,-0.866,-0.8641,-0.8333,-0.8339,-0.8369,-0.8119,-0.7997]},{"header":{"parameterUnit":"m.s-1","parameterCategory":1,"la1":30.6,"la2":29.2853,"lo1":-89.7004,"lo2":-87.6739,"dx":0.0162,"dy":0.0183,"nx":112,"ny":82,"refTime":"2022-11-10T06:00:00:Z","depth":0,"parameterNumber":3,"parameterNumberName":"V-component_of_WINDS"},"data":[0.0,0.0,0.0,0.0,0.0,0.0,0.0,0.0,0.0,0.0,0.0,0.0,0.0,0.0,0.0,0.0,0.0,0.0,0.0,0.0,0.0,0.0,0.0,0.0,0.0,0.0,0.0,0.0,0.0,0.0,0.0,0.0,0.0,0.0,0.0,0.0,0.0,0.0,0.0,0.0,0.0,0.0,0.0,0.0,0.0,0.0,0.0,0.0,0.0,0.0,0.0,0.0,0.0,0.0,0.0,0.0,0.0,0.0,0.0,0.0,0.0,0.0,0.0,0.0,0.0,0.0,0.0,0.0,0.0,0.0,0.0,0.0,0.0,0.0,0.0,0.0,0.0,0.0,0.0,0.0,0.0,0.0,0.0,0.0,0.0,0.0,0.0,0.0,0.0,0.0,-1.9045,-2.6871,-2.5366,-2.3807,-2.3807,-2.6186,-2.7507,-2.7025,0.0,0.0,0.0,0.0,0.0,0.0,0.0,0.0,0.0,0.0,0.0,0.0,0.0,0.0,0.0,0.0,0.0,0.0,0.0,0.0,0.0,0.0,0.0,0.0,0.0,0.0,0.0,0.0,0.0,0.0,0.0,0.0,0.0,0.0,0.0,0.0,0.0,0.0,0.0,0.0,0.0,0.0,0.0,0.0,0.0,0.0,0.0,0.0,0.0,0.0,0.0,0.0,0.0,0.0,0.0,0.0,0.0,0.0,0.0,0.0,0.0,0.0,0.0,0.0,0.0,0.0,0.0,0.0,0.0,0.0,0.0,0.0,0.0,0.0,0.0,0.0,0.0,0.0,0.0,0.0,0.0,0.0,0.0,0.0,0.0,0.0,0.0,0.0,0.0,0.0,0.0,0.0,0.0,0.0,0.0,0.0,0.0,0.0,0.0,0.0,0.0,0.0,0.0,0.0,-2.614,-2.7557,-2.728,-2.6986,-2.6986,-2.7415,-2.6573,-2.3971,0.0,0.0,0.0,0.0,0.0,0.0,0.0,0.0,0.0,0.0,0.0,0.0,0.0,0.0,0.0,0.0,0.0,0.0,0.0,0.0,0.0,0.0,0.0,0.0,0.0,0.0,0.0,0.0,0.0,0.0,0.0,0.0,0.0,0.0,0.0,0.0,0.0,0.0,0.0,0.0,0.0,0.0,0.0,0.0,0.0,0.0,0.0,0.0,0.0,0.0,0.0,0.0,0.0,0.0,0.0,0.0,0.0,0.0,0.0,0.0,0.0,0.0,0.0,0.0,0.0,0.0,0.0,0.0,0.0,0.0,0.0,0.0,0.0,0.0,0.0,0.0,0.0,0.0,0.0,0.0,0.0,0.0,0.0,0.0,0.0,0.0,0.0,0.0,0.0,0.0,0.0,0.0,0.0,0.0,0.0,0.0,0.0,0.0,0.0,0.0,0.0,0.0,0.0,-2.5804,-2.7707,-2.7699,-2.7688,-2.7003,-2.5362,-2.5224,-2.4593,-2.3198,-1.4555,0.0,0.0,0.0,0.0,0.0,0.0,0.0,0.0,0.0,0.0,0.0,0.0,0.0,0.0,0.0,0.0,0.0,0.0,0.0,0.0,0.0,0.0,0.0,0.0,0.0,0.0,0.0,0.0,0.0,0.0,0.0,0.0,0.0,0.0,0.0,0.0,0.0,0.0,0.0,0.0,0.0,0.0,0.0,0.0,0.0,0.0,0.0,0.0,0.0,0.0,0.0,0.0,0.0,0.0,0.0,0.0,0.0,0.0,0.0,0.0,0.0,0.0,0.0,0.0,0.0,0.0,0.0,0.0,0.0,0.0,0.0,0.0,0.0,0.0,0.0,0.0,0.0,0.0,0.0,0.0,0.0,0.0,0.0,0.0,0.0,0.0,0.0,0.0,0.0,0.0,0.0,0.0,0.0,0.0,0.0,0.0,0.0,0.0,0.0,0.0,0.0,0.0,-2.4885,-2.7699,-2.7719,-2.7689,-2.6754,-2.4377,-2.4199,-2.3872,-2.3142,-1.4726,0.0,0.0,0.0,0.0,0.0,0.0,0.0,0.0,0.0,0.0,0.0,0.0,0.0,0.0,0.0,0.0,0.0,0.0,0.0,0.0,0.0,0.0,0.0,0.0,0.0,0.0,0.0,0.0,0.0,0.0,0.0,0.0,0.0,0.0,0.0,0.0,0.0,0.0,0.0,0.0,0.0,0.0,0.0,0.0,0.0,0.0,0.0,0.0,0.0,0.0,0.0,0.0,0.0,0.0,0.0,0.0,0.0,0.0,0.0,0.0,0.0,0.0,0.0,0.0,0.0,0.0,0.0,0.0,0.0,0.0,0.0,0.0,0.0,0.0,0.0,0.0,0.0,0.0,0.0,0.0,0.0,0.0,0.0,0.0,0.0,0.0,0.0,0.0,0.0,0.0,0.0,0.0,0.0,0.0,0.0,0.0,0.0,0.0,0.0,0.0,0.0,0.0,-2.2246,-2.7689,-2.7683,-2.77,-2.7631,-2.7397,-2.7388,-2.6157,-2.3287,-1.4721,0.0,0.0,0.0,0.0,0.0,0.0,0.0,0.0,0.0,0.0,0.0,0.0,0.0,0.0,0.0,0.0,0.0,0.0,0.0,0.0,0.0,0.0,0.0,0.0,0.0,0.0,0.0,0.0,0.0,0.0,0.0,0.0,0.0,0.0,0.0,0.0,0.0,0.0,0.0,0.0,0.0,0.0,0.0,0.0,0.0,0.0,0.0,0.0,0.0,0.0,0.0,0.0,0.0,0.0,0.0,0.0,0.0,0.0,0.0,0.0,0.0,0.0,0.0,0.0,0.0,0.0,0.0,0.0,0.0,0.0,0.0,0.0,0.0,0.0,0.0,0.0,0.0,0.0,0.0,0.0,0.0,0.0,0.0,0.0,0.0,0.0,0.0,0.0,0.0,0.0,0.0,0.0,0.0,0.0,0.0,0.0,0.0,0.0,0.0,0.0,0.0,0.0,-2.7622,-3.1075,-3.0683,-3.0635,-2.9833,-2.7883,-2.7703,-2.6361,-2.329,0.0,0.0,0.0,0.0,0.0,0.0,0.0,0.0,0.0,0.0,0.0,0.0,0.0,0.0,0.0,0.0,0.0,0.0,0.0,0.0,0.0,0.0,0.0,0.0,0.0,0.0,0.0,0.0,0.0,0.0,0.0,0.0,0.0,0.0,0.0,0.0,0.0,0.0,0.0,0.0,0.0,0.0,0.0,0.0,0.0,0.0,0.0,0.0,0.0,0.0,0.0,0.0,0.0,0.0,0.0,0.0,0.0,0.0,0.0,0.0,0.0,0.0,0.0,0.0,0.0,0.0,0.0,0.0,0.0,0.0,0.0,0.0,0.0,0.0,0.0,0.0,0.0,0.0,0.0,0.0,0.0,0.0,0.0,0.0,0.0,0.0,0.0,0.0,0.0,0.0,0.0,0.0,0.0,0.0,0.0,0.0,0.0,0.0,0.0,0.0,0.0,0.0,-2.817,-3.1783,-3.2821,-3.1356,-3.1022,-3.0047,-2.7871,-2.7694,-2.6795,-2.4672,0.0,0.0,0.0,0.0,0.0,0.0,0.0,0.0,0.0,0.0,0.0,0.0,0.0,0.0,0.0,0.0,0.0,0.0,0.0,0.0,0.0,0.0,0.0,0.0,0.0,0.0,0.0,0.0,0.0,0.0,0.0,0.0,0.0,0.0,0.0,0.0,0.0,0.0,0.0,0.0,0.0,0.0,0.0,0.0,0.0,0.0,0.0,0.0,0.0,0.0,0.0,0.0,0.0,0.0,0.0,0.0,0.0,0.0,0.0,0.0,0.0,0.0,0.0,0.0,0.0,0.0,0.0,0.0,0.0,0.0,0.0,0.0,0.0,0.0,0.0,0.0,0.0,0.0,0.0,0.0,0.0,0.0,0.0,0.0,0.0,0.0,0.0,0.0,0.0,0.0,0.0,0.0,0.0,0.0,0.0,0.0,0.0,0.0,0.0,0.0,0.0,0.0,-3.1731,-3.3405,-3.2174,-2.8996,-2.8111,-2.7762,-2.7759,-2.773,-2.7716,0.0,0.0,0.0,0.0,0.0,0.0,0.0,0.0,0.0,0.0,0.0,0.0,0.0,0.0,0.0,0.0,0.0,0.0,0.0,0.0,0.0,0.0,0.0,0.0,0.0,0.0,0.0,0.0,0.0,0.0,0.0,0.0,0.0,0.0,0.0,0.0,0.0,0.0,0.0,0.0,0.0,0.0,0.0,0.0,0.0,0.0,0.0,0.0,0.0,0.0,0.0,0.0,0.0,0.0,0.0,0.0,0.0,0.0,0.0,0.0,0.0,0.0,0.0,0.0,0.0,0.0,0.0,0.0,0.0,0.0,0.0,0.0,0.0,0.0,0.0,0.0,0.0,0.0,0.0,0.0,0.0,0.0,0.0,0.0,0.0,0.0,0.0,0.0,0.0,0.0,0.0,0.0,0.0,0.0,0.0,0.0,0.0,0.0,0.0,0.0,0.0,0.0,0.0,-3.1747,-3.3408,-3.3049,-3.2101,-3.1818,-3.1737,-3.1727,-2.9629,-2.8155,-2.7718,0.0,0.0,0.0,0.0,0.0,0.0,0.0,0.0,0.0,0.0,0.0,0.0,0.0,0.0,0.0,0.0,0.0,0.0,0.0,0.0,0.0,0.0,0.0,0.0,0.0,0.0,0.0,0.0,0.0,0.0,0.0,0.0,0.0,0.0,0.0,0.0,0.0,0.0,0.0,0.0,0.0,0.0,0.0,0.0,0.0,0.0,0.0,0.0,0.0,0.0,0.0,0.0,0.0,0.0,0.0,0.0,0.0,0.0,0.0,0.0,0.0,0.0,0.0,0.0,0.0,0.0,0.0,0.0,0.0,0.0,0.0,0.0,0.0,0.0,0.0,0.0,0.0,0.0,0.0,0.0,0.0,0.0,0.0,0.0,0.0,0.0,0.0,0.0,0.0,0.0,0.0,0.0,0.0,0.0,0.0,0.0,0.0,0.0,0.0,0.0,0.0,0.0,-3.1957,-3.3682,-3.386,-3.3865,-3.3887,-3.3887,-3.3876,-3.1821,-3.0507,-3.0452,0.0,0.0,0.0,0.0,0.0,0.0,0.0,0.0,0.0,0.0,0.0,0.0,0.0,0.0,0.0,0.0,0.0,0.0,0.0,0.0,0.0,0.0,0.0,0.0,0.0,0.0,0.0,0.0,0.0,0.0,0.0,0.0,0.0,0.0,0.0,0.0,0.0,0.0,0.0,0.0,0.0,0.0,0.0,0.0,0.0,0.0,0.0,0.0,0.0,0.0,0.0,0.0,0.0,0.0,0.0,0.0,0.0,0.0,0.0,0.0,0.0,0.0,0.0,0.0,0.0,0.0,0.0,0.0,0.0,0.0,0.0,0.0,0.0,0.0,0.0,0.0,0.0,0.0,0.0,0.0,0.0,0.0,0.0,0.0,0.0,0.0,0.0,0.0,0.0,0.0,0.0,0.0,0.0,0.0,0.0,0.0,0.0,0.0,0.0,0.0,0.0,0.0,-3.275,-3.4628,-3.5053,-3.5058,-3.4792,-3.4604,-3.4606,-3.3926,-3.3822,-3.4548,0.0,0.0,0.0,0.0,0.0,0.0,0.0,0.0,0.0,0.0,0.0,0.0,0.0,0.0,0.0,0.0,0.0,0.0,0.0,0.0,0.0,0.0,0.0,0.0,0.0,0.0,0.0,0.0,0.0,0.0,0.0,0.0,0.0,0.0,0.0,0.0,0.0,0.0,0.0,0.0,0.0,0.0,0.0,0.0,0.0,0.0,0.0,0.0,0.0,0.0,0.0,0.0,0.0,0.0,0.0,0.0,0.0,0.0,0.0,0.0,-1.928,-1.5153,0.0,0.0,0.0,0.0,0.0,0.0,0.0,0.0,0.0,0.0,0.0,0.0,0.0,0.0,0.0,0.0,0.0,0.0,0.0,0.0,0.0,0.0,0.0,0.0,0.0,0.0,0.0,0.0,0.0,0.0,0.0,0.0,0.0,0.0,0.0,0.0,0.0,0.0,0.0,0.0,-3.669,-3.8429,-3.8534,-3.8531,-3.6171,-3.4604,-3.4612,-3.4423,-3.442,-3.46,-3.1939,0.0,0.0,0.0,0.0,0.0,0.0,0.0,0.0,0.0,0.0,0.0,0.0,0.0,0.0,0.0,0.0,0.0,0.0,0.0,0.0,0.0,0.0,0.0,0.0,0.0,0.0,0.0,0.0,0.0,0.0,0.0,0.0,0.0,0.0,0.0,0.0,0.0,0.0,0.0,0.0,0.0,0.0,0.0,0.0,0.0,0.0,0.0,0.0,0.0,0.0,0.0,0.0,0.0,0.0,0.0,0.0,0.0,0.0,0.0,-2.2297,-2.036,0.0,0.0,0.0,0.0,0.0,0.0,0.0,0.0,0.0,0.0,0.0,0.0,0.0,0.0,0.0,0.0,0.0,0.0,0.0,0.0,0.0,0.0,0.0,0.0,0.0,0.0,0.0,0.0,0.0,0.0,0.0,0.0,0.0,0.0,0.0,0.0,0.0,0.0,0.0,0.0,-3.789,-3.9615,-3.9602,-3.9609,-3.8023,-3.7014,-3.7009,-3.5539,-3.4585,-3.4599,-3.4604,0.0,0.0,0.0,0.0,0.0,0.0,0.0,0.0,0.0,0.0,0.0,0.0,0.0,0.0,0.0,0.0,0.0,0.0,0.0,0.0,0.0,0.0,0.0,0.0,0.0,0.0,0.0,0.0,0.0,0.0,0.0,0.0,0.0,0.0,0.0,0.0,0.0,0.0,0.0,0.0,0.0,0.0,0.0,0.0,0.0,0.0,0.0,0.0,0.0,0.0,0.0,0.0,0.0,-2.6437,-2.6729,-2.6711,-2.6571,-2.7192,-2.825,-2.5756,-2.6161,-2.8116,-2.1433,0.0,0.0,0.0,0.0,0.0,0.0,0.0,0.0,0.0,0.0,0.0,0.0,0.0,0.0,0.0,0.0,0.0,0.0,0.0,0.0,0.0,0.0,-3.2564,-3.2564,-3.249,-2.9808,-2.0313,0.0,0.0,0.0,0.0,0.0,0.0,0.0,0.0,0.0,0.0,0.0,-3.8039,-3.9599,-3.9614,-3.9607,-3.9607,-3.9594,-3.959,-3.7057,-3.5479,-3.5483,-3.5468,-3.5211,0.0,0.0,0.0,0.0,0.0,0.0,0.0,0.0,0.0,0.0,0.0,0.0,0.0,0.0,0.0,0.0,0.0,0.0,0.0,0.0,0.0,0.0,0.0,0.0,0.0,0.0,0.0,0.0,0.0,0.0,0.0,0.0,-1.9485,-2.1694,0.0,0.0,0.0,0.0,0.0,0.0,0.0,0.0,0.0,0.0,0.0,0.0,0.0,-2.4165,-2.5862,-2.939,-3.1512,-3.2231,-3.4966,-3.6285,-3.6268,-3.5601,-3.5425,-3.5495,-3.3369,0.0,-2.6275,-2.5369,0.0,0.0,0.0,0.0,0.0,0.0,0.0,0.0,0.0,0.0,0.0,0.0,0.0,0.0,0.0,0.0,0.0,0.0,0.0,0.0,0.0,0.0,-3.328,-3.328,-3.2804,-3.2694,-3.3755,-3.1908,-3.0063,-3.0224,-2.1306,-1.382,0.0,0.0,0.0,0.0,0.0,0.0,-3.8631,-3.9583,-3.9586,-3.9612,-3.9612,-3.9607,-3.9602,-3.9183,-3.8925,-3.8949,-3.8939,-3.7624,-3.4718,-3.2921,0.0,0.0,0.0,0.0,0.0,0.0,0.0,0.0,0.0,0.0,0.0,0.0,0.0,0.0,0.0,0.0,0.0,0.0,0.0,0.0,0.0,0.0,0.0,0.0,0.0,0.0,0.0,0.0,0.0,-1.835,-2.1354,-2.3162,-2.1898,-2.0032,0.0,0.0,0.0,0.0,0.0,0.0,0.0,0.0,0.0,-2.9097,-2.9767,-3.0972,-3.2949,-3.5177,-3.6443,-3.6738,-3.8088,-3.8322,-3.7461,-3.7128,-3.6513,-3.5636,-3.4419,-3.2247,-2.9505,-2.8728,-2.7997,-2.6842,0.0,0.0,0.0,0.0,-1.7367,-2.5207,-2.797,-3.0665,-3.316,-3.4524,0.0,0.0,0.0,0.0,0.0,0.0,0.0,-2.8066,-3.0323,-3.316,-3.5533,-3.5984,-3.5888,-3.6038,-3.7392,-3.6612,-3.5593,-3.5447,-3.1267,-2.7782,-2.7929,-2.1013,0.0,0.0,0.0,-3.6982,-4.1756,-4.236,-4.2337,-4.2337,-4.2337,-4.2344,-4.2366,-4.0659,-3.9595,-3.9602,-3.9594,-3.8945,-3.7464,-3.5601,-3.275,0.0,0.0,0.0,0.0,0.0,0.0,0.0,0.0,0.0,0.0,0.0,0.0,0.0,0.0,0.0,0.0,0.0,0.0,0.0,0.0,0.0,0.0,0.0,0.0,0.0,0.0,0.0,0.0,-2.0912,-2.3684,-2.4919,-2.4982,-2.3752,0.0,0.0,0.0,0.0,0.0,0.0,-2.9246,-2.956,-3.1219,-3.4617,-3.5451,-3.6611,-3.8303,-3.9368,-3.9901,-3.9901,-4.0112,-3.9473,-3.8175,-3.793,-3.6891,-3.529,-3.4882,-3.4279,-3.3419,-3.1498,-3.2521,-3.4702,-2.8917,-2.3833,-1.9796,-1.9808,-2.7109,-3.6991,-3.7003,-3.7524,-3.8042,-3.7253,-3.6991,-3.6989,-3.6979,0.0,0.0,0.0,0.0,-3.5809,-3.6996,-3.7305,-3.7741,-3.94,-3.9589,-3.9483,-3.9735,-3.9805,-3.904,-3.6342,-3.7312,-3.8552,-3.8556,-2.8839,0.0,-2.5616,-3.4515,-4.1732,-4.4184,-4.4497,-4.4519,-4.4519,-4.4519,-4.4501,-4.4508,-4.2254,-4.0851,-4.0854,-4.0065,-3.9602,-3.9599,-3.7194,-3.7048,-3.9545,0.0,0.0,0.0,0.0,0.0,0.0,0.0,0.0,0.0,0.0,0.0,0.0,0.0,0.0,0.0,0.0,0.0,0.0,0.0,0.0,0.0,0.0,0.0,0.0,0.0,0.0,0.0,0.0,0.0,-2.8187,-2.9488,0.0,0.0,0.0,0.0,-2.726,-2.9464,-3.1776,-3.4032,-3.4888,-3.6374,-3.8734,-3.8856,-3.8986,-3.921,-4.0744,-4.1481,-4.1499,-4.2271,-4.2181,-4.1346,-4.0376,-3.8808,-3.6853,-3.6835,-3.6817,-3.6561,-3.3505,-3.411,-3.6845,-3.6432,-3.6103,-3.5846,-3.5845,-3.6328,-3.6988,-3.6992,-3.8911,-4.0882,-3.7971,-3.7002,-3.7021,-3.6985,-3.6549,0.0,0.0,-3.775,-3.8044,-3.8114,-3.8145,-3.9168,-4.3241,-4.341,-4.294,-4.3962,-4.4166,-4.1896,-3.4141,-3.6372,-3.9522,-3.9526,0.0,-2.8737,-4.1358,-4.3843,-4.4316,-4.4482,-4.4513,-4.4496,-4.4496,-4.4496,-4.4505,-4.4484,-4.4353,-4.4256,-4.4247,-4.1337,-3.9608,-3.9618,-3.9438,-3.9448,-3.9595,-3.8786,0.0,0.0,0.0,0.0,0.0,0.0,0.0,0.0,0.0,0.0,0.0,0.0,0.0,0.0,0.0,0.0,0.0,0.0,0.0,0.0,0.0,0.0,0.0,0.0,0.0,0.0,0.0,0.0,-2.985,-3.1411,0.0,-2.9813,-3.1795,-3.2931,-3.2214,-3.4679,-3.7015,-3.8856,-3.9241,-4.022,-4.2002,-4.2146,-4.237,-4.2718,-4.3269,-4.3433,-4.3215,-4.3501,-4.2923,-4.1631,-4.2275,-4.2706,-4.2698,-3.8714,-3.8122,-3.9872,-3.8779,-3.7804,-3.7001,-3.6987,-3.6974,-3.6978,-3.7005,-3.7002,-3.6998,-3.701,-3.9,-4.1441,-4.0324,-3.9965,-4.0071,-4.0625,-4.1296,-4.1887,-4.2151,-4.2262,-4.224,-4.2247,-4.2266,-4.2637,-4.4128,-4.4209,-4.4031,-4.4414,-4.4482,-4.3644,-4.0732,-4.1575,-4.2762,-4.2743,-3.9806,-3.9059,-4.3788,-4.4497,-4.4496,-4.4486,-4.4495,-4.4485,-4.4485,-4.4505,-4.4496,-4.4505,-4.4489,-4.4493,-4.4516,-4.1423,-3.9605,-3.9593,-3.9615,-3.9602,-3.9603,-4.0104,-4.0516,0.0,0.0,0.0,0.0,0.0,0.0,0.0,0.0,0.0,0.0,0.0,0.0,0.0,0.0,0.0,0.0,0.0,0.0,0.0,0.0,0.0,0.0,0.0,0.0,0.0,-2.7624,-3.0639,-3.1203,-3.3754,-3.4791,-3.3049,-3.563,-3.7325,-3.7018,-3.9056,-4.0911,-4.2423,-4.2511,-4.3058,-4.4227,-4.4307,-4.4377,-4.4444,-4.4791,-4.479,-4.4487,-4.5037,-4.453,-4.3188,-4.4211,-4.4965,-4.5224,-4.1162,-4.0528,-4.2396,-4.2396,-4.1227,-3.9317,-3.8775,-3.8545,-3.8563,-3.8558,-3.8561,-3.8736,-4.0131,-4.1956,-4.374,-4.4123,-4.4254,-4.4154,-4.36,-4.3929,-4.4506,-4.4495,-4.45,-4.4494,-4.4494,-4.4479,-4.449,-4.4488,-4.4498,-4.4803,-4.5941,-4.6169,-4.6202,-4.6202,-4.5263,-4.4496,-4.4485,-4.4511,-4.4889,-4.6025,-4.6183,-4.6177,-4.6194,-4.6195,-4.6186,-4.6195,-4.6196,-4.5735,-4.4616,-4.4512,-4.4626,-4.4916,-4.2904,-4.1705,-4.1705,-4.1686,-4.1168,-4.0038,-4.0539,-3.7958,-3.2188,0.0,0.0,0.0,0.0,0.0,0.0,0.0,0.0,0.0,0.0,0.0,0.0,0.0,0.0,0.0,0.0,0.0,0.0,0.0,0.0,0.0,0.0,0.0,-2.8012,-3.1258,-3.3389,-3.2582,-3.6723,-3.8952,-3.7085,-3.9388,-4.1173,-4.1568,-4.2367,-4.3358,-4.4571,-4.4632,-4.4845,-4.5349,-4.5388,-4.5022,-4.4234,-4.52,-4.5602,-4.5421,-4.6946,-4.711,-4.6136,-4.6136,-4.537,-4.4005,-4.4005,-4.401,-4.3996,-4.4014,-4.3975,-4.3864,-4.2305,-4.1685,-4.1668,-4.1669,-4.1724,-4.2396,-4.6379,-4.7756,-4.7937,-4.9122,-4.9416,-4.8742,-4.5477,-4.4488,-4.4507,-4.4635,-4.4653,-4.4651,-4.4651,-4.4651,-4.4651,-4.4651,-4.4651,-4.5563,-4.8802,-4.9502,-4.9502,-4.9502,-4.6869,-4.4662,-4.4674,-4.458,-4.5604,-4.8848,-4.9157,0.0,-4.9339,-4.9377,-4.9423,-4.951,-4.9405,-4.8021,-4.4776,-4.4512,-4.4767,-4.5283,-4.5611,-4.5803,-4.5803,-4.5801,-4.4083,-4.0395,-4.0648,-3.2645,-1.6088,0.0,0.0,0.0,0.0,0.0,0.0,0.0,0.0,0.0,0.0,0.0,0.0,0.0,0.0,0.0,0.0,0.0,0.0,0.0,0.0,0.0,-3.0911,-3.2955,-3.1949,-3.4302,-3.6647,-3.8192,-4.0255,-4.1546,-4.1421,-4.2725,-4.3611,-4.3756,-4.3987,-4.4632,-4.5851,-4.5364,-4.5621,-4.6944,-4.698,-4.6953,-4.6934,-4.802,-4.8341,-4.7924,-4.8347,-4.7167,-4.4581,-4.4581,-4.4378,-4.3991,-4.3991,-4.4007,-4.4005,-4.4009,-4.4009,-4.3954,-4.3506,-4.3359,-4.332,-4.3323,-4.4839,-4.7037,-4.8166,-4.8754,-4.9055,-4.9371,-4.7876,-4.5693,-4.478,-4.4494,-4.5006,-4.7435,-4.8133,-4.8133,-4.8133,-4.8133,-4.8133,-4.8133,-4.8141,-4.8375,-4.9311,-4.9506,-4.9514,-4.9514,-4.8776,-4.8127,-4.8133,-4.6098,-4.48,-4.5752,-4.1779,-4.0669,-4.611,-4.6825,-4.7515,-4.9321,-4.7333,-4.5513,-4.4566,-4.507,-4.2393,-3.5229,-4.1706,-4.5808,-4.5808,-4.5804,-4.0733,-2.9912,-3.7011,-3.8507,0.0,0.0,0.0,0.0,0.0,0.0,0.0,0.0,0.0,0.0,0.0,0.0,0.0,0.0,0.0,0.0,0.0,0.0,0.0,0.0,0.0,0.0,-3.4976,-3.7279,-3.7362,-3.8287,-3.9629,-4.1407,-4.2598,-4.3487,-4.4037,-4.4399,-4.4714,-4.4833,-4.4851,-4.5544,-4.7092,-4.7077,-4.7503,-4.8632,-4.8669,-4.8914,-4.9418,-5.0083,-4.9917,-4.8892,-4.8906,-4.7906,-4.606,-4.606,-4.6042,-4.6052,-4.6052,-4.6052,-4.6052,-4.6042,-4.6851,-4.7973,0.0,0.0,0.0,0.0,-4.5416,-4.7061,-4.7057,-4.8151,-4.9487,-4.9501,-4.8172,-4.6593,-4.6585,-4.6585,-4.702,-4.8972,-4.9499,-4.9488,-4.9488,-4.9488,-4.9488,-4.9488,-4.9506,-4.9495,-4.9495,-4.9502,-4.9509,-4.9509,-4.9509,0.0,-4.9514,-4.7859,-4.6577,-4.66,-4.3323,-4.2423,-4.6797,-4.7338,-4.8048,-4.9882,-4.5799,-4.3531,-4.4939,-4.6817,0.0,0.0,0.0,-4.5802,-4.5802,-4.5796,0.0,0.0,0.0,-4.2912,-4.2942,-4.2976,0.0,0.0,-2.9279,-3.115,0.0,0.0,0.0,0.0,0.0,0.0,0.0,0.0,0.0,0.0,0.0,0.0,0.0,0.0,0.0,0.0,-3.8469,-4.1414,-4.2978,-4.2614,-4.2505,-4.3159,-4.4272,-4.5059,-4.5321,-4.5187,-4.5224,-4.5515,-4.5642,-4.6567,-4.8528,-4.9154,0.0,0.0,0.0,-5.0319,-5.1092,-5.1481,-5.094,-4.9455,-4.9068,-4.8897,-4.8907,-4.8889,-4.8889,-4.8889,-4.8903,-4.8903,-4.8903,-4.8922,-5.0628,-5.2953,-5.009,-4.7201,-4.466,-4.4965,-4.5064,-4.5069,-4.5077,0.0,0.0,-4.9514,-4.9506,-4.9488,-4.951,-4.9499,-4.9506,-4.9506,-4.9483,-4.9509,-4.9509,-4.9509,-4.9509,-4.9509,-4.9509,-4.9509,-4.9509,-4.9509,-4.9509,-4.9509,-4.9502,-4.951,-4.9503,-4.9523,-4.9504,-4.951,-4.9576,-4.9656,-4.966,-4.9662,-4.9971,-5.0816,-4.5534,0.0,-4.6157,-4.918,-4.947,-4.6021,-4.5796,-4.5803,-4.5796,-4.5796,-4.5801,-4.5797,-4.5817,-4.5813,-4.5808,-4.591,-4.598,-4.5999,-4.6007,-4.5994,0.0,0.0,0.0,0.0,0.0,0.0,0.0,0.0,0.0,0.0,0.0,0.0,0.0,0.0,0.0,-3.796,-4.1107,-4.3666,-4.4683,-4.5238,-4.5487,-4.5333,-4.6104,-4.6397,-4.5773,-4.6874,-4.7626,-4.7696,-4.83,-4.9301,-5.0713,-4.9675,-4.9377,-5.0153,-4.9488,-4.9228,-4.9394,-5.2026,-5.3177,-5.2821,-5.0166,0.0,-4.8887,-4.89,-4.8897,-4.8897,-4.8889,-4.8884,-4.8884,-4.8893,-4.9262,-4.9809,-4.9496,-4.9014,-4.8446,-4.8521,-4.8532,-4.8525,-4.8532,-4.8976,-4.9495,-4.9502,-4.9502,-4.9502,-4.9502,-4.9502,0.0,-4.9502,-4.949,-4.9509,-4.9509,-4.9509,-4.9509,-4.9509,-4.9509,-4.9509,-4.9509,-4.9509,-4.9509,-4.9509,-4.9512,-4.9494,-4.9492,-4.9503,-4.9508,-4.9501,-5.0149,-5.0639,-5.0626,-5.0622,-5.0702,-5.0875,-4.9729,-4.9266,-5.01,-5.0757,-4.9608,-4.6028,-4.5803,-4.5796,-4.5809,-4.5809,-4.579,-4.5803,-4.5919,-4.5905,-4.5805,-4.5836,-4.5886,-4.6005,-4.5997,-4.6007,0.0,0.0,0.0,0.0,0.0,0.0,0.0,0.0,0.0,0.0,0.0,-3.2544,-3.4996,0.0,-3.9342,-4.1794,-4.3912,-4.5547,-4.6382,-4.6847,-4.7021,-4.6812,-4.6812,-4.7091,-4.7885,-4.7996,-4.8328,-4.9141,-4.9196,-4.964,-5.0711,-5.0098,-4.9949,-5.0396,-5.0246,-4.9746,-4.8933,-5.0523,-5.1337,-5.1314,-4.9663,-4.8919,-4.8915,-4.8911,-4.9019,-4.9187,-4.9216,-4.9197,-4.9197,-4.9202,-4.9197,-4.9225,-4.9412,-4.949,-4.9502,-4.9502,-4.9495,-4.9506,-4.9495,-4.9514,-4.9483,-4.949,-4.9509,-4.9509,-4.9509,-4.9509,-4.9509,-4.9509,-4.9509,-4.9509,-4.9509,-4.9509,-4.9509,-4.9509,-4.9509,-4.9483,-4.9512,-4.9504,-4.9495,-4.9503,-4.9485,-4.9657,-5.0126,-5.0187,-5.0195,-5.021,-5.0598,-5.091,-5.0914,-5.0891,-5.0899,-5.0899,-5.0908,-5.0978,-5.1186,-5.1212,-4.9685,-4.6119,-4.5899,-4.5899,-4.5887,-4.5829,-4.5803,-4.5789,-4.5932,-4.5963,-4.5894,-4.5894,-4.5925,-4.5994,-4.6005,-4.6005,0.0,0.0,0.0,0.0,0.0,0.0,0.0,-2.9495,-3.0984,-3.3621,-3.494,-3.6575,-3.9733,-4.1014,-4.2445,-4.5101,-4.6197,-4.6958,-4.7608,-4.798,-4.811,-4.7943,-4.7497,-4.7906,-4.9691,-4.8874,-4.8816,-5.008,-4.9707,-4.98,-5.0748,-5.0784,-5.0765,-5.0749,-5.0858,-5.0282,-4.8932,-4.8911,-4.8943,-4.9012,-4.9027,-4.9023,-4.9034,-4.9015,-4.9197,-4.951,-4.9492,-4.9492,-4.9492,-4.9514,-4.9521,-4.9478,-4.9514,-4.9518,-4.951,-4.9502,-4.9509,-4.9509,-4.9509,-4.9509,-4.9509,-4.9509,-4.9509,-4.9509,-4.9509,-4.9509,-4.949,-4.9495,-4.9506,-4.9488,-4.9491,-4.9502,-4.9502,-4.9502,-4.9502,-4.9504,-4.9508,-4.9656,-4.9765,-4.9754,-4.9771,-5.0013,-5.0779,-5.0895,-5.0894,-5.0913,-5.0911,-5.0906,-5.0964,-5.0923,-5.0912,-5.0961,-5.0959,-5.1017,-5.1205,-5.1198,-4.9989,-4.7185,-4.701,-4.701,-4.701,-4.6261,-4.5828,-4.5836,-4.5949,-4.6007,-4.6003,-4.6003,-4.6003,-4.6003,-4.6005,-4.5997,-2.8495,-2.7881,-2.8229,-2.932,-3.0263,-3.2413,0.0,-3.8598,-3.8785,-4.198,-4.3893,-4.4915,-4.4636,-4.5268,-4.5937,-4.6308,-4.7033,-4.7608,-4.7683,-4.8927,-4.9559,-4.8869,-4.9317,-4.9524,-4.9082,-4.9803,-5.0341,-5.0527,-5.0897,-5.1787,-5.3275,-5.2083,-5.1301,-5.1301,-4.993,-4.9097,-4.8906,-4.8892,-4.9076,-4.9421,-4.9421,-4.9421,-4.9437,-4.943,-4.9463,-4.95,-4.9492,-4.9506,-4.9519,-4.9499,-4.9485,-4.9504,-4.9492,-4.9499,-4.9512,-4.9502,-4.9509,-4.9509,-4.9509,-4.9509,-4.9509,-4.9509,-4.9509,-4.9509,-4.9509,-4.9509,-4.9514,-4.9495,-4.9503,-4.95,-4.9504,-4.9496,-4.9496,-4.9496,-4.9496,-4.9496,-4.9482,-5.0159,-5.0737,-5.0746,-5.073,-5.0779,-5.0875,-5.0906,-5.0887,-5.0893,-5.0887,-5.0971,-5.1141,-5.1015,-5.097,-5.1145,-5.1172,-5.1192,-5.1198,-5.1198,-5.1035,-5.0635,-5.0615,-5.0615,-5.0622,-4.7636,-4.5976,-4.5987,-4.5976,-4.5999,-4.5994,-4.5994,-4.6005,-4.5997,-4.6005,-4.6005,-3.4326,-3.3309,-3.273,-3.5338,-3.5891,-3.6676,-3.9949,-4.0963,-4.1776,-4.3615,-4.5324,-4.6401,-4.6048,-4.6661,-4.74,-4.7917,-4.824,-4.8428,-4.8494,-4.902,-4.9652,-5.0296,-5.0761,-5.0838,-5.0396,-4.9895,-5.0395,-5.2326,-5.2678,-5.2677,-5.2436,-5.0854,-4.9963,-4.9966,-5.137,-5.2092,-5.2092,-5.2105,-5.2195,-5.2342,-5.2371,-5.2334,-5.2334,-5.2335,-5.2359,-5.2342,-5.2351,-5.2332,-5.236,-5.2353,-5.2717,-5.3277,-5.3288,-5.3279,-5.2982,-5.0449,-4.95,-4.95,-4.95,-4.95,-4.95,-4.95,-4.9508,-4.9489,-4.9489,-4.9489,-4.9497,-4.9493,-4.9885,-5.0316,-5.0317,-5.0302,-5.0302,-5.0302,-5.0302,-5.031,-5.0308,-5.0617,-5.0909,-5.0895,-5.0893,-5.0889,-5.0887,-5.255,-5.3921,-5.4033,-5.225,-5.097,-5.117,-5.1133,-5.1871,-5.3955,-5.4181,-5.4174,-5.4167,-5.4167,-5.4167,-5.4167,-5.4167,-5.4167,-5.4167,-5.0848,-4.9031,-4.9031,-4.9023,-4.9035,-4.9007,-4.6996,-4.5994,-4.6005,-4.5994,-4.7096,-3.6867,-3.6426,-3.6178,-3.9174,-4.0011,-4.0443,-4.1523,-4.2816,-4.3986,-4.4562,-4.6043,-4.7122,-4.6787,-4.7475,-4.8308,-4.8952,-4.9018,-4.9169,-4.9657,-4.9684,-4.9947,-5.0647,-5.1649,-5.2265,-5.2249,-5.1022,-5.0856,-5.2345,-5.2472,-5.2356,-5.2078,-5.1034,-5.0421,-5.0408,-5.3,-5.4412,-5.4399,-5.4397,-5.4401,-5.4401,-5.4396,-5.4383,-5.4413,-5.4724,-5.4821,-5.4853,-5.4853,-5.4853,-5.4834,-5.4848,-5.5316,-5.5992,-5.6003,-5.6006,-5.5618,-5.2456,-5.1289,-5.1291,-5.1291,-5.1291,-5.1291,-5.1291,-5.1295,-5.1123,-5.0159,-4.9892,-4.9897,-4.9889,-5.0371,-5.0894,-5.0903,-5.0883,-5.0903,-5.0903,-5.0903,-5.0888,-5.0895,-5.0894,-5.1181,-5.2108,-5.2298,-5.2314,-5.2307,-5.442,-5.6117,-5.6282,-5.407,-5.244,-5.2588,-5.2609,-5.3572,-5.6045,-5.6297,-5.6297,-5.6297,-5.6297,-5.6297,-5.6297,-5.6297,-5.6297,-5.6309,-5.3914,-5.262,-5.2613,-5.2608,-5.2143,-5.119,-4.8672,-4.7436,-4.7425,-4.7436,-4.8791,-3.3222,-3.4928,-3.7058,-3.8729,-4.1516,-4.4079,-4.4952,-4.5788,-4.6382,-4.642,-4.7806,-4.8639,-4.7471,-4.8263,-4.9008,-4.8915,-4.9068,-4.9697,-5.114,-5.1481,-5.0946,-4.9182,-5.1777,-5.3882,-5.4293,-5.3904,-5.2361,-4.9287,-4.9045,-5.041,-5.3545,-5.4043,-5.4243,-5.4243,-5.4337,-5.4393,-5.4409,-5.4415,-5.4417,-5.4417,-5.4398,-5.4397,-5.4435,-5.5479,-5.5944,-5.5951,-5.5951,-5.5951,-5.5932,-5.5942,-5.5972,-5.5994,-5.6,-5.5995,-5.5975,-5.5859,-5.5807,-5.5806,-5.5806,-5.5806,-5.5806,-5.5806,-5.5806,-5.5188,-5.1849,-5.0846,-5.0856,-5.0869,-5.0892,-5.0894,-5.0887,-5.0902,-5.0885,-5.0885,-5.0885,-5.0885,-5.0902,-5.0899,-5.1876,-5.52,-5.5854,-5.5854,-5.5845,-5.6102,-5.629,-5.6296,-5.6207,-5.6136,-5.6129,-5.6155,-5.6188,-5.6285,-5.6304,-5.6291,-5.6291,-5.6291,-5.6291,-5.6291,-5.6291,-5.6291,-5.6304,-5.6207,-5.6149,-5.6142,-5.6154,-5.4504,-5.1203,-5.1079,-5.1047,-5.1031,-5.1047,-5.1105,-3.7378,-3.8943,-4.0327,-4.1943,-4.3188,-4.4228,-4.5101,-4.5918,-4.6401,-4.6052,-4.7568,-4.8539,-4.7161,-4.8133,-4.9529,-5.056,-4.9772,-4.9294,-5.0023,-5.2067,-5.3257,-5.263,-5.3543,-5.4229,-5.4381,-5.4279,-5.3753,-5.2641,-5.2566,-5.3043,-5.4137,-5.433,-5.4382,-5.4392,-5.4392,-5.4392,-5.4392,-5.4409,-5.4749,-5.5443,-5.5453,-5.5446,-5.5477,-5.5842,-5.5989,-5.6,-5.6,-5.6,-5.6,-5.6001,-5.6,-5.6,-5.5996,-5.6012,-5.6012,-5.6012,-5.5999,-5.6001,-5.6001,-5.6001,-5.6001,-5.6001,-5.6001,-5.5789,-5.4632,-5.4285,-5.4284,-5.4283,-5.4281,-5.428,-5.4274,-5.4291,-5.4868,-5.7137,-5.7676,-5.7056,-5.4773,-5.4289,-5.4618,-5.5772,-5.6102,-5.6199,-5.6204,-5.6257,-5.629,-5.6298,-5.6311,-5.6291,-5.6311,-5.6291,-5.6291,-5.6291,-5.6291,-5.6291,-5.6291,-5.6291,-5.6291,-5.6291,-5.6291,-5.629,-5.63,-5.63,-5.6299,-5.6296,-5.6302,-5.5806,-5.4772,-5.4771,-5.4779,-5.4783,-5.4779,-5.4774,-3.99,-4.1025,-4.1627,-4.3522,-4.4228,-4.4766,-4.59,-4.7047,-4.7828,-4.7757,-4.9071,-4.9671,-4.7926,-4.8532,-5.004,-5.2313,-5.167,-5.0953,-5.1193,-5.3062,-5.4538,-5.4924,-5.4958,-5.5446,-5.6683,-5.6804,-5.6638,-5.6168,-5.6159,-5.6358,-5.6768,-5.5633,-5.4976,-5.4982,-5.4982,-5.4982,-5.4982,-5.4962,-5.5331,-5.5999,-5.5999,-5.6011,-5.6,-5.6,-5.6001,-5.6012,-5.6012,-5.6012,-5.6012,-5.5995,-5.5995,-5.5995,-5.5995,-5.5995,-5.5995,-5.5995,-5.5995,-5.5995,-5.6012,-5.6012,-5.6012,-5.5995,-5.6012,-5.5993,-5.5993,-5.5993,-5.601,-5.5993,-5.688,-5.7826,-5.7826,-5.6917,-5.6566,-5.8761,-5.9336,-5.8789,-5.6582,-5.6117,-5.6097,-5.6112,-5.6209,-5.6287,-5.629,-5.6304,-5.6304,-5.6311,-5.6291,-5.6291,-5.6291,-5.6291,-5.6291,-5.6291,-5.6291,-5.6291,-5.6291,-5.6291,-5.6291,-5.6291,-5.6291,-5.6294,-5.6308,-5.6366,-5.6406,-5.6411,-5.6406,-5.6473,-5.661,-5.6598,-5.66,-5.66,-5.6601,-5.66,-4.0719,-4.1266,-4.1237,-4.3503,-4.4785,-4.5881,-4.7404,-4.9068,-5.0459,-5.1167,-5.1769,-5.1556,-4.941,-4.9325,-5.0627,-5.3861,-5.4454,-5.4514,-5.4631,-5.4553,-5.4922,-5.6129,-5.6269,-5.7538,-6.0774,-6.1107,-6.0621,-5.9472,-5.9396,-5.9901,-6.1026,-5.7858,-5.6008,-5.5995,-5.5995,-5.5995,-5.5995,-5.6003,-5.6,-5.6012,-5.6012,-5.6012,-5.6012,-5.6012,-5.6012,-5.6012,-5.6012,-5.6012,-5.6012,-5.6014,-5.6093,-5.6248,-5.6267,-5.6267,-5.6267,-5.6267,-5.6267,-5.6267,-5.6246,-5.6147,-5.5995,-5.5996,-5.6112,-5.6248,-5.6267,-5.6267,-5.6267,-5.6267,-5.8604,-6.1095,-6.1095,-5.8678,-5.622,-5.6046,-5.6156,-5.63,-5.63,-5.6296,-5.6291,-5.6296,-5.6296,-5.629,-5.6311,-5.6291,-5.6291,-5.6291,-5.6291,-5.6291,-5.6291,-5.6291,-5.6291,-5.6291,-5.6291,-5.6291,-5.6291,-5.6304,-5.6304,-5.6304,-5.6285,-5.6297,-5.6297,-5.648,-5.6595,-5.6591,-5.6599,-5.6601,-5.6601,-5.6605,-5.6606,-5.6606,-5.6592,-5.6601,-4.2821,-4.4153,-4.4952,-4.4952,-4.6559,-4.8263,-4.8673,-4.915,-4.9361,-4.8983,-4.7693,-4.6657,-4.6677,-4.8793,-5.14,-5.3991,-5.5058,-5.6167,-5.7832,-5.6638,-5.6635,-5.9469,-5.9796,-6.0131,-6.102,-6.1095,-6.098,-6.0671,-6.0654,-6.0772,-6.1069,-5.7867,-5.5981,-5.6001,-5.6001,-5.6001,-5.6001,-5.6,-5.5998,-5.6012,-5.6012,-5.6012,-5.6012,-5.5995,-5.6014,-5.6014,-5.5996,-5.5996,-5.5996,-5.5996,-5.7503,-5.98,-5.98,-5.98,-5.98,-5.98,-5.98,-5.98,-5.98,-5.812,-5.5996,-5.6016,-5.7733,-5.98,-5.98,-5.98,-5.9802,-5.9802,-6.0421,-6.1097,-6.1092,-6.0433,-5.9191,-5.6796,-5.6267,-5.6301,-5.629,-5.6304,-5.6304,-5.6298,-5.6298,-5.6298,-5.6291,-5.6311,-5.6311,-5.6311,-5.6311,-5.6311,-5.6291,-5.6291,-5.6291,-5.6291,-5.6291,-5.6291,-5.6291,-5.6308,-5.6291,-5.6291,-5.6293,-5.6299,-5.6298,-5.6495,-5.66,-5.6593,-5.6605,-5.6602,-5.6602,-5.6602,-5.6592,-5.6592,-5.6595,-5.6563,-4.4575,-4.5528,-4.603,-4.629,-4.7731,-4.8911,-4.8226,-4.8465,-4.8176,-4.5965,-4.5694,-4.5564,-4.4536,-4.3063,-4.486,-5.3665,-5.5596,-5.6416,-5.7678,-5.8069,-5.8941,-6.0864,-6.1099,-6.1098,-6.1098,-6.1099,-6.1099,-6.1099,-6.1117,-6.1094,-6.1097,-5.7853,-5.5996,-5.6012,-5.6012,-5.6012,-5.6012,-5.6012,-5.6012,-5.5995,-5.5995,-5.5995,-5.6014,-5.5996,-5.6826,-5.8236,-5.8236,-5.8236,-5.8236,-5.8237,-5.9358,-6.1097,-6.1097,-6.1116,-6.1116,-6.1116,-6.1116,-6.1116,-6.1116,-5.9841,-5.8237,-5.8237,-5.955,-6.1097,-6.1097,-6.1097,-6.1095,-6.1098,-6.1115,-6.1111,-6.1109,-6.004,-5.8541,-5.6728,-5.631,-5.6304,-5.6311,-5.6291,-5.6291,-5.6291,-5.6291,-5.6291,-5.6311,-5.6311,-5.6816,-5.8311,-5.8538,-5.8001,-5.6492,-5.6298,-5.6311,-5.6298,-5.6298,-5.6298,-5.6311,-5.6294,-5.6328,-5.6436,-5.6426,-5.6432,-5.6434,-5.6543,-5.6599,-5.6605,-5.6598,-5.6606,-5.6606,-5.6601,-5.6575,-5.6556,-5.6556,-5.6542,-4.5881,-4.5992,-4.5807,-4.733,-4.8677,-4.9127,-4.7271,-4.7437,-4.6795,-4.2572,-4.3656,-4.4526,-4.1764,-3.5789,-3.6702,-5.3298,-5.5996,-5.616,-5.6598,-5.9223,-6.1111,-6.1099,-6.1099,-6.1099,-6.1099,-6.1099,-6.1099,-6.1099,-6.1099,-6.1098,-6.1115,-5.7851,-5.5996,-5.6012,-5.6012,-5.6012,-5.6012,-5.6012,-5.5995,-5.6016,-5.6459,-5.6691,-5.6673,-5.6673,-5.8294,-6.1115,-6.1115,-6.1097,-6.1097,-6.1116,-6.1098,-6.1098,-6.1099,-6.1099,-6.1099,-6.1099,-6.1099,-6.1099,-6.1099,-6.1099,-6.1099,-6.1098,-6.1098,-6.1098,-6.1099,-6.1116,-6.1115,-6.1117,-6.1131,-6.0987,-6.0566,-5.8389,-5.6301,-5.6301,-5.6304,-5.6291,-5.6291,-5.6291,-5.6291,-5.6291,-5.6291,-5.6311,-5.6298,-5.6667,-5.7981,-6.0961,-6.1408,-6.0326,-5.7352,-5.6977,-5.6977,-5.6983,-5.6983,-5.6977,-5.6991,-5.6563,-5.6576,-5.7204,-5.7235,-5.7019,-5.6586,-5.6563,-5.6579,-5.66,-5.6593,-5.6595,-5.6581,-5.6601,-5.6556,-5.6511,-5.6491,-5.6496,-4.6197,-4.6401,-4.6545,-4.7541,-5.0045,-5.132,-4.7832,-4.6665,-4.484,-3.9661,-3.6293,-3.4364,-3.4665,-3.4788,-3.9483,-5.3688,-5.6013,-5.6994,-5.9816,-6.0747,-6.1098,-6.1099,-6.1099,-6.1099,-6.1099,-6.1099,-6.1099,-6.1099,-6.1099,-6.1099,-6.1116,-5.7851,-5.5996,-5.6012,-5.6012,-5.6012,-5.6012,-5.5995,-5.5996,-5.6035,-5.8854,-6.0226,-6.0226,-6.0227,-6.0537,-6.1116,-6.1098,-6.1099,-6.1099,-6.1099,-6.1099,-6.1099,-6.1099,-6.1099,-6.1099,-6.1099,-6.1099,-6.1099,-6.1099,-6.1098,-6.1115,-6.1098,-6.1099,-6.1099,-6.1099,-6.1116,-6.1133,-6.1287,-6.1242,-6.0499,-5.7823,-5.6713,-5.6301,-5.6304,-5.6311,-5.6291,-5.6291,-5.6291,-5.6291,-5.6311,-5.6298,-5.6298,-5.6304,-5.8642,-6.0714,-6.1297,-6.1394,-6.12,-6.0604,-6.052,-6.052,-6.052,-6.052,-6.052,-6.052,-5.7912,-5.7517,-6.0395,-6.0567,-5.9292,-5.6478,-5.6344,-5.6424,-5.6601,-5.6543,-5.6523,-5.6521,-5.6518,-5.6507,-5.6499,-5.6509,-5.6498,-4.5244,-4.5858,-4.6936,-4.8692,-5.0714,-5.105,-4.6342,-4.4335,-4.1535,-3.4773,-3.1176,-2.9242,-2.9148,-3.5629,-4.1928,-4.4944,-4.8382,-5.1254,-5.2904,-5.7731,-6.1097,-6.1099,-6.1099,-6.1099,-6.1099,-6.1099,-6.1099,-6.1099,-6.1099,-6.1099,-6.1098,-5.7851,-5.5996,-5.5996,-5.5995,-5.5995,-5.6014,-5.5996,-5.6885,-5.8681,-6.0305,-6.1097,-6.1098,-6.1098,-6.1098,-6.1117,-6.1099,-6.1099,-6.1099,-6.1099,-6.1099,-6.1099,-6.1099,-6.1099,-6.1099,-6.1099,-6.1098,-6.1097,-6.1097,-6.1113,-6.1128,-6.1227,-6.1191,-6.1094,-6.1094,-6.1109,-6.1142,-6.1339,-6.0049,-5.8256,-5.6708,-5.6296,-5.6304,-5.6311,-5.6291,-5.6291,-5.6311,-5.6311,-5.6298,-5.6298,-5.7748,-5.8952,-5.8952,-6.0312,-6.1394,-6.14,-6.14,-6.14,-6.14,-6.14,-6.1394,-6.1394,-6.1394,-6.1408,-6.1389,-5.99,-5.966,-6.1292,-6.1504,-6.0821,-5.9178,-5.9113,-5.9163,-5.9251,-5.9216,-5.9218,-5.9197,-5.7418,-5.6549,-5.6558,-5.6513,-5.6499,-4.4451,-4.5425,-4.7062,-4.9266,-5.0833,-5.0291,-4.444,-4.2017,-3.8783,-3.0914,-2.7987,-2.6646,-2.5976,-3.47,-4.0361,-3.5411,-3.9681,-4.4635,-4.7584,-5.5567,-6.1097,-6.1099,-6.1098,-6.0808,-6.0074,-6.0654,-6.1098,-6.1099,-6.1099,-6.1099,-6.1098,-5.8546,-5.675,-5.6017,-5.671,-5.7077,-5.7097,-5.7097,-5.8449,-6.1097,-6.1098,-6.1098,-6.1099,-6.1099,-6.1099,-6.1099,-6.1099,-6.1099,-6.1099,-6.1099,-6.1098,-6.1098,-6.1098,-6.1097,-6.1097,-6.1097,-6.1095,-6.1111,-6.115,-6.1148,-6.1197,-6.1352,-6.1294,-6.1162,-6.1162,-6.1155,-6.1031,-6.0476,-5.8372,-5.6298,-5.6296,-5.6304,-5.6291,-5.6291,-5.6291,-5.6311,-5.6298,-5.6894,-5.7399,-5.7385,-5.9555,-6.1408,-6.1394,-6.1394,-6.1414,-6.14,-6.14,-6.14,-6.14,-6.14,-6.14,-6.1394,-6.1394,-6.1402,-6.1398,-6.1437,-6.145,-6.147,-6.1606,-6.1693,-6.1701,-6.1699,-6.171,-6.1694,-6.1692,-6.1699,-6.1697,-5.9,-5.7684,-5.768,-5.6864,-5.651,-4.4892,-4.5935,-4.688,-4.8028,-5.024,-5.0289,-4.3137,-4.0922,-3.8278,-3.0829,-2.7368,-2.5931,-2.6872,-2.8463,-2.9941,-3.0902,-3.4202,-4.0933,-5.3329,-5.8548,-6.1106,-6.1098,-6.1098,-5.988,-5.6772,-5.9282,-6.1098,-6.1099,-6.1099,-6.1099,-6.1098,-6.0788,-5.9203,-5.6094,-5.9008,-6.0631,-6.0631,-6.0631,-6.0786,-6.1115,-6.1097,-6.1098,-6.1099,-6.1099,-6.1099,-6.1099,-6.1099,-6.1099,-6.1099,-6.1097,-6.1095,-6.1113,-6.109,-6.1087,-6.1087,-6.1087,-6.1087,-6.1142,-6.1317,-6.1352,-6.138,-6.1399,-6.1388,-6.1355,-6.1372,-6.1384,-6.072,-5.764,-5.6543,-5.6298,-5.6311,-5.6311,-5.6291,-5.6291,-5.6311,-5.6298,-5.6298,-5.8752,-6.0928,-6.0928,-6.1181,-6.1394,-6.14,-6.14,-6.14,-6.14,-6.14,-6.14,-6.14,-6.14,-6.1408,-6.1414,-6.1394,-6.1394,-6.1406,-6.1567,-6.1664,-6.1666,-6.1693,-6.1706,-6.1691,-6.1696,-6.1696,-6.1701,-6.1709,-6.1698,-6.1698,-6.1385,-6.123,-6.1143,-5.7988,-5.6539,-4.2987,-4.5067,-4.7116,-4.8097,-4.9248,-4.8637,-4.2814,-3.9672,-3.62,-2.9825,-2.6904,-2.563,-2.6099,-2.7177,-2.7911,-2.7574,-3.2119,-3.831,-4.58,-5.5079,-6.1103,-6.1113,-6.1095,-5.9761,-5.6346,-5.9087,-6.1116,-6.1099,-6.1099,-6.1099,-6.1099,-6.1098,-6.0479,-5.9108,-6.04,-6.011,-5.8044,-5.8025,-5.8025,-5.8063,-6.0112,-6.1099,-6.1099,-6.1099,-6.1098,-6.1097,-6.1097,-6.1095,-6.1111,-6.1109,-6.1167,-6.1281,-6.1278,-6.1278,-6.1278,-6.1278,-6.1275,-6.1291,-6.1368,-6.1399,-6.1391,-6.1391,-6.141,-6.1395,-6.141,-5.9973,-5.8037,-5.6678,-5.6304,-5.6298,-5.6311,-5.6298,-5.6298,-5.6298,-5.6298,-5.6861,-5.8933,-6.0442,-6.1394,-6.14,-6.14,-6.14,-6.14,-6.14,-6.14,-6.14,-6.14,-6.1394,-6.1396,-6.1408,-6.1414,-6.1392,-6.1409,-6.1448,-6.1578,-6.1642,-6.1705,-6.1699,-6.1705,-6.171,-6.1701,-6.1701,-6.1701,-6.1701,-6.1694,-6.1681,-6.1642,-6.1642,-6.1653,-6.168,-6.0272,-5.8534,-4.1875,-4.4465,-4.6996,-4.8428,-4.8624,-4.7213,-4.2546,-3.878,-3.4687,-2.9148,-2.6671,-2.5561,-2.5815,-2.6904,-2.7437,-2.642,-3.1553,-3.6551,-3.8942,-4.8406,-5.5843,-5.7863,-5.9874,-5.9777,-5.6325,-5.9087,-6.1098,-6.1099,-6.1099,-6.1099,-6.1099,-6.1117,-6.1098,-6.1099,-6.1097,-5.9453,-5.6018,-5.5998,-5.65,-5.7543,-5.9957,-6.1098,-6.1099,-6.1098,-6.1097,-6.1113,-6.1169,-6.1186,-6.1181,-6.1197,-6.1275,-6.1391,-6.1388,-6.1388,-6.1388,-6.1388,-6.1399,-6.1395,-6.1395,-6.1391,-6.14,-6.1386,-6.1386,-6.14,-6.14,-5.9016,-5.6304,-5.6304,-5.7036,-5.7806,-5.7806,-5.7812,-5.7812,-5.7812,-5.7812,-5.8473,-6.0889,-6.1394,-6.14,-6.14,-6.14,-6.14,-6.14,-6.14,-6.14,-6.14,-6.1394,-6.1402,-6.1394,-6.1456,-6.1489,-6.1489,-6.1481,-6.1549,-6.1693,-6.1706,-6.1699,-6.1696,-6.1701,-6.1701,-6.1701,-6.1701,-6.1701,-6.1701,-6.169,-6.1674,-6.1635,-6.1635,-6.1648,-6.1699,-6.1698,-5.9863,-4.2259,-4.4476,-4.6248,-4.8821,-4.8545,-4.6492,-4.2172,-3.8354,-3.4234,-2.907,-2.6671,-2.5743,-2.6547,-2.6981,-2.7379,-2.7884,-3.2319,-3.5712,-3.5746,-3.8801,-4.3505,-5.0207,-5.6975,-5.9758,-5.6343,-5.9088,-6.1099,-6.1099,-6.1099,-6.1099,-6.1099,-6.1099,-6.1099,-6.1099,-6.1097,-5.9453,-5.6017,-5.5995,-5.7693,-6.1055,-6.1076,-6.1097,-6.1098,-6.1095,-6.1113,-6.1113,-6.132,-6.1394,-6.1394,-6.1403,-6.1399,-6.1399,-6.1405,-6.14,-6.14,-6.14,-6.14,-6.14,-6.14,-6.14,-6.14,-6.1405,-6.1405,-6.1405,-6.1405,-5.9003,-5.631,-5.6296,-5.8731,-6.1356,-6.135,-6.1336,-6.1356,-6.135,-6.1356,-6.1361,-6.1394,-6.14,-6.14,-6.14,-6.14,-6.14,-6.14,-6.14,-6.14,-6.14,-6.1396,-6.1406,-6.1406,-6.1578,-6.1703,-6.1712,-6.1693,-6.1693,-6.1693,-6.1705,-6.1701,-6.1701,-6.1701,-6.1701,-6.1701,-6.1701,-6.1701,-6.1701,-6.1709,-6.1697,-6.1697,-6.1697,-6.1699,-6.1709,-6.1699,-5.9822,-3.7927,-4.025,-4.2104,-4.2333,-4.1777,-4.0361,-3.7266,-3.4311,-3.1236,-2.7832,-2.6246,-2.5588,-2.584,-2.5975,-2.7368,-3.1439,-3.2164,-3.3029,-3.5366,-4.2642,-4.9363,-5.3865,-5.2177,-5.297,-5.8913,-6.0459,-6.1098,-6.1099,-6.1099,-6.1099,-6.1099,-6.1099,-6.1099,-6.1099,-6.1097,-5.9453,-5.6017,-5.5996,-5.6534,-5.7613,-5.7615,-5.885,-6.1109,-6.109,-6.1181,-6.1294,-6.1368,-6.1399,-6.1395,-6.1391,-6.1391,-6.1405,-6.1386,-6.14,-6.14,-6.1405,-6.1405,-6.1405,-6.1405,-6.1405,-6.1405,-6.1391,-6.2993,-6.4892,-6.4877,-6.4134,-6.3279,-6.3279,-6.2371,-6.14,-6.1386,-6.1405,-6.2002,-6.4342,-6.309,-6.1405,-6.1386,-6.1386,-6.1405,-6.14,-6.14,-6.14,-6.14,-6.1386,-6.1414,-6.1408,-6.1401,-6.1448,-6.1586,-6.1662,-6.1712,-6.1705,-6.1705,-6.1705,-6.1705,-6.1696,-6.1701,-6.1701,-6.1701,-6.1701,-6.1701,-6.1701,-6.1701,-6.1701,-6.169,-6.1697,-6.1697,-6.1697,-6.1676,-6.1573,-5.9235,-5.7555,-3.5181,-3.7362,-3.9021,-3.9712,-3.8497,-3.6678,-3.5097,-3.2074,-2.905,-2.7089,-2.6064,-2.5511,-2.5511,-2.5762,-2.7445,-3.1981,-3.3141,-3.4881,-3.8936,-4.7201,-5.4091,-5.7528,-5.416,-5.4088,-6.0478,-6.1097,-6.1098,-6.1099,-6.1098,-6.1098,-6.1098,-6.1115,-6.1095,-6.1095,-6.1094,-5.9469,-5.6033,-5.601,-5.5988,-5.602,-5.7376,-5.9152,-6.1217,-6.1197,-6.1271,-6.1399,-6.1395,-6.1391,0.0,-6.14,-6.14,-6.14,-6.14,-6.14,-6.1386,-6.1405,-6.2221,-6.3323,-6.3323,-6.3323,-6.3323,-6.3308,-6.476,-6.6504,-6.6504,-6.6504,-6.65,-6.65,-6.4969,-6.3323,-6.3323,-6.3308,-6.3867,-6.5994,-6.4872,-6.3308,-6.3323,-6.2298,-6.1405,-6.1405,-6.1405,-6.14,-6.1408,-6.1389,-6.1856,-6.3133,-6.3389,-6.301,-6.1861,-6.1706,-6.1699,-6.1696,-6.1701,-6.1701,-6.1701,-6.1701,-6.1701,-6.1701,-6.1701,-6.1701,-6.1701,-6.1701,-6.1701,-6.1701,-6.1701,-6.1701,-6.1701,-6.1704,-6.1679,-6.1592,-5.9425,-5.7732,0.0,-3.5239,-3.6517,-3.9508,-3.75,-3.4769,-3.4697,-3.1168,0.0,-2.6779,-2.6025,-2.5569,-2.5743,-2.6373,-2.7785,-3.052,-3.4933,-3.976,-4.4744,-5.1127,-5.6723,-6.0635,-6.1109,-6.1095,-6.1095,-6.1098,-6.1099,-6.1099,-6.1097,-6.1113,-6.1113,-6.1126,-6.1023,-6.0771,-6.0757,-5.9213,-5.6062,-5.6013,-5.6024,-5.6063,-5.9429,-6.1171,-6.1403,-6.1399,-6.1399,-6.1399,-6.1405,-6.14,-6.14,-6.14,-6.14,-6.14,-6.14,-6.1405,-6.1425,-6.1677,-6.377,-6.65,-6.65,-6.65,-6.65,-6.6504,-6.6489,-6.6508,-6.6508,-6.6508,-6.6489,-6.6485,-6.6504,-6.6504,-6.65,-6.6504,-6.6504,-6.65,-6.6504,-6.6504,-6.65,-6.4003,-6.1755,-6.1755,-6.1769,-6.17,-6.144,-6.162,-6.2861,-6.605,-6.6475,-6.5386,-6.2434,-6.2056,-6.1974,-6.174,-6.1701,-6.1701,-6.1701,-6.1701,-6.1701,-6.1701,-6.1701,-6.1701,-6.1701,-6.1701,-6.1701,-6.1701,-6.1701,-6.1701,-6.1701,-6.1699,-6.1692,-6.1692,-6.1381,-5.9533,-2.8242,0.0,-3.0967,-3.1091,-3.0411,-2.9535,0.0,-2.7835,-2.6768,-2.5956,-2.5627,-2.6111,-2.8045,-2.8567,-2.9959,-3.3866,-3.5499,-3.7614,-4.1448,-4.5563,-5.1409,-6.0067,-6.1094,-6.1115,-6.1099,-6.1099,-6.1098,-6.1115,-6.1094,-6.1167,-6.1317,-6.1333,-6.0131,-5.7502,-5.7435,-5.7033,-5.6246,-5.6222,-5.6233,-5.6228,-5.7082,-5.8877,-6.14,-6.1405,-6.1405,-6.1405,-6.1386,-6.14,-6.14,-6.1405,-6.1405,-6.1405,-6.1405,-6.1391,-6.1735,-6.4352,-6.5824,-6.6504,-6.6504,-6.6489,-6.6489,-6.6489,-6.6489,-6.6489,-6.6508,-6.6508,-6.6508,-6.6489,-6.6489,-6.6489,-6.6489,-6.6489,-6.6489,-6.6489,-6.6489,-6.6489,-6.6504,-6.5867,-6.5304,-6.5304,-6.5314,-6.446,-6.185,-6.3691,-6.5806,-6.6611,-6.4533,-6.3553,-6.5379,-6.5604,-6.4589,-6.1974,-6.1701,-6.1701,-6.1701,-6.1701,-6.1701,-6.1701,-6.1701,-6.1701,-6.1701,-6.1701,-6.1701,-6.1701,-6.1701,-6.1701,-6.1701,-6.1697,-6.1677,-6.1555,-5.8922,-5.7278,-2.6033,-2.7696,-2.9282,-2.9205,-2.8896,-2.847,-2.8006,-2.7,-2.6025,-2.5588,-2.5511,-2.6033,-2.7774,-2.9399,-3.1855,-3.6149,-3.6648,-3.8028,-4.2472,-4.4662,-4.9633,-6.0009,-6.2525,-6.2816,-6.125,-6.1095,-6.1094,-6.1109,-6.12,-6.0596,-5.9142,-5.9056,-5.8217,-5.6359,-5.6296,-5.6296,-5.6291,-5.6301,-5.6296,-5.629,-5.6296,-5.809,-6.1394,-6.14,-6.14,-6.1386,-6.1386,-6.1405,-6.1405,-6.1405,-6.2318,-6.3731,-6.3731,-6.375,-6.3949,-6.5809,-6.6489,-6.6489,-6.6508,-6.6508,-6.6237,-6.4668,-6.5211,-6.6504,-6.6508,-6.6489,-6.6489,-6.6508,-6.6508,-6.6508,-6.6508,-6.6508,-6.6508,-6.6508,-6.6508,-6.6504,-6.6495,-6.6497,-6.6536,-6.663,-6.6643,-6.605,-6.4207,-6.5502,-6.6806,-6.6805,-6.5224,-6.4704,-6.6561,-6.6795,-6.5487,-6.2071,-6.1701,-6.1701,-6.1701,-6.1701,-6.1701,-6.1701,-6.1701,-6.1701,-6.1701,-6.1701,-6.1701,-6.1701,-6.1701,-6.1701,-6.1701,-6.0135,-5.9331,-5.9257,-5.7382,-5.6517,-2.5975,-2.7948,-2.9921,-3.0153,-2.9747,-2.9302,-2.9302,-2.7522,-2.5878,-2.5878,-2.5994,-2.6575,-2.8152,-3.0926,-3.4389,-3.8682,-3.8779,-4.0172,-4.5452,-4.7314,-5.1614,-6.1026,-6.4125,-6.4321,-6.1433,-6.1142,-6.1158,-6.1139,-6.0821,-5.9362,-5.6456,-5.6304,-5.6298,-5.6298,-5.6311,-5.6298,-5.631,-5.6298,-5.6311,-5.6298,-5.6841,-5.8589,-6.1394,-6.14,-6.1386,-6.1425,-6.1949,-6.2182,-6.2182,-6.2182,-6.3886,-6.65,-6.65,-6.6504,-6.6504,-6.6504,-6.6489,-6.6508,-6.6508,-6.6508,-6.6023,-6.3119,-6.4143,-6.6407,-6.5887,-6.6081,-6.6504,-6.6489,-6.6508,-6.6508,-6.6508,-6.6508,-6.6508,-6.6508,-6.6504,-6.65,-6.6491,-6.6516,-6.661,-6.677,-6.679,-6.6798,-6.681,-6.6798,-6.6805,-6.6795,-6.6795,-6.6795,-6.6795,-6.6795,-6.5682,-6.2794,-6.2013,-6.1701,-6.1701,-6.1701,-6.1701,-6.1701,-6.1701,-6.1701,-6.1701,-6.1701,-6.1701,-6.1701,-6.1701,-6.1701,-6.1681,-5.827,-5.687,-5.7379,-5.7324,-5.7324,-2.8122,-3.0578,-3.1855,-2.9089,-2.8838,-2.9302,-2.9302,-2.8431,-2.7619,-2.7619,-2.8199,-3.0308,-3.5491,-3.7464,-3.9719,-4.4021,-4.3453,-4.3775,-4.7475,-5.4211,-6.0425,-6.4928,-6.3495,-6.1931,-6.1397,-6.1355,-6.1349,-6.1341,-5.8687,-5.6859,-5.6323,-5.6298,-5.6291,-5.6291,-5.6291,-5.6291,-5.6311,-5.6291,-5.6291,-5.633,-5.9238,-6.0889,-6.1408,-6.14,-6.1405,-6.156,-6.4464,-6.5722,-6.5708,-6.5727,-6.6023,-6.6504,-6.6489,-6.6489,-6.6508,-6.6508,-6.6508,-6.6508,-6.6508,-6.6504,-6.6407,-6.5887,-6.6077,-6.596,-6.3056,-6.4216,-6.6504,-6.6504,-6.6489,-6.6508,-6.6508,-6.6508,-6.6508,-6.6508,-6.6495,-6.6491,-6.6504,-6.6624,-6.6767,-6.6795,-6.6805,-6.6804,-6.6809,-6.6809,-6.679,-6.6795,-6.6795,-6.6795,-6.6795,-6.68,-6.6605,-6.6078,-6.3438,-6.1701,-6.1701,-6.1701,-6.1701,-6.1701,-6.1701,-6.1701,-6.1701,-6.1701,-6.1701,-6.1701,-6.1701,-6.1701,-6.1681,-5.8269,-5.8089,-6.0914,-6.0903,-6.0913,-2.6947,-2.9107,-3.1226,-3.1971,-3.3857,-3.551,-3.551,-3.5201,-3.4253,-3.1932,-3.2493,-3.4399,-3.7652,-4.0091,-4.3582,-4.9569,-5.0408,-5.0874,-5.2438,-5.764,-6.1846,-6.3414,-6.2292,-6.1384,-6.1399,-6.1395,-6.0633,-5.8789,-5.7183,-5.6304,-5.6311,-5.6291,-5.6291,-5.6311,-5.6311,-5.6298,-5.6304,-5.6304,-5.6298,-5.633,-5.789,-5.9613,-6.1414,-6.1405,-6.2415,-6.4236,-6.5824,-6.6504,-6.6504,-6.6489,-6.6489,-6.6489,-6.6508,-6.6508,-6.6508,-6.6508,-6.6508,-6.6508,-6.6508,-6.6489,-6.6213,-6.4337,-6.3735,-6.3809,-6.408,-6.3949,-6.3735,-6.3735,-6.5056,-6.6489,-6.6508,-6.6508,-6.6504,-6.6509,-6.6497,-6.6528,-6.6643,-6.6739,-6.681,-6.6792,-6.6804,-6.6795,-6.6795,-6.6795,-6.6795,-6.6795,-6.6795,-6.6795,-6.6795,-6.6795,-6.6092,-6.4238,-6.2637,-6.1701,-6.1701,-6.1701,-6.1701,-6.1701,-6.1701,-6.1701,-6.1701,-6.1701,-6.1701,-6.1701,-6.1701,-6.1701,-6.1701,-6.0119,-6.0167,-6.1701,-6.1709,-6.1697,-2.6304,-2.8244,-3.1167,-3.5271,-3.7661,-3.9475,-4.1274,-4.0906,-3.9495,-3.7,-3.7669,-3.9112,-4.0432,-4.331,-4.7482,-5.3585,-5.5525,-5.6384,-5.6825,-5.9502,-6.1403,-6.1395,-6.1415,-6.1395,-6.1394,-6.0676,-5.9108,-5.6492,-5.6298,-5.6311,-5.6291,-5.6311,-5.6298,-5.6298,-5.7088,-5.7482,-5.7488,-5.8298,-5.789,-5.6304,-5.629,-5.8517,-6.2585,-6.259,-6.4007,-6.6504,-6.6489,-6.6489,-6.6508,-6.6508,-6.6508,-6.6508,-6.6508,-6.6508,-6.6508,-6.6508,-6.6508,-6.6508,-6.6508,-6.6508,-6.6081,-6.3449,-6.2594,-6.2939,-6.476,-6.3483,-6.1565,-6.2381,-6.4469,-6.65,-6.6489,-6.6504,-6.6495,-6.6491,-6.6548,-6.6613,-6.6767,-6.6791,-6.6805,-6.679,-6.6795,-6.6795,-6.6795,-6.6795,-6.6795,-6.6795,-6.6795,-6.6795,-6.6795,-6.6795,-6.5487,-6.2071,-6.1701,-6.1701,-6.1701,-6.1701,-6.1701,-6.1701,-6.1701,-6.1701,-6.1701,-6.1701,-6.1701,-6.1701,-6.1701,-6.1701,-6.1701,-6.1701,-6.1291,-6.051,-6.051,-6.051,-2.8601,-3.0877,-3.3674,-3.7228,-3.5871,-3.5519,-4.2705,-4.1255,-3.9204,-4.2067,-4.3389,-4.4789,-4.7226,-4.9857,-5.2355,-5.4516,-5.5663,-5.6835,-5.8395,-6.0215,-6.1414,-6.1394,-6.1394,-6.1394,-6.1408,-5.8525,-5.655,-5.6317,-5.6298,-5.6298,-5.6298,-5.6284,-5.6304,-5.629,-5.938,-6.1025,-6.1017,-6.4181,-6.2593,-5.6315,-5.6301,-5.976,-6.613,-6.6135,-6.6271,-6.6504,-6.6489,-6.6508,-6.6508,-6.6508,-6.6508,-6.6508,-6.6508,-6.6508,-6.6508,-6.6508,-6.6508,-6.6508,-6.6508,-6.6489,-6.6465,-6.6198,-6.612,-6.5596,-6.2648,-6.1604,-6.2055,-6.5246,-6.6314,-6.651,-6.6485,-6.6509,-6.6504,-6.6504,-6.6634,-6.6775,-6.6803,-6.6792,-6.6795,-6.6795,-6.6795,-6.6795,-6.6795,-6.6795,-6.6795,-6.6795,-6.6795,-6.6795,-6.6795,-6.68,-6.5492,-6.2071,-6.1701,-6.1701,-6.1701,-6.1701,-6.1701,-6.1701,-6.1701,-6.1701,-6.1701,-6.1701,-6.1701,-6.1701,-6.1701,-6.1701,-6.1701,-6.1701,-6.0061,-5.6972,-5.6972,-5.6972,-2.6791,-3.0361,-3.4497,-3.6889,-3.7699,-3.934,-4.4943,-4.6994,-4.7482,-4.6631,-4.7589,-4.8889,-4.9899,-5.1334,-5.2408,-5.2576,-5.556,-5.8454,-6.019,-6.0973,-6.1414,-6.1394,-5.9516,-5.822,-5.8234,-5.7068,-5.6298,-5.6298,-5.6298,-5.7224,-5.9354,-5.9471,-5.9477,-5.9483,-6.2793,-6.3551,-6.1429,-6.4794,-6.5202,-6.2633,-6.2648,-6.4003,-6.65,-6.6504,-6.6489,-6.6489,-6.6508,-6.6508,-6.6508,-6.6508,-6.6508,-6.6508,-6.6508,-6.6508,-6.6508,-6.6508,-6.6508,-6.6508,-6.6508,-6.6508,-6.6489,-6.6489,-6.6489,-6.6271,-6.4955,-6.4571,-6.4838,-6.6153,-6.6491,-6.6504,-6.6497,-6.6497,-6.6535,-6.6663,-6.6739,-6.6791,-6.6792,-6.6809,-6.6795,-6.6795,-6.6795,-6.6795,-6.6795,-6.6795,-6.6795,-6.6795,-6.6795,-6.6795,-6.6795,-6.4941,-6.3125,-6.1837,-6.1701,-6.1701,-6.1701,-6.1701,-6.1701,-6.1701,-6.1701,-6.1701,-6.1701,-6.1701,-6.1701,-6.1701,-6.1701,-6.1701,-6.1701,-5.9573,-5.7851,-5.6602,-5.6602,-5.7738,-2.7205,-3.0873,-3.5311,-3.7316,-3.9317,-4.206,-4.6933,-4.9422,-5.048,-4.978,-5.0797,-5.1687,-5.1224,-5.1605,-5.1935,-5.1755,-5.345,-5.6311,-6.0773,-6.0468,-6.0196,-6.1272,-5.8376,-5.6304,-5.6298,-5.6298,-5.6298,-5.6298,-5.7288,-5.8933,-6.1278,-6.1394,-6.14,-6.1405,-6.4731,-6.5377,-6.3041,-6.5343,-6.6489,-6.6508,-6.6504,-6.6504,-6.6504,-6.6489,-6.6508,-6.6508,-6.6508,-6.6508,-6.6508,-6.6508,-6.6508,-6.6508,-6.6508,-6.6508,-6.6508,-6.6508,-6.6508,-6.6508,-6.6489,-6.6508,-6.6508,-6.6489,-6.6489,-6.6489,-6.6489,-6.65,-6.6509,-6.6504,-6.656,-6.6583,-6.6583,-6.6595,-6.6624,-6.6775,-6.6791,-6.6811,-6.679,-6.6795,-6.6795,-6.6795,-6.6795,-6.6795,-6.6795,-6.6795,-6.6795,-6.6795,-6.6795,-6.6795,-6.6795,-6.4765,-6.2891,-6.1818,-6.1701,-6.1701,-6.1701,-6.1701,-6.1701,-6.1701,-6.1701,-6.1701,-6.1701,-6.1701,-6.1701,-6.1701,-6.1701,-6.1701,-6.1681,-5.9358,-5.7656,-5.6602,-5.6606,-5.7855,-3.0843,-3.3111,-3.6358,-3.8937,-4.0242,-4.2453,-4.8412,-4.712,-4.6104,-5.1223,-5.2971,-5.3092,-5.1501,-5.1146,-5.149,-5.2731,-4.9033,-4.9595,-5.9904,-5.8434,-5.7579,-6.0994,-5.837,-5.6304,-5.6298,-5.6317,-5.6356,-5.6348,-5.9516,-6.1433,-6.1405,-6.1425,-6.1449,-6.1453,-6.4721,-6.6504,-6.6508,-6.6489,-6.6489,-6.6508,-6.6508,-6.6508,-6.6508,-6.6508,-6.6508,-6.6508,-6.6508,-6.6508,-6.6508,-6.6508,-6.6508,-6.6508,-6.6508,-6.6508,-6.6508,-6.6508,-6.6508,-6.6508,-6.6489,-6.647,-6.647,-6.6489,-6.6489,-6.6508,-6.6508,-6.6509,-6.6504,-6.6504,-6.6653,-6.6803,-6.6803,-6.6803,-6.6803,-6.6803,-6.6792,-6.6795,-6.6795,-6.6795,-6.6795,-6.6795,-6.6795,-6.6795,-6.6795,-6.6795,-6.6795,-6.6795,-6.6795,-6.6795,-6.6795,-6.6795,-6.5487,-6.2071,-6.1701,-6.1701,-6.1701,-6.1701,-6.1701,-6.1701,-6.1701,-6.1701,-6.1701,-6.1701,-6.1701,-6.1701,-6.1701,-6.1701,-6.1701,-6.1661,-5.9905,-5.6606,-5.6606,-5.6606,-2.9664,-3.4419,-3.9198,-3.8782,-4.2939,-4.7288,-4.7837,-4.8095,-4.8638,-5.022,-5.123,-5.1716,-5.1287,-5.0538,-5.1127,-5.4705,-5.0073,-4.8768,-5.6706,-5.6939,-5.756,-6.0994,-5.837,-5.6304,-5.6304,-5.8486,-5.9898,-5.989,-6.306,-6.3934,-6.1522,-6.3687,-6.4989,-6.4993,-6.5965,-6.6504,-6.6508,-6.6508,-6.6508,-6.6508,-6.6508,-6.6508,-6.6508,-6.6508,-6.6508,-6.6508,-6.6508,-6.6508,-6.6508,-6.6508,-6.6508,-6.6508,-6.6508,-6.6508,-6.6508,-6.6508,-6.6508,-6.6508,-6.6489,-6.492,-6.3313,-6.5712,-6.6495,-6.6497,-6.6497,-6.6497,-6.6535,-6.6673,-6.6748,-6.681,-6.6798,-6.6804,-6.6804,-6.6804,-6.6809,-6.6795,-6.6795,-6.6795,-6.6795,-6.6795,-6.6795,-6.6795,-6.6795,-6.6795,-6.6795,-6.6795,-6.6795,-6.6795,-6.6795,-6.68,-6.5487,-6.2071,-6.1701,-6.1701,-6.1701,-6.1701,-6.1701,-6.1701,-6.1701,-6.1701,-6.1701,-6.1701,-6.1701,-6.1701,-6.1701,-6.1701,-6.1681,-5.93,-5.7601,-5.6606,-5.6606,-5.6606,-3.3552,-3.8317,-4.2962,-4.3291,-4.6092,-4.8658,-4.8322,-4.9013,-4.9755,-4.9795,-5.1037,-5.1935,-5.1326,-5.1754,-5.2666,-5.4052,-5.191,-5.1541,-5.5715,-5.6304,-5.7055,-5.9121,-5.7541,-5.6828,-5.8187,-6.1414,-6.2866,-6.1502,-6.3298,-6.357,-6.1507,-6.4639,-6.65,-6.6489,-6.6489,-6.6489,-6.6508,-6.6508,-6.6508,-6.6508,-6.6508,-6.6508,-6.6508,-6.6508,-6.6508,-6.6508,-6.6508,-6.6508,-6.6508,-6.6508,-6.6508,-6.6508,-6.6508,-6.6508,-6.6508,-6.6508,-6.6508,-6.6508,-6.6489,-6.426,-6.1958,-6.5392,-6.6497,-6.6516,-6.6599,-6.6624,-6.6633,-6.6775,-6.6798,-6.6792,-6.679,-6.6795,-6.6795,-6.6795,-6.6795,-6.6795,-6.6795,-6.6795,-6.6795,-6.6795,-6.6795,-6.6795,-6.6795,-6.6795,-6.6795,-6.6795,-6.6795,-6.6795,-6.6795,-6.68,-6.5492,-6.2071,-6.1701,-6.1701,-6.1701,-6.1701,-6.1701,-6.1701,-6.1701,-6.1701,-6.1701,-6.1701,-6.1701,-6.1701,-6.1701,-6.1701,-6.1686,-5.8265,-5.6602,-5.6606,-5.6606,-5.6606,-3.9636,-4.3042,-4.6671,-4.9931,-4.9142,-4.7973,-4.9563,-4.9976,-4.9982,-4.9827,-5.1773,-5.3009,-5.1482,-5.3734,-5.4919,-5.2124,-5.4265,-5.6291,-5.6298,-5.6284,-5.642,-5.6731,-5.7042,-5.8323,-6.1133,-6.4206,-6.4887,-6.2065,-6.1852,-6.1721,-6.1419,-6.4644,-6.6504,-6.6508,-6.6508,-6.6508,-6.6508,-6.6508,-6.6508,-6.6508,-6.6508,-6.6508,-6.6508,-6.6508,-6.6508,-6.6508,-6.6508,-6.6508,-6.6508,-6.6508,-6.6508,-6.6508,-6.6508,-6.6508,-6.6508,-6.6508,-6.6508,-6.6508,-6.6489,-6.4473,-6.2396,-6.5486,-6.6516,-6.6548,-6.6741,-6.6789,-6.681,-6.681,-6.6792,-6.6795,-6.6795,-6.6795,-6.6795,-6.6795,-6.6795,-6.6795,-6.6795,-6.6795,-6.6795,-6.6795,-6.6795,-6.6795,-6.6795,-6.6795,-6.6795,-6.6795,-6.6795,-6.6795,-6.6795,-6.6527,-6.5141,-6.2032,-6.1701,-6.1701,-6.1701,-6.1701,-6.1701,-6.1701,-6.1701,-6.1701,-6.1701,-6.1701,-6.1701,-6.1701,-6.1388,-6.1237,-6.1237,-5.8128,-5.6606,-5.6606,-5.6606,-5.6606,-3.5363,-4.0325,-4.5479,-4.7598,-4.9248,-5.044,-5.0809,-5.1385,-5.1443,-5.0079,-5.0829,-5.1637,-5.1256,-5.18,-5.2926,-5.49,-5.5825,-5.6291,-5.6291,-5.6298,-5.7308,-5.9976,-6.2657,-6.3551,-6.1599,-6.2065,-6.3304,-6.5261,-6.5411,-6.4231,-6.1546,-6.4644,-6.6504,-6.6508,-6.6508,-6.6508,-6.6508,-6.6508,-6.6508,-6.6508,-6.6508,-6.6508,-6.6508,-6.6508,-6.6508,-6.6508,-6.6508,-6.6508,-6.6508,-6.6508,-6.6508,-6.6508,-6.6508,-6.6508,-6.6508,-6.6508,-6.6508,-6.6508,-6.6489,-6.6028,-6.5525,-6.6251,-6.6613,-6.6739,-6.6787,-6.6798,-6.6804,-6.6804,-6.679,-6.6795,-6.6795,-6.6795,-6.6795,-6.6795,-6.6795,-6.6795,-6.6795,-6.6795,-6.6795,-6.6795,-6.6795,-6.6795,-6.6795,-6.6795,-6.6795,-6.6795,-6.6795,-6.6795,-6.6795,-6.4453,-6.252,-6.1779,-6.1701,-6.1701,-6.1701,-6.1701,-6.1701,-6.1701,-6.1701,-6.1701,-6.1701,-6.1701,-6.1701,-6.1701,-5.9061,-5.7695,-5.7695,-5.6957,-5.6606,-5.6606,-5.6606,-5.6606,-3.644,-4.1073,-4.5462,-4.8444,-5.0192,-5.1202,-5.1202,-5.1532,-5.1715,-5.1353,-5.2123,-5.2491,-5.1399,-5.2537,-5.4239,-5.6019,-5.6291,-5.6311,-5.6311,-5.6304,-5.8187,-6.3235,-6.5411,-6.58,-6.4022,-6.3847,-6.3906,-6.4061,-6.4061,-6.4003,-6.3852,-6.5537,-6.6489,-6.6508,-6.6508,-6.6508,-6.6508,-6.6508,-6.6508,-6.6508,-6.6508,-6.6508,-6.6508,-6.6508,-6.6508,-6.6508,-6.6508,-6.6508,-6.6508,-6.6508,-6.6508,-6.6508,-6.6508,-6.6508,-6.6508,-6.6508,-6.65,-6.6509,-6.6489,-6.6504,-6.6513,-6.6604,-6.6711,-6.6803,-6.6805,-6.6804,-6.6795,-6.6795,-6.6795,-6.6795,-6.6795,-6.6795,-6.6795,-6.6795,-6.6795,-6.6795,-6.6795,-6.6795,-6.6795,-6.6795,-6.6795,-6.6795,-6.6795,-6.6795,-6.6795,-6.6795,-6.6795,-6.6795,-6.6795,-6.3809,-6.1701,-6.1701,-6.1701,-6.1701,-6.1701,-6.1701,-6.1701,-6.1701,-6.1701,-6.1701,-6.1701,-6.1701,-6.1701,-6.1701,-5.9944,-5.8246,-5.6602,-5.6606,-5.6606,-5.6606,-5.6606,-5.6606,-3.712,-4.1568,-4.5647,-5.0095,-5.1202,-5.1202,-5.1202,-5.1346,-5.1715,-5.2453,-5.3365,-5.3618,-5.2311,-5.4395,-5.6291,-5.6291,-5.6311,-5.6524,-5.7107,-5.7178,-5.9507,-6.5761,-6.65,-6.6504,-6.6504,-6.6504,-6.5324,-6.2497,-6.2284,-6.3507,-6.6353,-6.6489,-6.6489,-6.6508,-6.6508,-6.6508,-6.6508,-6.6508,-6.6508,-6.6508,-6.6508,-6.6508,-6.6508,-6.6508,-6.6508,-6.6508,-6.6508,-6.6504,-6.65,-6.6504,-6.6504,-6.65,-6.6504,-6.6504,-6.6504,-6.6504,-6.6503,-6.6497,-6.6536,-6.6544,-6.6576,-6.6756,-6.681,-6.6798,-6.6809,-6.6795,-6.6795,-6.6795,-6.6795,-6.6795,-6.6795,-6.6795,-6.6795,-6.6795,-6.6795,-6.6795,-6.6795,-6.6795,-6.6795,-6.6795,-6.6795,-6.6795,-6.6795,-6.6795,-6.6795,-6.6795,-6.6795,-6.6795,-6.6795,-6.4336,-6.2345,-6.1759,-6.1701,-6.1701,-6.1701,-6.1701,-6.1701,-6.1701,-6.1154,-6.0822,-6.0822,-6.0822,-6.1095,-6.1686,-6.1115,-5.9436,-5.6606,-5.6606,-5.6606,-5.6606,-5.6606,-5.6591,-2.9369,-3.6595,-4.4889,-4.994,-5.1202,-5.1202,-5.1202,-5.196,-5.2433,-5.1586,-5.1535,-5.2466,-5.5133,-5.6,-5.6291,-5.6291,-5.6291,-5.7334,-6.0313,-6.0714,-6.2157,-6.6033,-6.6504,-6.6489,-6.6504,-6.6504,-6.6305,-6.5844,-6.5824,-6.6018,-6.6485,-6.6489,-6.6508,-6.6508,-6.6508,-6.6508,-6.6508,-6.6508,-6.6508,-6.6508,-6.6508,-6.6508,-6.6508,-6.6508,-6.6508,-6.6508,-6.6508,-6.6503,-6.6505,-6.6509,-6.6503,-6.6505,-6.6495,-6.6495,-6.6491,-6.6491,-6.6489,-6.6526,-6.6702,-6.6751,-6.6756,-6.6783,-6.6805,-6.679,-6.6795,-6.6795,-6.6795,-6.6795,-6.6795,-6.6795,-6.6795,-6.6795,-6.6795,-6.6795,-6.6795,-6.6795,-6.6795,-6.6795,-6.6795,-6.6795,-6.6795,-6.6795,-6.6795,-6.6795,-6.6795,-6.6795,-6.6795,-6.6795,-6.68,-6.641,-6.498,-6.2013,-6.1701,-6.1701,-6.1701,-6.1701,-6.1701,-6.1701,-5.8929,-5.7285,-5.7285,-5.7285,-5.8675,-6.1647,-5.8792,-5.705,-5.6602,-5.6606,-5.6606,-5.6606,-5.6602,-5.6607,-3.0761,-3.7838,-4.4617,-4.9299,-5.0833,-5.1202,-5.1202,-5.1591,-5.1812,-5.1295,-5.2725,-5.4511,-5.6019,-5.6291,-5.6291,-5.6291,-5.6311,-5.6816,-5.8325,-6.0196,-6.2677,-6.6086,-6.65,-6.6504,-6.6504,-6.4775,-6.3634,-6.3634,-6.5416,-6.6504,-6.6504,-6.6489,-6.6508,-6.6508,-6.6508,-6.6508,-6.6508,-6.6508,-6.6485,-6.6489,-6.6485,-6.6495,-6.6497,-6.6497,-6.6495,-6.6508,-6.6508,-6.6497,-6.6507,-6.6606,-6.6601,-6.6507,-6.6497,-6.6504,-6.6513,-6.663,-6.6673,-6.6672,-6.677,-6.6803,-6.6798,-6.6798,-6.6804,-6.6795,-6.6795,-6.6795,-6.6795,-6.6795,-6.6795,-6.6795,-6.6795,-6.6795,-6.6795,-6.6795,-6.6795,-6.6795,-6.6795,-6.6795,-6.6795,-6.6795,-6.6795,-6.6795,-6.6795,-6.6795,-6.6795,-6.6795,-6.6795,-6.68,-6.68,-6.5141,-6.336,-6.1857,-6.1701,-6.1701,-6.1701,-5.9944,-5.8831,-5.8831,-5.7426,-5.6602,-5.6602,-5.6602,-5.8207,-6.1627,-6.0217,-5.8519,-5.6602,-5.6602,-5.7582,-5.9421,-5.7484,-5.7625,-3.1343,-3.6828,-4.1218,-4.6676,-4.8541,-4.9404,-5.0872,-5.119,-5.121,-5.1198,-5.3922,-5.6304,-5.6291,-5.6291,-5.6291,-5.6291,-5.6311,-5.6298,-5.6298,-5.8492,-6.1381,-6.4789,-6.5197,-6.5202,-6.5202,-6.2915,-6.1391,-6.1391,-6.377,-6.5576,-6.6446,-6.6489,-6.6489,-6.6489,-6.6508,-6.6508,-6.6508,-6.6504,-6.6509,-6.6504,-6.6542,-6.6543,-6.6498,-6.6552,-6.6581,-6.6567,-6.6522,-6.6501,-6.6527,-6.6727,-6.6683,-6.6519,-6.6566,-6.6576,-6.6583,-6.6741,-6.6798,-6.6798,-6.6798,-6.6798,-6.6795,-6.6795,-6.6795,-6.6795,-6.6795,-6.6795,-6.6795,-6.6795,-6.6795,-6.6795,-6.6795,-6.6795,-6.6795,-6.6795,-6.6795,-6.6795,-6.6795,-6.6795,-6.6795,-6.6795,-6.6795,-6.6795,-6.6795,-6.6795,-6.6502,-6.5624,-6.5507,-6.5507,-6.5492,-6.3282,-6.1701,-6.1701,-6.1701,-6.1701,-6.1705,-5.8577,-5.6602,-5.6606,-5.6606,-5.6606,-5.6606,-5.6602,-5.8202,-6.1622,-6.1701,-6.0432,-5.7894,-5.7894,-5.9202,-6.1627,-5.8187,-5.7971,-2.6819,-2.9311,-3.2198,-4.083,-4.3004,-4.448,-4.9959,-5.119,-5.121,-5.1198,-5.3922,-5.6304,-5.6291,-5.6291,-5.6291,-5.6291,-5.6291,-5.6291,-5.6298,-5.6459,-5.7838,-6.1264,-6.1677,-6.1677,-6.1677,-6.1502,-6.1405,-6.1405,-6.156,-6.309,-6.6325,-6.6504,-6.6504,-6.6504,-6.6489,-6.6508,-6.6508,-6.6503,-6.6504,-6.6504,-6.6699,-6.6682,-6.6517,-6.6702,-6.678,-6.676,-6.6575,-6.6505,-6.6517,-6.6727,-6.6683,-6.6518,-6.6712,-6.6784,-6.6785,-6.6798,-6.6805,-6.6795,-6.6795,-6.6795,-6.6795,-6.6795,-6.6795,-6.6795,-6.6795,-6.6795,-6.6795,-6.6795,-6.6795,-6.6795,-6.6795,-6.6795,-6.6795,-6.6795,-6.6795,-6.6795,-6.6795,-6.6795,-6.6795,-6.6795,-6.6795,-6.6795,-6.6795,-6.6795,-6.5702,-6.2457,-6.1969,-6.1969,-6.1974,-6.1818,-6.1701,-6.1701,-6.1701,-6.1705,-6.1705,-5.8577,-5.6606,-5.6606,-5.6606,-5.6606,-5.6606,-5.6602,-5.8202,-6.1622,-6.1701,-6.1603,-6.1427,-6.1427,-6.1529,-6.1627,-5.8182,-5.6699,-2.5174,-2.8851,-3.279,-3.8905,-4.4297,-4.8652,-5.0722,-5.1186,-5.1202,-5.121,-5.3922,-5.6297,-5.6291,-5.6291,-5.6291,-5.6291,-5.6291,-5.6291,-5.6311,-5.6284,-5.7566,-6.0986,-6.14,-6.1405,-6.1386,-6.1386,-6.1386,-6.1386,-6.1405,-6.1929,-6.3168,-6.3231,-6.4221,-6.6446,-6.6489,-6.65,-6.6503,-6.6489,-6.6565,-6.6693,-6.678,-6.6761,-6.6681,-6.6775,-6.6795,-6.6805,-6.6719,-6.6683,-6.6697,-6.6778,-6.6722,-6.664,-6.6717,-6.6756,-6.6806,-6.6795,-6.6809,-6.6795,-6.6795,-6.6795,-6.6795,-6.6795,-6.6795,-6.6795,-6.6795,-6.6795,-6.6795,-6.6795,-6.6795,-6.6795,-6.6795,-6.6795,-6.6795,-6.6795,-6.6795,-6.6795,-6.6795,-6.6795,-6.6795,-6.6795,-6.6795,-6.6795,-6.6795,-6.6795,-6.6385,-6.5155,-6.3106,-6.1701,-6.1701,-5.9788,-5.8436,-5.8441,-5.8441,-5.8421,-5.8421,-5.7309,-5.6606,-5.6606,-5.6606,-5.6606,-5.6602,-5.8714,-6.0451,-6.1681,-6.1701,-6.1701,-6.1701,-6.1701,-6.1701,-6.1627,-5.8182,-5.6605,-2.3037,-2.6662,-3.038,-3.3779,-3.8661,-4.381,-4.8419,-4.9448,-4.9796,-5.0969,-5.3914,-5.6297,-5.6304,-5.6291,-5.6291,-5.6291,-5.6291,-5.6291,-5.6291,-5.6298,-5.7579,-6.1,-6.1414,-6.14,-6.14,-6.14,-6.14,-6.14,-6.1386,-6.1405,-6.1405,-6.1391,-6.2963,-6.6388,-6.65,-6.6528,-6.6601,-6.6604,-6.6672,-6.6803,-6.6806,-6.6791,-6.6795,-6.6792,-6.6804,-6.6797,-6.6796,-6.6794,-6.6793,-6.6793,-6.6775,-6.6728,-6.6716,-6.6736,-6.6795,-6.6793,-6.6803,-6.6793,-6.6793,-6.6805,-6.6795,-6.6795,-6.6795,-6.6795,-6.6795,-6.6795,-6.6795,-6.6795,-6.6795,-6.6795,-6.6795,-6.6795,-6.6795,-6.6795,-6.6795,-6.6795,-6.6795,-6.6795,-6.6795,-6.6795,-6.6795,-6.6795,-6.6795,-6.6795,-6.68,-6.68,-6.2911,-5.9983,-5.9983,-5.8011,-5.6602,-5.6602,-5.6602,-5.6602,-5.6606,-5.6606,-5.6606,-5.6606,-5.768,-5.7797,-5.6641,-5.9885,-6.1701,-6.1701,-6.1701,-6.1701,-6.1701,-6.1701,-6.1701,-6.1642,-5.9378,-5.8318,0.0,0.0,0.0,-2.52,-2.5684,-2.9326,-4.2413,-4.5716,-4.6978,-5.0484,-5.3837,-5.6181,-5.6285,-5.6304,-5.6291,-5.6291,-5.6291,-5.6291,-5.6291,-5.6298,-5.7579,-6.1,-6.1414,-6.14,-6.14,-6.14,-6.14,-6.14,-6.14,-6.14,-6.14,-6.1405,-6.2959,-6.6388,-6.6497,-6.6601,-6.6808,-6.68,-6.6803,-6.6803,-6.6804,-6.6795,-6.6795,-6.6795,-6.6793,-6.6794,-6.6794,-6.6794,-6.6796,-6.6798,-6.6795,-6.6792,-6.6739,-6.6739,-6.6798,-6.68,-6.6796,-6.6794,-6.6794,-6.6803,-6.6795,-6.6795,-6.6795,-6.6795,-6.6795,-6.6795,-6.6795,-6.6795,-6.6795,-6.6795,-6.6795,-6.6795,-6.6795,-6.6795,-6.6795,-6.6795,-6.6795,-6.6795,-6.6795,-6.6795,-6.6795,-6.6795,-6.6795,-6.68,-6.6722,-6.6527,-6.0842,-5.6602,-5.6606,-5.6606,-5.6606,-5.6606,-5.6606,-5.6606,-5.6606,-5.6606,-5.6606,-5.6606,-5.9714,-6.0065,-5.6738,-5.9885,-6.1701,-6.1701,-6.1701,-6.1701,-6.1701,-6.1701,-6.1701,-6.1701,-6.1701,-6.1698,-1.9425,0.0,0.0,0.0,0.0,0.0,-3.1503,-3.8902,-4.6988,-5.047,-5.1947,-5.3366,-5.5838,-5.6304,-5.6304,-5.6291,-5.6291,-5.6291,-5.6291,-5.6298,-5.7573,-6.0994,-6.1408,-6.1394,-6.1394,-6.14,-6.14,-6.14,-6.14,-6.14,-6.14,-6.1405,-6.2973,-6.6402,-6.6497,-6.6599,-6.6799,-6.6798,-6.6798,-6.6804,-6.679,-6.6795,-6.6795,-6.6795,-6.68,-6.6793,-6.6758,-6.6734,-6.6734,-6.6738,-6.6737,-6.672,-6.6711,-6.6713,-6.6722,-6.6736,-6.6719,-6.6731,-6.677,-6.6805,-6.6795,-6.6795,-6.6795,-6.6795,-6.6795,-6.6795,-6.6795,-6.6795,-6.6795,-6.6795,-6.6795,-6.6795,-6.6795,-6.6795,-6.6795,-6.6795,-6.6795,-6.6795,-6.6795,-6.6795,-6.6795,-6.6795,-6.6795,-6.68,-6.5121,-6.0178,-5.7812,-5.6602,-5.6606,-5.6606,-5.6606,-5.6606,-5.6606,-5.6606,-5.6606,-5.6606,-5.6606,-5.6606,-5.7484,-5.7582,-5.6641,-5.9885,-6.1701,-6.1701,-6.1701,-6.1701,-6.1701,-6.1701,-6.1701,-6.1701,-6.1697,-6.1699,-2.1046,-2.3217,-2.4777,-2.1346,0.0,0.0,-2.4372,-3.1853,-3.938,-3.8558,-4.5218,-5.18,-5.3798,-5.5345,-5.6297,-5.6304,-5.6304,-5.6304,-5.6291,-5.6311,-5.7049,-5.9044,-5.9263,-5.9827,-6.1245,-6.14,-6.14,-6.14,-6.14,-6.1414,-6.1402,-6.1402,-6.2309,-6.4312,-6.4371,-6.4432,-6.4538,-6.4625,-6.5393,-6.68,-6.68,-6.6795,-6.6795,-6.6795,-6.6793,-6.6793,-6.6755,-6.6735,-6.6706,-6.6706,-6.6707,-6.6705,-6.6699,-6.6725,-6.6735,-6.6738,-6.6732,-6.6752,-6.6781,-6.6797,-6.6797,-6.68,-6.6795,-6.6795,-6.6795,-6.6795,-6.6795,-6.6795,-6.6795,-6.6795,-6.6795,-6.6795,-6.6795,-6.6795,-6.6795,-6.6795,-6.6795,-6.6795,-6.6795,-6.6795,-6.6795,-6.6795,-6.6795,-6.5624,-6.2833,-5.7402,-5.6602,-5.6602,-5.6606,-5.6606,-5.6606,-5.6606,-5.6606,-5.6606,-5.6606,-5.6606,-5.6606,-5.6606,-5.6606,-5.725,-5.8675,-6.0646,-6.1701,-6.1701,-6.1701,-6.1705,-6.1694,-6.1705,-6.1701,-6.1705,-6.1524,-6.146,-2.3936,-2.4835,-2.4869,-2.1823,-2.106,0.0,-2.059,-2.6672,-3.0668,-2.4591,-3.8188,-5.1072,-5.0701,-5.3102,-5.5155,-5.5163,-5.5804,-5.6297,-5.6304,-5.6291,-5.6298,-5.6304,-5.6634,-5.8051,-6.1109,-6.14,-6.14,-6.1414,-6.1394,-6.1227,-6.0842,-6.1223,-6.144,-6.1422,-6.1428,-6.1424,-6.1432,-6.1601,-6.3218,-6.6234,-6.6234,-6.6234,-6.6249,-6.6619,-6.6808,-6.6808,-6.6787,-6.6756,-6.6693,-6.6702,-6.6702,-6.6702,-6.6693,-6.6733,-6.6798,-6.6797,-6.6806,-6.6791,-6.6796,-6.6794,-6.6793,-6.6809,-6.68,-6.68,-6.6795,-6.6795,-6.6795,-6.6795,-6.6795,-6.6795,-6.6795,-6.6795,-6.6795,-6.6795,-6.6795,-6.6795,-6.6795,-6.6795,-6.6795,-6.6795,-6.6795,-6.6795,-6.6795,-6.3965,-6.0549,-5.7109,-5.6606,-5.6606,-5.6606,-5.6606,-5.6606,-5.6606,-5.6606,-5.6606,-5.6606,-5.6606,-5.6606,-5.6606,-5.6606,-5.7953,-6.1017,-6.1505,-6.1701,-6.1701,-6.1701,-6.169,-6.1709,-6.169,-6.1701,-6.1694,-6.1325,-6.1133,-2.5246,-2.5424,-2.544,-2.4759,-2.4642,0.0,-2.1133,-3.2182,-4.2637,-4.1305,-4.6456,-5.0342,-4.7525,-4.7559,-4.8009,-4.802,-5.2679,-5.6294,-5.6309,-5.6297,-5.6297,-5.6291,-5.8726,-6.067,-6.1336,-6.14,-6.1394,-6.1401,-6.139,-6.0195,-5.7439,-6.0069,-6.1637,-6.1646,-6.1636,-6.1634,-6.1634,-6.168,-6.2025,-6.2696,-6.2696,-6.2696,-6.2794,-6.5546,-6.68,-6.6797,-6.6732,-6.6703,-6.6711,-6.6694,-6.6709,-6.6702,-6.6693,-6.6733,-6.6798,-6.6797,-6.6794,-6.6796,-6.6736,-6.6755,-6.6793,-6.6809,-6.6793,-6.6806,-6.6805,-6.6795,-6.6795,-6.6795,-6.6795,-6.6795,-6.6795,-6.6795,-6.6795,-6.6795,-6.6795,-6.6795,-6.6795,-6.6795,-6.6795,-6.6795,-6.6795,-6.6795,-6.68,-6.3965,-6.0549,-5.7113,-5.6606,-5.6606,-5.6606,-5.6606,-5.6606,-5.6606,-5.6606,-5.6606,-5.6606,-5.6606,-5.6606,-5.6606,-5.6606,-5.6899,-5.7577,-6.0237,-6.1701,-6.1701,-6.1701,-6.169,-6.1709,-6.169,-6.1697,-6.1698,-6.1612,-6.1402,-2.6062,-2.6199,-2.6641,-2.5812,-2.564,0.0,0.0,-3.088,-3.3336,-3.3334,-3.4728,-3.5391,-3.3654,-3.4736,-3.5864,-3.583,-3.873,-4.3976,-5.2553,-5.2267,-5.1166,-5.1153,-5.7217,-6.1402,-6.1394,-6.1414,-6.1428,-6.1542,-6.1539,-6.0798,-5.9081,-6.0707,-6.091,-5.9209,-6.0815,-6.1706,-6.1699,-6.1699,-6.1705,-6.1701,-6.1701,-6.1701,-6.1759,-6.3477,-6.4259,-6.4354,-6.5996,-6.6691,-6.6707,-6.6745,-6.6756,-6.6741,-6.6707,-6.6728,-6.675,-6.6757,-6.6755,-6.6754,-6.6745,-6.6769,-6.6793,-6.677,-6.677,-6.6797,-6.68,-6.6795,-6.6795,-6.6795,-6.6795,-6.6795,-6.6795,-6.6795,-6.6795,-6.6795,-6.6795,-6.6795,-6.6795,-6.6795,-6.68,-6.68,-6.5409,-6.4258,-6.4258,-6.1427,-5.8573,-5.6855,-5.6606,-5.6606,-5.6606,-5.6606,-5.6606,-5.6606,-5.6606,-5.7289,-5.9007,-5.7582,-5.6606,-5.6606,-5.6606,-5.6602,-5.6602,-5.9885,-6.1701,-6.1701,-6.1701,-6.1705,-6.1697,-6.1704,-6.1694,-6.1705,-6.1693,-6.1598,-2.7424,-2.7402,-2.8287,-2.6929,-2.7144,-2.8801,0.0,0.0,0.0,-2.0748,-2.1657,-2.2167,-2.084,-2.2865,-2.4927,-2.5517,-2.5609,-3.1391,-4.7938,-4.5541,-4.3559,-4.7505,-5.5338,-6.0417,-6.043,-6.1007,-6.1479,-6.167,-6.1705,-6.1697,-6.1699,-6.1706,-6.0431,-5.7675,-5.9612,-6.0725,-6.0725,-6.0725,-6.1056,-6.1701,-6.1701,-6.1701,-6.1701,-6.1701,-6.1697,-6.1893,-6.5253,-6.6715,-6.6717,-6.6759,-6.6785,-6.6778,-6.6747,-6.6717,-6.6718,-6.6716,-6.6716,-6.6738,-6.6787,-6.6808,-6.6795,-6.6731,-6.6756,-6.6795,-6.6795,-6.6795,-6.6795,-6.6795,-6.6795,-6.6795,-6.6795,-6.6795,-6.6795,-6.6795,-6.6795,-6.6619,-6.5956,-6.5819,-6.5824,-6.5824,-6.3594,-6.1701,-6.1701,-5.9412,-5.7577,-5.7577,-5.7011,-5.6606,-5.6606,-5.7172,-5.7328,-5.6665,-5.6606,-5.7719,-6.0475,-5.8187,-5.6879,-5.7543,-5.6953,-5.6894,-5.7558,-6.0237,-6.1701,-6.1701,-6.1701,-6.1701,-6.1701,-6.1695,-6.1706,-6.1698,-6.1622,-6.1589,-3.0667,-2.9492,-3.0365,-3.0177,-3.2492,-3.3434,-2.8086,0.0,-2.4254,-2.1223,0.0,-2.7793,-2.1728,0.0,0.0,-2.521,-2.5697,-3.0642,-4.4855,-3.5983,-3.4746,-5.2964,-5.616,-5.6874,-5.6872,-5.9611,-6.148,-6.1685,-6.1706,-6.1701,-6.1696,-6.1696,-6.1525,-6.1134,-5.8558,-5.7187,-5.7187,-5.7187,-5.869,-6.1701,-6.1701,-6.1701,-6.1701,-6.1701,-6.1701,-6.1893,-6.531,-6.6794,-6.6777,-6.6727,-6.6708,-6.6728,-6.6765,-6.6789,-6.6789,-6.6798,-6.6791,-6.6795,-6.6806,-6.6791,-6.6794,-6.6797,-6.6795,-6.6795,-6.6795,-6.6795,-6.6795,-6.6795,-6.6795,-6.6795,-6.6795,-6.6795,-6.6795,-6.6795,-6.68,-6.598,-6.293,-6.2286,-6.2286,-6.2286,-6.1974,-6.1701,-6.1701,-6.1388,-6.1115,-6.1115,-5.8538,-5.6602,-5.6602,-5.9241,-5.9963,-5.6914,-5.6602,-5.6758,-5.7148,-5.6816,-5.789,-6.092,-5.8285,-5.7948,-6.0998,-6.1486,-6.1701,-6.1701,-6.1701,-6.1701,-6.1701,-6.1695,-6.1706,-6.1698,-6.1328,-6.1173,-2.9347,-2.7433,-2.9234,-3.5248,-3.3353,-2.9253,-2.6364,-2.5705,-2.5297,-2.3851,0.0,0.0,0.0,0.0,0.0,0.0,-2.2734,-2.546,-3.3249,-2.9351,-3.187,-4.8515,-4.3415,-4.3233,-5.5132,-5.7599,-5.4359,-4.4509,-5.4903,-6.1694,-6.1705,-6.1701,-6.1701,-6.1701,-5.8382,-5.6602,-5.6602,-5.8577,-6.0276,-6.1701,-6.1701,-6.1701,-6.1701,-6.1701,-6.1709,-6.1782,-6.3222,-6.3827,-6.3943,-6.5941,-6.6745,-6.6713,-6.6761,-6.677,-6.6734,-6.6745,-6.6732,-6.6738,-6.6734,-6.6771,-6.6808,-6.6805,-6.6795,-6.6795,-6.6795,-6.6795,-6.6795,-6.6795,-6.6795,-6.6795,-6.6795,-6.6795,-6.6312,-6.4316,-6.3848,-6.3457,-6.2013,-6.1701,-6.1701,-6.1701,-6.1701,-6.1701,-6.1701,-6.1701,-6.1701,-6.1701,-6.0471,-5.9553,-5.9553,-6.0803,-6.1154,-5.971,-5.9553,-5.9553,-5.9553,-5.9553,-6.0178,-6.1603,-6.0354,-6.0198,-6.1642,-6.1701,-6.0759,-5.8788,-6.0681,-6.1701,-6.1701,-6.1699,-6.1698,-6.1694,-6.1281,-6.1116,-2.9543,-2.8452,-3.2114,-4.1515,-3.4714,-2.5707,-2.5693,-2.5703,-2.5707,-2.5707,-2.5707,0.0,0.0,0.0,-2.4577,-2.1156,0.0,-2.1464,-2.395,-2.3485,-2.6956,-3.7944,-3.1237,-3.3031,-5.1749,-5.4371,-4.7426,-2.9329,-4.6303,-5.8713,-6.1549,-6.1701,-6.1701,-6.1701,-5.93,-5.8007,-5.8007,-6.0451,-6.1701,-6.1701,-6.1701,-6.1701,-6.1701,-6.1701,-6.1701,-6.1701,-6.169,-6.166,-6.1793,-6.4328,-6.5355,-6.5325,-6.5375,-6.5371,-6.5434,-6.6384,-6.6736,-6.6722,-6.6735,-6.6766,-6.6795,-6.6795,-6.6795,-6.6795,-6.6795,-6.6795,-6.6795,-6.6795,-6.6795,-6.658,-6.5643,-6.539,-6.4785,-6.2286,-6.1701,-6.1701,-6.1701,-6.1701,-6.1701,-6.1701,-6.1701,-6.1701,-6.1701,-6.1701,-6.1701,-6.1701,-6.1701,-6.1701,-6.1701,-6.1701,-6.1701,-6.1701,-6.1701,-6.1701,-6.1701,-6.1701,-6.1701,-6.1701,-6.1701,-6.1701,-6.1701,-6.0798,-5.9588,-5.8026,-5.9523,-6.0307,-6.0307,-6.124,-6.1643,-6.153,-6.1236,-6.0613,-3.3433,-3.5424,-4.21,-4.9128,-3.8186,-2.5696,-2.5704,-2.5693,-2.5705,-2.5707,-2.5705,-2.5703,-2.5703,-2.5705,-2.4573,-2.1154,-2.0605,0.0,0.0,-1.7854,-1.7156,-2.0975,-2.3958,-3.1216,-4.526,-4.9502,-4.2873,-2.2371,-3.6967,-5.1157,-6.1178,-6.1705,-6.1705,-6.1701,-6.1583,-6.1544,-6.1544,-6.1642,-6.1701,-6.1701,-6.1701,-6.1701,-6.1701,-6.1701,-6.1701,-6.1701,-6.1692,-6.1658,-6.162,-6.1715,-6.1794,-6.1854,-6.187,-6.1855,-6.2256,-6.5585,-6.6806,-6.6791,-6.6796,-6.6803,-6.6795,-6.6795,-6.6795,-6.6795,-6.6795,-6.6795,-6.6795,-6.68,-6.68,-6.6039,-6.2716,-6.1857,-6.1837,-6.174,-6.1701,-6.1701,-6.1701,-6.1701,-6.1701,-6.1701,-6.1701,-6.1701,-6.1701,-6.1701,-6.1701,-6.1701,-6.1701,-6.1701,-6.1701,-6.1701,-6.1701,-6.1701,-6.1701,-6.1701,-6.1701,-6.1701,-6.1701,-6.1701,-6.1701,-6.1701,-6.1701,-5.8514,-5.828,-6.1466,-5.8393,-5.6751,-5.677,-6.0089,-6.15,-6.1116,-6.1116,-5.9319,-4.8639,-4.2719,-3.7544,-3.7669,-3.3316,-2.8437,-2.6213,-2.569,-2.6993,-3.1569,-3.0687,-2.9081,-2.9084,-2.9086,-2.8697,-2.7544,-2.3558,-2.0609,0.0,-1.9588,-1.8417,-1.7285,-2.2201,-2.7539,-3.2215,-3.3667,-3.0479,-2.1193,-3.6521,-4.7816,-5.1316,-5.5845,-5.9363,-6.1627,-6.1705,-6.1694,-6.169,-6.1694,-6.1694,-6.1709,-6.169,-6.1701,-6.1701,-6.1701,-6.1701,-6.1701,-6.1692,-6.1697,-6.1658,-6.1621,-6.164,-6.1697,-6.1692,-6.1701,-6.2115,-6.5545,-6.6795,-6.6806,-6.6797,-6.6805,-6.6795,-6.6795,-6.6795,-6.6795,-6.6795,-6.5214,-6.3413,-6.3418,-6.3418,-6.3164,-6.1993,-6.1701,-6.1701,-6.1701,-6.1701,-6.1701,-6.1701,-6.1701,-6.1701,-6.1701,-6.1701,-6.1701,-6.1701,-6.1701,-6.1701,-6.1701,-6.1701,-6.1701,-6.1701,-6.1701,-6.1701,-6.1701,-6.1701,-6.1701,-6.1701,-6.1701,-6.1701,-6.1701,-6.1701,-6.1701,-6.1701,-6.0583,-6.0522,-6.1674,-6.0566,-5.9978,-5.9978,-6.0866,-6.0072,-5.7717,-5.7715,-5.7116,-5.629,-4.9829,-4.2578,-4.0399,-3.6156,-3.132,-2.6734,-2.5691,-2.7995,-3.615,-3.4078,-3.0794,-3.0799,-3.1819,-3.1843,-2.9398,-2.5297,-2.1569,0.0,-1.875,-1.792,-1.5662,-2.0399,-2.4346,-2.5585,-2.4589,-2.5468,-2.9383,-4.0006,-4.6295,-4.6296,-5.1668,-5.5767,-5.7972,-5.9241,-6.0464,-6.169,-6.1681,-6.1681,-6.1709,-6.1701,-6.1694,-6.1701,-6.1701,-6.1701,-6.1701,-6.1701,-6.1694,-6.1697,-6.1653,-6.1655,-6.1695,-6.1694,-6.1701,-6.1974,-6.4164,-6.5762,-6.6795,-6.6795,-6.6795,-6.6795,-6.6795,-6.6795,-6.6795,-6.6795,-6.4414,-6.1696,-6.1701,-6.1701,-6.1701,-6.1701,-6.1701,-6.1701,-6.1701,-6.1701,-6.1701,-6.1701,-6.1701,-6.1701,-6.1701,-6.1701,-6.1701,-6.1701,-6.1701,-6.1701,-6.1701,-6.1701,-6.1701,-6.1701,-6.1701,-6.1701,-6.1701,-6.1701,-6.1701,-6.1701,-6.1701,-6.1701,-6.169,-6.1705,-6.1701,-6.1701,-6.1694,-6.1692,-6.1699,-6.1693,-6.1621,-6.1485,-6.1232,-5.9339,-5.5999,-5.5996,-5.6014]}]]